[[{"header":{"parameterUnit":"m.s-1","parameterCategory":1,"la1":31.0,"la2":29.5877,"lo1":-88.7671,"lo2":-86.6584,"dx":0.0162,"dy":0.0185,"nx":115,"ny":88,"refTime":"2022-12-16T06:00:00:Z","depth":0,"parameterNumber":2,"parameterNumberName":"U-component_of_WINDS"},"data":[0.0,0.0,0.0,0.0,0.0,0.0,0.0,0.0,0.0,0.0,0.0,0.0,0.0,0.0,0.0,0.0,0.0,0.0,0.0,0.0,0.0,0.0,0.0,0.0,0.0,0.0,0.0,0.0,0.0,0.0,0.0,0.0,0.0,0.0,0.0,0.0,0.0,0.0,0.0,0.0,0.0,0.0,0.0,0.0,0.0,0.0,0.0,0.0,0.0,0.0,0.0,0.0,0.0,0.0,0.0,0.0,0.0,0.0,0.0,0.0,0.0,0.0,0.0,0.0,0.0,0.0,0.0,0.0,0.0,0.0,0.0,0.0,0.0,0.0,0.0,0.0,0.0,0.0,0.0,0.0,0.0,0.0,0.0,0.0,0.0,0.0,0.0,0.0,0.0,0.0,0.0,0.0,0.0,0.0,0.0,0.0,0.0,0.0,0.0,0.0,0.0,0.0,0.0,0.0,0.0,0.0,0.0,0.0,0.0,0.0,0.0,0.0,0.0,0.0,0.0,0.0,0.0,0.0,0.0,0.0,0.0,0.0,0.0,0.0,0.0,0.0,0.0,0.0,0.0,0.0,0.0,0.0,0.0,0.0,0.0,0.0,0.0,0.0,0.0,0.0,0.0,0.0,0.0,0.0,0.0,0.0,0.0,0.0,0.0,0.0,0.0,0.0,0.0,0.0,0.0,0.0,0.0,0.0,0.0,0.0,0.0,0.0,0.0,0.0,0.0,0.0,0.0,0.0,0.0,0.0,0.0,0.0,0.0,0.0,0.0,0.0,0.0,0.0,0.0,0.0,0.0,0.0,0.0,0.0,0.0,0.0,0.0,0.0,0.0,0.0,0.0,0.0,0.0,0.0,0.0,0.0,0.0,0.0,0.0,0.0,0.0,0.0,0.0,0.0,0.0,0.0,0.0,0.0,0.0,0.0,0.0,0.0,0.0,0.0,0.0,0.0,0.0,0.0,0.0,0.0,0.0,0.0,0.0,0.0,0.0,0.0,0.0,0.0,0.0,0.0,0.0,0.0,0.0,0.0,0.0,0.0,0.0,0.0,0.0,0.0,0.0,0.0,0.0,0.0,0.0,0.0,0.0,0.0,0.0,0.0,0.0,0.0,0.0,0.0,0.0,0.0,0.0,0.0,0.0,0.0,0.0,0.0,0.0,0.0,0.0,0.0,0.0,0.0,0.0,0.0,0.0,0.0,0.0,0.0,0.0,0.0,0.0,0.0,0.0,0.0,0.0,0.0,0.0,0.0,0.0,0.0,0.0,0.0,0.0,0.0,0.0,0.0,0.0,0.0,0.0,0.0,0.0,0.0,0.0,0.0,0.0,0.0,0.0,0.0,0.0,0.0,0.0,0.0,0.0,0.0,0.0,0.0,0.0,0.0,0.0,0.0,0.0,0.0,0.0,0.0,0.0,0.0,0.0,0.0,0.0,0.0,0.0,0.0,0.0,0.0,0.0,0.0,0.0,0.0,0.0,0.0,0.0,0.0,0.0,0.0,0.0,0.0,0.0,0.0,0.0,0.0,0.0,0.0,0.0,0.0,0.0,0.0,0.0,0.0,0.0,0.0,0.0,0.0,0.0,0.0,0.0,0.0,0.0,0.0,0.0,0.0,0.0,0.0,0.0,0.0,0.0,0.0,0.0,0.0,0.0,0.0,0.0,0.0,0.0,0.0,0.0,0.0,0.0,0.0,0.0,0.0,0.0,0.0,0.0,0.0,0.0,0.0,0.0,0.0,0.0,0.0,0.0,0.0,0.0,0.0,0.0,0.0,0.0,0.0,0.0,0.0,0.0,0.0,0.0,0.0,0.0,0.0,0.0,0.0,0.0,0.0,0.0,0.0,0.0,0.0,0.0,0.0,0.0,0.0,0.0,0.0,0.0,0.0,0.0,0.0,0.0,0.0,0.0,0.0,0.0,0.0,0.0,0.0,0.0,0.0,0.0,0.0,0.0,0.0,0.0,0.0,0.0,0.0,0.0,0.0,0.0,0.0,0.0,0.0,0.0,0.0,0.0,0.0,0.0,0.0,0.0,0.0,0.0,0.0,0.0,0.0,0.0,0.0,0.0,0.0,0.0,0.0,0.0,0.0,0.0,0.0,0.0,0.0,0.0,0.0,0.0,0.0,0.0,0.0,0.0,0.0,0.0,0.0,0.0,0.0,0.0,0.0,0.0,0.0,0.0,0.0,0.0,0.0,0.0,0.0,0.0,0.0,0.0,0.0,0.0,0.0,0.0,0.0,0.0,0.0,0.0,0.0,0.0,0.0,0.0,0.0,0.0,0.0,0.0,0.0,0.0,0.0,0.0,0.0,0.0,0.0,0.0,0.0,0.0,0.0,0.0,0.0,0.0,0.0,0.0,0.0,0.0,0.0,0.0,0.0,0.0,0.0,0.0,0.0,0.0,0.0,0.0,0.0,0.0,0.0,0.0,0.0,0.0,0.0,0.0,0.0,0.0,0.0,0.0,0.0,0.0,0.0,0.0,0.0,0.0,0.0,0.0,0.0,0.0,0.0,0.0,0.0,0.0,0.0,0.0,0.0,0.0,0.0,0.0,0.0,0.0,0.0,0.0,0.0,0.0,0.0,0.0,0.0,0.0,0.0,0.0,0.0,0.0,0.0,0.0,0.0,0.0,0.0,0.0,0.0,0.0,0.0,0.0,0.0,0.0,0.0,0.0,0.0,0.0,0.0,0.0,0.0,0.0,0.0,0.0,0.0,0.0,0.0,0.0,0.0,0.0,0.0,0.0,0.0,0.0,0.0,0.0,0.0,0.0,0.0,0.0,0.0,0.0,0.0,0.0,0.0,0.0,0.0,0.0,0.0,0.0,0.0,0.0,0.0,0.0,0.0,0.0,0.0,0.0,0.0,0.0,0.0,0.0,0.0,0.0,0.0,0.0,0.0,0.0,0.0,0.0,0.0,0.0,0.0,0.0,0.0,0.0,0.0,0.0,0.0,0.0,0.0,0.0,0.0,0.0,0.0,0.0,0.0,0.0,0.0,0.0,0.0,0.0,0.0,0.0,0.0,0.0,0.0,0.0,0.0,0.0,0.0,0.0,0.0,0.0,0.0,0.0,0.0,0.0,0.0,0.0,0.0,0.0,0.0,0.0,0.0,0.0,0.0,0.0,0.0,0.0,0.0,0.0,0.0,0.0,0.0,0.0,0.0,0.0,0.0,0.0,0.0,0.0,0.0,0.0,0.0,0.0,0.0,0.0,0.0,0.0,0.0,0.0,0.0,0.0,0.0,0.0,0.0,0.0,0.0,0.0,0.0,0.0,0.0,0.0,0.0,0.0,0.0,0.0,0.0,0.0,0.0,0.0,0.0,0.0,0.0,0.0,0.0,0.0,0.0,0.0,0.0,0.0,0.0,0.0,0.0,0.0,0.0,0.0,0.0,0.0,0.0,0.0,0.0,0.0,0.0,0.0,0.0,0.0,0.0,0.0,0.0,0.0,0.0,0.0,0.0,0.0,0.0,0.0,0.0,0.0,0.0,0.0,0.0,0.0,0.0,0.0,0.0,0.0,0.0,0.0,0.0,0.0,0.0,0.0,0.0,0.0,0.0,0.0,0.0,0.0,0.0,0.0,0.0,0.0,0.0,0.0,0.0,0.0,0.0,0.0,0.0,0.0,0.0,0.0,0.0,0.0,0.0,0.0,0.0,0.0,0.0,0.0,0.0,0.0,0.0,0.0,0.0,0.0,0.0,0.0,0.0,0.0,0.0,0.0,0.0,0.0,0.0,0.0,0.0,0.0,0.0,0.0,0.0,0.0,0.0,0.0,0.0,0.0,0.0,0.0,0.0,0.0,0.0,0.0,0.0,0.0,0.0,0.0,0.0,0.0,0.0,0.0,0.0,0.0,0.0,0.0,0.0,0.0,0.0,0.0,0.0,0.0,0.0,0.0,0.0,0.0,0.0,0.0,0.0,0.0,0.0,0.0,0.0,0.0,0.0,0.0,0.0,0.0,0.0,0.0,0.0,0.0,0.0,0.0,0.0,0.0,0.0,0.0,0.0,0.0,0.0,0.0,0.0,0.0,0.0,0.0,0.0,0.0,0.0,0.0,0.0,0.0,0.0,0.0,0.0,0.0,0.0,0.0,0.0,0.0,0.0,0.0,0.0,0.0,0.0,0.0,0.0,0.0,0.0,0.0,0.0,0.0,0.0,0.0,0.0,0.0,0.0,0.0,0.0,0.0,0.0,0.0,0.0,0.0,0.0,0.0,0.0,0.0,0.0,0.0,0.0,2.0636,0.0,0.0,0.0,1.9147,0.0,0.0,0.0,0.0,0.0,0.0,0.0,0.0,0.0,0.0,0.0,0.0,0.0,0.0,0.0,0.0,0.0,0.0,0.0,0.0,0.0,0.0,0.0,0.0,0.0,0.0,0.0,0.0,0.0,0.0,0.0,0.0,0.0,0.0,0.0,0.0,0.0,0.0,0.0,0.0,0.0,0.0,0.0,0.0,0.0,0.0,0.0,0.0,0.0,0.0,0.0,0.0,0.0,0.0,0.0,0.0,0.0,0.0,0.0,0.0,0.0,0.0,0.0,0.0,0.0,0.0,0.0,0.0,0.0,0.0,0.0,0.0,0.0,0.0,0.0,0.0,0.0,0.0,0.0,0.0,0.0,0.0,0.0,0.0,0.0,0.0,0.0,0.0,0.0,0.0,0.0,0.0,0.0,0.0,0.0,0.0,0.0,0.0,0.0,0.0,0.0,0.0,0.0,0.0,0.0,0.0,0.0,0.0,0.0,0.0,2.1448,2.0703,2.1786,2.1312,1.9012,0.0,0.0,0.0,0.0,0.0,0.0,0.0,0.0,0.0,0.0,0.0,0.0,0.0,0.0,0.0,0.0,0.0,0.0,0.0,0.0,0.0,0.0,0.0,0.0,0.0,0.0,0.0,0.0,0.0,0.0,0.0,0.0,0.0,0.0,0.0,0.0,0.0,0.0,0.0,0.0,0.0,0.0,0.0,0.0,0.0,0.0,0.0,0.0,0.0,0.0,0.0,0.0,0.0,0.0,0.0,0.0,0.0,0.0,0.0,0.0,0.0,0.0,0.0,0.0,0.0,0.0,0.0,0.0,0.0,0.0,0.0,0.0,0.0,0.0,0.0,0.0,0.0,0.0,0.0,0.0,0.0,0.0,0.0,0.0,0.0,0.0,0.0,0.0,0.0,0.0,0.0,0.0,0.0,0.0,0.0,0.0,0.0,0.0,0.0,0.0,0.0,0.0,0.0,0.0,0.0,0.0,0.0,0.0,0.0,0.0,0.0,0.0,2.2733,2.1887,1.9316,0.0,0.0,0.0,0.0,0.0,0.0,0.0,0.0,0.0,0.0,0.0,0.0,0.0,0.0,0.0,0.0,0.0,0.0,0.0,0.0,0.0,0.0,0.0,0.0,0.0,0.0,0.0,0.0,0.0,0.0,0.0,0.0,0.0,0.0,0.0,0.0,0.0,0.0,0.0,0.0,0.0,0.0,0.0,0.0,0.0,0.0,0.0,0.0,0.0,0.0,0.0,0.0,0.0,0.0,0.0,0.0,0.0,0.0,0.0,0.0,0.0,0.0,0.0,0.0,0.0,0.0,0.0,0.0,0.0,0.0,0.0,0.0,0.0,0.0,0.0,0.0,0.0,0.0,0.0,0.0,0.0,0.0,0.0,0.0,0.0,0.0,0.0,0.0,0.0,0.0,0.0,0.0,0.0,0.0,0.0,0.0,0.0,0.0,0.0,0.0,0.0,0.0,0.0,0.0,0.0,0.0,0.0,0.0,0.0,0.0,2.1481,2.4083,2.3038,0.0,2.0069,0.0,0.0,0.0,0.0,0.0,0.0,0.0,0.0,0.0,0.0,0.0,0.0,0.0,0.0,0.0,0.0,0.0,0.0,0.0,0.0,0.0,0.0,0.0,0.0,0.0,0.0,0.0,0.0,0.0,0.0,0.0,0.0,0.0,0.0,0.0,0.0,0.0,0.0,0.0,0.0,0.0,0.0,0.0,0.0,0.0,0.0,0.0,0.0,0.0,0.0,0.0,0.0,0.0,0.0,0.0,0.0,0.0,0.0,0.0,0.0,0.0,0.0,0.0,0.0,0.0,0.0,0.0,0.0,0.0,0.0,0.0,0.0,0.0,0.0,0.0,0.0,0.0,0.0,0.0,0.0,0.0,0.0,0.0,0.0,0.0,0.0,0.0,0.0,0.0,0.0,0.0,0.0,0.0,0.0,0.0,0.0,0.0,0.0,0.0,0.0,0.0,0.0,0.0,0.0,0.0,0.0,0.0,0.0,0.0,0.0,2.2361,2.4425,2.3071,2.1556,0.0,0.0,0.0,0.0,0.0,0.0,0.0,0.0,0.0,0.0,0.0,0.0,0.0,0.0,0.0,0.0,0.0,0.0,0.0,0.0,0.0,0.0,0.0,0.0,0.0,0.0,0.0,0.0,0.0,0.0,0.0,0.0,0.0,0.0,0.0,0.0,0.0,0.0,0.0,0.0,0.0,0.0,0.0,0.0,0.0,0.0,0.0,0.0,0.0,0.0,0.0,0.0,0.0,0.0,0.0,0.0,0.0,0.0,0.0,0.0,0.0,0.0,0.0,0.0,0.0,0.0,0.0,0.0,0.0,0.0,0.0,0.0,0.0,0.0,0.0,0.0,0.0,0.0,0.0,0.0,0.0,0.0,0.0,0.0,0.0,0.0,0.0,0.0,0.0,0.0,0.0,0.0,0.0,0.0,0.0,0.0,0.0,0.0,0.0,0.0,0.0,0.0,0.0,0.0,0.0,0.0,0.0,0.0,0.0,0.0,2.2158,2.3308,2.4628,2.3663,2.2201,2.0399,0.0,0.0,0.0,0.0,0.0,0.0,0.0,0.0,0.0,0.0,0.0,0.0,0.0,0.0,0.0,0.0,0.0,0.0,0.0,0.0,0.0,0.0,0.0,0.0,0.0,0.0,0.0,0.0,0.0,0.0,0.0,0.0,0.0,0.0,0.0,0.0,0.0,0.0,0.0,0.0,0.0,0.0,0.0,0.0,0.0,0.0,0.0,0.0,0.0,0.0,0.0,0.0,0.0,0.0,0.0,0.0,0.0,0.0,0.0,0.0,0.0,0.0,0.0,0.0,0.0,0.0,0.0,0.0,0.0,0.0,0.0,0.0,0.0,0.0,0.0,0.0,0.0,0.0,0.0,0.0,0.0,0.0,0.0,0.0,0.0,0.0,0.0,0.0,0.0,0.0,0.0,0.0,0.0,0.0,0.0,0.0,0.0,0.0,0.0,0.0,0.0,0.0,0.0,0.0,0.0,0.0,0.0,0.0,2.4019,2.3646,2.4052,2.5507,2.5099,2.3715,0.0,0.0,0.0,0.0,0.0,0.0,0.0,0.0,0.0,0.0,0.0,0.0,0.0,0.0,0.0,0.0,0.0,0.0,0.0,0.0,0.0,0.0,0.0,0.0,0.0,0.0,0.0,0.0,0.0,0.0,0.0,0.0,0.0,0.0,0.0,0.0,0.0,0.0,0.0,0.0,0.0,0.0,0.0,0.0,0.0,0.0,0.0,0.0,0.0,0.0,0.0,0.0,0.0,0.0,0.0,0.0,0.0,0.0,0.0,0.0,0.0,0.0,0.0,0.0,0.0,0.0,0.0,0.0,0.0,0.0,0.0,0.0,0.0,0.0,0.0,0.0,0.0,0.0,0.0,0.0,0.0,0.0,0.0,0.0,0.0,0.0,0.0,0.0,0.0,0.0,0.0,0.0,0.0,0.0,0.0,0.0,0.0,0.0,0.0,0.0,0.0,0.0,0.0,0.0,0.0,0.0,0.0,0.0,0.0,2.1583,2.3241,2.5033,2.686,2.479,2.3447,0.0,0.0,0.0,0.0,0.0,0.0,0.0,0.0,0.0,0.0,0.0,0.0,0.0,0.0,0.0,0.0,0.0,0.0,0.0,0.0,0.0,0.0,0.0,0.0,0.0,0.0,0.0,0.0,0.0,0.0,0.0,0.0,0.0,0.0,0.0,0.0,0.0,0.0,0.0,0.0,0.0,0.0,0.0,0.0,0.0,0.0,0.0,0.0,0.0,0.0,0.0,0.0,0.0,0.0,0.0,0.0,0.0,0.0,0.0,0.0,0.0,0.0,0.0,0.0,0.0,0.0,0.0,0.0,0.0,0.0,0.0,0.0,0.0,0.0,0.0,0.0,0.0,0.0,0.0,0.0,0.0,0.0,0.0,0.0,0.0,0.0,0.0,0.0,0.0,0.0,0.0,0.0,0.0,0.0,0.0,0.0,0.0,0.0,0.0,0.0,0.0,0.0,0.0,0.0,0.0,0.0,0.0,0.0,0.0,2.3144,2.5708,2.7497,2.8288,2.5936,2.412,0.0,0.0,0.0,0.0,0.0,0.0,0.0,0.0,0.0,0.0,0.0,0.0,0.0,0.0,0.0,0.0,0.0,0.0,0.0,0.0,0.0,0.0,0.0,0.0,0.0,0.0,0.0,0.0,0.0,0.0,0.0,0.0,0.0,0.0,0.0,0.0,0.0,0.0,0.0,0.0,0.0,0.0,0.0,0.0,0.0,0.0,0.0,0.0,0.0,0.0,0.0,0.0,0.0,0.0,0.0,0.0,0.0,0.0,0.0,0.0,0.0,0.0,0.0,0.0,0.0,0.0,0.0,0.0,0.0,0.0,0.0,0.0,0.0,0.0,0.0,0.0,0.0,0.0,0.0,0.0,0.0,0.0,0.0,0.0,0.0,0.0,0.0,0.0,0.0,0.0,0.0,0.0,0.0,0.0,0.0,0.0,0.0,0.0,0.0,0.0,0.0,0.0,0.0,0.0,0.0,0.0,0.0,0.0,2.3275,2.9333,3.1212,3.1249,2.9889,2.8706,2.5836,0.0,0.0,0.0,0.0,0.0,0.0,0.0,0.0,0.0,0.0,0.0,0.0,0.0,0.0,0.0,0.0,0.0,0.0,0.0,0.0,0.0,0.0,0.0,0.0,0.0,0.0,0.0,0.0,0.0,0.0,0.0,0.0,0.0,0.0,0.0,0.0,0.0,0.0,0.0,0.0,0.0,0.0,0.0,0.0,0.0,0.0,0.0,0.0,0.0,0.0,0.0,0.0,0.0,0.0,0.0,0.0,0.0,0.0,0.0,0.0,0.0,0.0,0.0,0.0,0.0,0.0,0.0,0.0,0.0,0.0,0.0,0.0,0.0,0.0,0.0,0.0,0.0,0.0,0.0,0.0,0.0,0.0,0.0,0.0,0.0,0.0,0.0,0.0,0.0,0.0,0.0,0.0,0.0,0.0,0.0,0.0,0.0,0.0,0.0,0.0,0.0,0.0,0.0,0.0,0.0,0.0,0.0,0.0,0.0,2.6887,2.9419,3.0936,3.115,2.8035,2.6375,0.0,0.0,0.0,0.0,0.0,0.0,0.0,0.0,0.0,0.0,0.0,0.0,0.0,0.0,0.0,0.0,0.0,0.0,0.0,0.0,0.0,0.0,0.0,0.0,0.0,0.0,0.0,0.0,0.0,0.0,0.0,0.0,0.0,0.0,0.0,0.0,0.0,0.0,0.0,0.0,0.0,0.0,0.0,0.0,0.0,0.0,0.0,0.0,0.0,0.0,0.0,0.0,0.0,0.0,0.0,0.0,0.0,0.0,0.0,0.0,0.0,0.0,0.0,0.0,0.0,0.0,0.0,0.0,0.0,0.0,0.0,0.0,0.0,0.0,0.0,0.0,0.0,0.0,0.0,0.0,0.0,0.0,0.0,0.0,0.0,0.0,0.0,0.0,0.0,0.0,0.0,0.0,0.0,0.0,0.0,0.0,0.0,0.0,0.0,0.0,0.0,0.0,0.0,0.0,0.0,0.0,0.0,0.0,0.0,3.0368,3.3213,3.4616,3.4269,3.0796,2.8658,2.7933,0.0,0.0,0.0,0.0,0.0,0.0,0.0,0.0,0.0,0.0,0.0,0.0,0.0,0.0,0.0,0.0,0.0,0.0,0.0,0.0,0.0,0.0,0.0,0.0,0.0,0.0,0.0,0.0,0.0,0.0,0.0,0.0,0.0,0.0,0.0,0.0,0.0,0.0,0.0,0.0,0.0,0.0,0.0,0.0,0.0,0.0,0.0,0.0,0.0,0.0,0.0,0.0,0.0,0.0,0.0,0.0,0.0,0.0,0.0,0.0,0.0,0.0,0.0,0.0,0.0,0.0,0.0,0.0,0.0,0.0,0.0,0.0,0.0,0.0,0.0,0.0,0.0,0.0,0.0,0.0,0.0,0.0,0.0,0.0,0.0,0.0,0.0,0.0,0.0,0.0,0.0,0.0,0.0,0.0,0.0,0.0,0.0,0.0,0.0,0.0,0.0,0.0,0.0,0.0,0.0,0.0,0.0,0.0,3.8321,4.1542,4.1615,3.8456,3.606,3.2328,0.0,0.0,0.0,0.0,0.0,0.0,0.0,0.0,0.0,0.0,0.0,0.0,0.0,0.0,0.0,0.0,0.0,0.0,0.0,0.0,0.0,0.0,0.0,0.0,0.0,0.0,0.0,0.0,0.0,0.0,0.0,0.0,0.0,0.0,0.0,0.0,0.0,0.0,0.0,0.0,0.0,0.0,0.0,0.0,0.0,0.0,0.0,0.0,0.0,0.0,0.0,0.0,0.0,0.0,0.0,0.0,0.0,0.0,0.0,0.0,0.0,0.0,0.0,0.0,0.0,0.0,0.0,0.0,0.0,0.0,0.0,0.0,0.0,0.0,0.0,0.0,0.0,0.0,0.0,0.0,0.0,0.0,0.0,0.0,0.0,0.0,0.0,0.0,0.0,0.0,0.0,0.0,0.0,0.0,0.0,0.0,0.0,0.0,0.0,0.0,0.0,0.0,0.0,0.0,0.0,0.0,0.0,0.0,0.0,4.2919,4.6724,4.617,4.0854,3.6653,3.3916,0.0,0.0,0.0,0.0,0.0,0.0,0.0,0.0,0.0,0.0,0.0,0.0,0.0,0.0,0.0,0.0,0.0,0.0,0.0,0.0,0.0,0.0,0.0,0.0,0.0,0.0,0.0,0.0,0.0,0.0,0.0,0.0,0.0,0.0,0.0,0.0,0.0,0.0,0.0,0.0,0.0,0.0,0.0,0.0,0.0,0.0,0.0,0.0,0.0,0.0,0.0,0.0,0.0,0.0,0.0,0.0,0.0,0.0,0.0,0.0,0.0,0.0,0.0,0.0,0.0,0.0,0.0,0.0,0.0,0.0,0.0,0.0,0.0,0.0,0.0,0.0,0.0,0.0,0.0,0.0,0.0,0.0,0.0,0.0,0.0,0.0,0.0,0.0,0.0,0.0,0.0,0.0,0.0,0.0,0.0,0.0,0.0,0.0,0.0,0.0,0.0,0.0,0.0,0.0,0.0,0.0,0.0,0.0,4.1846,4.7131,4.9554,4.9069,4.5548,4.1067,3.7489,0.0,0.0,0.0,0.0,0.0,0.0,0.0,0.0,0.0,0.0,0.0,0.0,0.0,0.0,0.0,0.0,0.0,0.0,0.0,0.0,0.0,0.0,0.0,0.0,0.0,0.0,0.0,0.0,0.0,0.0,0.0,0.0,0.0,0.0,0.0,0.0,0.0,0.0,0.0,0.0,0.0,0.0,0.0,0.0,0.0,0.0,0.0,0.0,0.0,0.0,0.0,0.0,0.0,0.0,0.0,0.0,0.0,0.0,0.0,0.0,0.0,0.0,0.0,0.0,0.0,0.0,0.0,0.0,0.0,0.0,0.0,0.0,0.0,0.0,0.0,0.0,0.0,0.0,0.0,0.0,0.0,0.0,0.0,0.0,0.0,0.0,0.0,0.0,0.0,0.0,0.0,0.0,0.0,0.0,0.0,0.0,0.0,0.0,0.0,0.0,0.0,0.0,0.0,0.0,0.0,0.0,0.0,0.0,4.3975,5.0765,5.1022,5.1022,5.0802,4.6874,4.1846,0.0,0.0,0.0,0.0,0.0,0.0,0.0,0.0,0.0,0.0,0.0,0.0,0.0,0.0,0.0,0.0,0.0,0.0,0.0,0.0,0.0,0.0,0.0,0.0,0.0,0.0,0.0,0.0,0.0,0.0,0.0,0.0,0.0,0.0,0.0,0.0,0.0,0.0,0.0,0.0,0.0,0.0,0.0,0.0,0.0,0.0,0.0,0.0,0.0,0.0,0.0,0.0,0.0,0.0,0.0,0.0,0.0,0.0,0.0,0.0,0.0,0.0,0.0,0.0,0.0,0.0,0.0,0.0,0.0,0.0,0.0,0.0,0.0,0.0,0.0,0.0,0.0,0.0,0.0,0.0,0.0,0.0,0.0,0.0,0.0,0.0,0.0,0.0,0.0,0.0,0.0,0.0,0.0,0.0,0.0,0.0,0.0,0.0,0.0,0.0,0.0,0.0,0.0,0.0,0.0,0.0,0.0,0.0,4.7572,5.161,5.238,5.238,5.1756,4.7168,4.2873,0.0,0.0,0.0,0.0,0.0,0.0,0.0,0.0,0.0,0.0,0.0,0.0,0.0,0.0,0.0,0.0,0.0,0.0,0.0,0.0,0.0,0.0,0.0,0.0,0.0,0.0,0.0,0.0,0.0,0.0,0.0,0.0,0.0,0.0,0.0,0.0,0.0,0.0,0.0,0.0,0.0,0.0,0.0,0.0,0.0,0.0,0.0,0.0,3.0345,0.0,0.0,0.0,0.0,0.0,0.0,0.0,0.0,0.0,0.0,0.0,0.0,0.0,0.0,0.0,0.0,0.0,0.0,0.0,0.0,0.0,0.0,0.0,0.0,0.0,0.0,0.0,0.0,0.0,0.0,0.0,0.0,0.0,0.0,0.0,0.0,0.0,0.0,0.0,0.0,0.0,0.0,0.0,0.0,0.0,0.0,0.0,0.0,0.0,0.0,0.0,0.0,0.0,0.0,0.0,0.0,0.0,0.0,0.0,4.926,5.2454,5.3335,5.3371,5.2491,4.9664,4.5736,0.0,0.0,0.0,0.0,0.0,0.0,0.0,0.0,0.0,0.0,0.0,0.0,0.0,0.0,0.0,0.0,0.0,0.0,0.0,0.0,0.0,0.0,0.0,0.0,0.0,0.0,0.0,0.0,0.0,0.0,0.0,0.0,0.0,0.0,0.0,0.0,0.0,0.0,0.0,0.0,0.0,0.0,0.0,0.0,0.0,0.0,0.0,0.0,0.0,0.0,0.0,0.0,0.0,0.0,0.0,0.0,0.0,0.0,0.0,0.0,0.0,0.0,0.0,0.0,0.0,0.0,0.0,0.0,0.0,0.0,0.0,0.0,0.0,0.0,0.0,0.0,0.0,0.0,0.0,0.0,0.0,0.0,0.0,0.0,0.0,0.0,0.0,0.0,0.0,0.0,0.0,0.0,0.0,0.0,0.0,0.0,0.0,0.0,0.0,0.0,0.0,0.0,0.0,0.0,0.0,0.0,0.0,4.6361,5.0141,5.3408,5.4252,5.4252,5.3592,5.2784,4.9003,4.1956,0.0,0.0,0.0,0.0,0.0,0.0,0.0,0.0,0.0,0.0,0.0,0.0,0.0,0.0,0.0,0.0,0.0,0.0,0.0,0.0,0.0,0.0,0.0,0.0,0.0,0.0,0.0,0.0,0.0,0.0,0.0,0.0,0.0,0.0,0.0,0.0,0.0,0.0,2.5631,2.9626,0.0,0.0,0.0,0.0,0.0,0.0,0.0,0.0,3.3844,0.0,0.0,0.0,0.0,0.0,0.0,0.0,0.0,0.0,0.0,0.0,0.0,0.0,0.0,0.0,0.0,0.0,0.0,0.0,0.0,0.0,0.0,0.0,0.0,0.0,0.0,0.0,0.0,0.0,0.0,0.0,0.0,0.0,0.0,0.0,0.0,0.0,0.0,0.0,0.0,0.0,0.0,0.0,0.0,0.0,0.0,0.0,0.0,0.0,0.0,0.0,0.0,0.0,0.0,0.0,0.0,4.6985,4.8563,5.1206,5.5097,5.5317,5.5317,5.517,5.4436,5.0912,4.4488,0.0,0.0,0.0,0.0,0.0,0.0,0.0,0.0,0.0,0.0,0.0,0.0,0.0,0.0,0.0,0.0,0.0,0.0,0.0,0.0,0.0,0.0,0.0,0.0,0.0,0.0,0.0,0.0,0.0,0.0,0.0,0.0,0.0,0.0,0.0,0.0,0.0,0.0,0.0,3.4708,3.6109,0.0,0.0,0.0,0.0,0.0,0.0,0.0,0.0,3.5577,0.0,0.0,0.0,0.0,0.0,0.0,0.0,0.0,0.0,0.0,0.0,0.0,0.0,0.0,0.0,0.0,0.0,0.0,0.0,0.0,0.0,0.0,0.0,0.0,0.0,0.0,0.0,0.0,0.0,0.0,0.0,0.0,0.0,0.0,0.0,0.0,0.0,0.0,0.0,0.0,0.0,0.0,0.0,0.0,0.0,0.0,0.0,0.0,0.0,0.0,0.0,0.0,0.0,0.0,0.0,4.6287,5.0545,5.3592,5.5537,5.6014,5.6014,5.5574,5.484,5.1353,0.0,0.0,0.0,0.0,0.0,0.0,0.0,0.0,0.0,0.0,0.0,0.0,0.0,0.0,0.0,0.0,0.0,0.0,0.0,0.0,0.0,0.0,0.0,0.0,0.0,0.0,0.0,0.0,0.0,0.0,0.0,0.0,0.0,0.0,0.0,0.0,0.0,0.0,0.0,0.0,3.7703,3.9103,4.0151,0.0,0.0,0.0,0.0,0.0,0.0,3.7404,3.5826,0.0,0.0,0.0,0.0,0.0,0.0,0.0,0.0,0.0,0.0,0.0,0.0,0.0,0.0,0.0,0.0,0.0,0.0,0.0,0.0,0.0,0.0,0.0,0.0,0.0,0.0,0.0,0.0,0.0,0.0,0.0,0.0,0.0,0.0,0.0,0.0,0.0,0.0,0.0,0.0,0.0,0.0,0.0,0.0,0.0,0.0,0.0,0.0,0.0,0.0,0.0,0.0,0.0,0.0,0.0,4.5259,5.1573,5.5427,5.6528,5.7189,5.7226,5.6565,5.5464,5.1867,0.0,0.0,0.0,0.0,0.0,0.0,0.0,0.0,0.0,0.0,0.0,0.0,0.0,0.0,0.0,0.0,0.0,0.0,0.0,0.0,0.0,0.0,0.0,0.0,0.0,0.0,0.0,0.0,0.0,0.0,0.0,0.0,0.0,0.0,0.0,0.0,0.0,0.0,0.0,0.0,0.0,4.1625,4.3681,4.1919,0.0,0.0,0.0,0.0,4.1185,3.9276,0.0,0.0,0.0,0.0,0.0,0.0,0.0,0.0,0.0,0.0,0.0,0.0,0.0,0.0,0.0,0.0,0.0,0.0,0.0,0.0,0.0,0.0,0.0,0.0,0.0,0.0,0.0,0.0,0.0,0.0,0.0,0.0,0.0,0.0,0.0,0.0,0.0,0.0,0.0,0.0,0.0,0.0,0.0,0.0,0.0,0.0,0.0,0.0,0.0,0.0,0.0,0.0,0.0,0.0,0.0,0.0,4.6691,5.0508,5.484,5.9538,5.9942,5.9942,5.9832,5.7703,5.3482,0.0,0.0,0.0,0.0,0.0,0.0,0.0,0.0,0.0,0.0,0.0,0.0,0.0,0.0,0.0,0.0,0.0,0.0,0.0,0.0,0.0,0.0,0.0,0.0,0.0,0.0,0.0,0.0,0.0,0.0,0.0,0.0,0.0,0.0,0.0,0.0,0.0,0.0,0.0,0.0,0.0,4.3497,4.1772,4.1809,4.2176,0.0,0.0,4.3754,4.6874,4.6434,0.0,0.0,0.0,0.0,0.0,0.0,0.0,0.0,0.0,0.0,0.0,0.0,0.0,0.0,0.0,0.0,0.0,0.0,0.0,0.0,0.0,0.0,0.0,0.0,0.0,0.0,0.0,0.0,0.0,0.0,0.0,0.0,0.0,0.0,0.0,0.0,0.0,0.0,0.0,0.0,0.0,0.0,0.0,0.0,0.0,0.0,0.0,0.0,0.0,0.0,0.0,0.0,0.0,0.0,0.0,4.3644,4.7792,5.2821,5.7005,6.0236,6.0419,6.0419,6.0382,5.851,5.4216,0.0,0.0,0.0,0.0,0.0,0.0,0.0,0.0,0.0,0.0,0.0,0.0,0.0,0.0,0.0,0.0,0.0,0.0,0.0,0.0,0.0,0.0,0.0,0.0,0.0,0.0,0.0,0.0,0.0,0.0,0.0,0.0,0.0,0.0,0.0,0.0,0.0,0.0,0.0,0.0,0.0,0.0,4.7719,4.6287,0.0,0.0,0.0,4.603,4.7425,0.0,0.0,0.0,0.0,0.0,0.0,0.0,0.0,0.0,0.0,0.0,0.0,0.0,0.0,0.0,0.0,0.0,0.0,0.0,0.0,0.0,0.0,0.0,0.0,0.0,0.0,0.0,0.0,0.0,0.0,0.0,0.0,0.0,0.0,0.0,0.0,0.0,0.0,0.0,0.0,0.0,0.0,0.0,0.0,0.0,0.0,0.0,0.0,0.0,0.0,0.0,0.0,0.0,0.0,0.0,0.0,0.0,4.8673,5.5427,5.9685,6.1263,6.152,6.152,6.13,5.9538,0.0,0.0,0.0,0.0,0.0,0.0,0.0,0.0,0.0,0.0,0.0,0.0,0.0,0.0,0.0,0.0,0.0,0.0,0.0,0.0,0.0,0.0,0.0,0.0,0.0,0.0,0.0,2.1694,0.0,0.0,0.0,0.0,0.0,0.0,0.0,0.0,0.0,0.0,0.0,0.0,0.0,0.0,4.7205,5.1646,4.9848,4.8746,0.0,0.0,4.8526,4.915,4.9224,4.8196,0.0,0.0,0.0,0.0,0.0,0.0,0.0,0.0,0.0,0.0,0.0,0.0,0.0,0.0,0.0,0.0,0.0,0.0,0.0,0.0,0.0,0.0,0.0,0.0,0.0,0.0,0.0,0.0,0.0,0.0,0.0,0.0,0.0,0.0,0.0,0.0,0.0,0.0,0.0,0.0,0.0,0.0,0.0,0.0,0.0,0.0,0.0,0.0,0.0,0.0,0.0,0.0,0.0,0.0,4.7021,4.9664,5.7336,6.2144,6.3796,6.4604,6.464,6.3833,6.152,5.6492,0.0,0.0,0.0,0.0,0.0,0.0,0.0,0.0,0.0,0.0,0.0,0.0,0.0,0.0,0.0,0.0,0.0,0.0,0.0,0.0,0.0,0.0,0.0,0.0,0.0,0.0,0.0,0.0,0.0,0.0,0.0,0.0,0.0,0.0,0.0,0.0,0.0,0.0,0.0,0.0,0.0,4.5993,4.9297,5.0215,5.1646,0.0,5.3188,5.2454,5.4656,5.4987,5.2674,4.5847,0.0,0.0,0.0,0.0,0.0,0.0,0.0,0.0,0.0,0.0,0.0,0.0,0.0,0.0,0.0,0.0,0.0,0.0,0.0,0.0,0.0,0.0,0.0,0.0,0.0,0.0,0.0,0.0,0.0,0.0,0.0,0.0,0.0,0.0,0.0,0.0,0.0,0.0,0.0,0.0,0.0,0.0,0.0,0.0,0.0,0.0,0.0,0.0,0.0,0.0,0.0,0.0,0.0,4.8122,5.1096,5.851,6.3135,6.4787,6.5154,6.5191,6.4861,6.2915,5.9024,0.0,0.0,0.0,0.0,0.0,0.0,0.0,0.0,0.0,0.0,0.0,0.0,0.0,0.0,0.0,0.0,0.0,0.0,0.0,0.0,0.0,0.0,0.0,0.0,0.0,0.0,0.0,0.0,3.4064,3.4321,3.2596,0.0,0.0,0.0,0.0,0.0,0.0,0.0,0.0,0.0,0.0,5.0178,5.2858,5.3115,0.0,0.0,5.5574,5.5611,5.7519,5.6565,5.462,5.1867,4.9077,0.0,0.0,0.0,0.0,0.0,0.0,0.0,0.0,0.0,0.0,0.0,0.0,0.0,0.0,0.0,0.0,0.0,0.0,0.0,0.0,0.0,0.0,0.0,0.0,0.0,0.0,0.0,0.0,0.0,0.0,0.0,0.0,0.0,0.0,0.0,0.0,0.0,0.0,0.0,0.0,0.0,0.0,0.0,0.0,0.0,0.0,0.0,0.0,0.0,0.0,0.0,0.0,4.9334,5.238,5.9979,6.4457,6.5632,6.5925,6.5888,6.5632,6.431,6.1153,0.0,0.0,0.0,0.0,0.0,0.0,0.0,0.0,0.0,0.0,0.0,0.0,0.0,0.0,0.0,0.0,0.0,0.0,0.0,0.0,0.0,0.0,0.0,0.0,0.0,0.0,0.0,0.0,3.7257,3.7074,3.4798,0.0,0.0,0.0,0.0,0.0,0.0,0.0,0.0,0.0,0.0,5.3335,5.5941,5.5647,5.5684,5.7299,5.6895,5.6932,5.829,5.7483,5.6345,5.539,0.0,0.0,0.0,0.0,0.0,0.0,0.0,0.0,0.0,0.0,0.0,0.0,0.0,0.0,0.0,0.0,0.0,0.0,0.0,0.0,0.0,0.0,0.0,0.0,0.0,0.0,0.0,2.7772,0.0,0.0,2.8837,0.0,0.0,0.0,0.0,0.0,0.0,0.0,0.0,0.0,0.0,0.0,0.0,0.0,0.0,0.0,0.0,0.0,0.0,0.0,0.0,0.0,0.0,5.0729,5.3261,6.1924,6.6439,6.6549,6.7247,6.7283,6.6549,6.5705,6.2622,5.6932,0.0,0.0,0.0,0.0,0.0,0.0,0.0,0.0,0.0,0.0,0.0,0.0,0.0,0.0,0.0,0.0,0.0,0.0,0.0,0.0,0.0,0.0,0.0,0.0,0.0,0.0,3.1091,3.4027,3.6376,0.0,0.0,0.0,0.0,0.0,0.0,0.0,0.0,0.0,4.7682,5.1132,5.4363,5.7519,5.7299,5.7446,5.8988,5.7299,5.6051,5.7079,5.8253,5.807,0.0,0.0,0.0,0.0,0.0,0.0,0.0,0.0,0.0,0.0,0.0,0.0,0.0,0.0,0.0,0.0,0.0,0.0,0.0,0.0,0.0,0.0,0.0,0.0,0.0,0.0,0.0,3.2938,3.2126,0.0,0.0,0.0,0.0,0.0,0.0,0.0,0.0,0.0,0.0,0.0,4.4011,4.6397,0.0,0.0,0.0,0.0,0.0,0.0,0.0,0.0,0.0,0.0,0.0,0.0,5.238,5.6492,6.3576,6.7797,6.8862,6.9155,6.9155,6.8898,6.8128,6.453,5.7813,0.0,0.0,0.0,0.0,0.0,0.0,0.0,0.0,0.0,0.0,0.0,0.0,0.0,0.0,0.0,0.0,0.0,0.0,0.0,0.0,0.0,0.0,0.0,0.0,0.0,3.7037,0.0,0.0,0.0,0.0,0.0,0.0,0.0,0.0,0.0,0.0,4.4195,4.8746,5.194,5.4693,5.7152,5.9318,6.0309,6.119,0.0,0.0,0.0,0.0,0.0,0.0,0.0,0.0,0.0,0.0,0.0,0.0,0.0,0.0,5.5464,5.0141,4.8526,4.8049,4.8306,0.0,0.0,0.0,0.0,0.0,0.0,0.0,0.0,0.0,0.0,0.0,0.0,0.0,0.0,3.8371,3.7535,3.774,0.0,0.0,0.0,0.0,0.0,0.0,0.0,0.0,4.6875,4.8489,4.8563,5.0692,5.0986,4.9738,4.9114,4.6838,0.0,0.0,0.0,0.0,0.0,0.0,0.0,0.0,5.4583,5.9685,6.5521,6.9045,7.0036,7.011,7.011,7.0073,6.9339,6.6549,6.152,5.8951,5.5427,0.0,0.0,0.0,0.0,0.0,0.0,0.0,0.0,0.0,0.0,0.0,0.0,0.0,0.0,0.0,0.0,0.0,0.0,0.0,0.0,0.0,0.0,0.0,3.9276,0.0,0.0,0.0,0.0,0.0,0.0,0.0,0.0,0.0,4.3754,4.8526,5.3041,5.5721,5.8143,6.0162,6.1484,0.0,0.0,0.0,0.0,0.0,0.0,0.0,6.3246,6.5375,6.2254,5.9501,5.9648,6.1263,6.2218,6.1117,0.0,0.0,5.6235,5.4509,5.4252,5.4509,5.5647,5.6492,5.6235,5.7703,5.8951,0.0,0.0,0.0,0.0,0.0,0.0,0.0,0.0,4.4777,4.4839,0.0,4.4641,0.0,0.0,0.0,0.0,4.3814,4.6411,0.0,0.0,5.4223,5.5662,5.5698,5.5698,5.6132,5.683,5.5244,5.4142,5.323,4.9517,0.0,0.0,0.0,0.0,0.0,0.0,5.7373,6.2915,6.7687,7.0146,7.022,7.0183,7.0183,7.0183,6.9449,6.8605,6.7577,6.2475,5.8731,5.6859,4.8675,0.0,0.0,0.0,0.0,0.0,0.0,0.0,0.0,0.0,0.0,0.0,0.0,0.0,0.0,0.0,0.0,0.0,0.0,0.0,0.0,3.8588,0.0,0.0,0.0,0.0,0.0,0.0,0.0,0.0,0.0,5.2055,4.9114,5.2197,5.5757,5.8804,0.0,0.0,0.0,0.0,6.4861,6.6402,6.4677,6.3539,6.4383,6.5632,6.6512,6.6733,0.0,0.0,6.3759,6.6292,6.7797,6.4897,6.7357,6.8605,6.3833,6.1667,6.097,6.163,6.2401,6.3246,6.4127,6.5521,6.7393,5.0456,0.0,0.0,0.0,0.0,4.8314,4.9694,5.1534,5.1398,5.0833,5.0062,5.0274,0.0,0.0,0.0,0.0,0.0,0.0,5.1528,5.3773,5.5717,5.76,5.9253,5.8862,5.9139,5.9918,5.9071,5.9034,5.9733,5.9403,5.3959,4.3938,0.0,0.0,0.0,0.0,6.1741,6.6182,6.9376,7.1248,7.1798,7.1835,7.1798,7.1835,7.1615,7.0844,6.9449,6.7283,6.4053,5.9538,5.546,0.0,0.0,0.0,0.0,0.0,0.0,0.0,0.0,0.0,0.0,0.0,0.0,0.0,0.0,0.0,0.0,0.0,0.0,0.0,3.7839,4.2272,4.4764,0.0,0.0,0.0,0.0,0.0,0.0,0.0,0.0,0.0,5.6022,5.807,5.9648,0.0,0.0,6.4494,6.4127,6.6549,6.8531,6.8972,6.9449,0.0,7.0036,6.8531,6.8128,7.0403,7.0697,7.022,6.9082,6.9376,6.9449,6.8495,6.9302,6.9596,6.8421,6.7687,6.7357,6.7614,6.7871,6.8054,6.8348,6.8972,6.9449,5.7734,5.4746,5.3315,5.3107,5.3738,5.405,5.5399,5.7328,5.6802,5.6297,5.5848,5.5861,5.4297,5.1588,5.0933,0.0,0.0,0.0,5.5777,5.8304,5.9171,6.0471,6.2102,6.1883,6.2216,6.2925,6.1997,6.2544,6.4345,6.4726,6.0802,5.3043,0.0,5.6271,5.6418,6.0786,6.5081,6.8972,7.0881,7.2018,7.2496,7.2532,7.2532,7.2532,7.2532,7.1872,7.0624,6.9486,6.7173,6.3429,6.0108,5.7037,0.0,0.0,0.0,0.0,0.0,0.0,0.0,0.0,0.0,0.0,0.0,3.8882,3.6006,0.0,0.0,0.0,4.3817,4.3841,4.5359,4.8515,0.0,0.0,0.0,0.0,0.0,0.0,0.0,5.5025,5.8231,6.0906,6.266,6.3849,6.409,6.2989,6.5081,6.6659,6.6476,0.0,7.0697,7.0991,7.1872,7.2532,7.2496,7.0881,7.0293,7.2165,7.2129,7.1798,7.1762,7.1358,7.1064,7.1064,7.1027,7.1064,7.1064,7.1027,7.0917,7.066,7.0844,7.1027,7.1027,7.1064,7.1064,6.3707,6.3322,5.9187,5.7911,5.8731,5.9484,6.0248,6.0973,6.0981,6.0981,6.1012,6.1089,5.9835,5.762,5.6113,0.0,5.9983,5.9671,6.1229,6.4245,6.393,6.4249,6.4969,6.497,6.5312,6.6031,6.4518,6.5083,6.7464,6.6896,6.6269,6.5603,6.4335,6.3542,6.3321,6.4963,6.772,7.1377,7.2092,7.2532,7.2606,7.2679,7.2679,7.2716,7.2679,7.2349,7.1505,7.0055,6.8843,6.7814,6.3297,6.0151,5.8798,0.0,0.0,0.0,0.0,0.0,0.0,0.0,0.0,0.0,0.0,0.0,0.0,0.0,0.0,4.922,5.3339,0.0,5.662,5.5724,0.0,0.0,0.0,5.0962,5.2265,5.5632,5.8722,6.1186,0.0,0.0,6.8502,6.8948,6.864,6.7169,6.8218,6.9302,6.9926,7.0807,7.1762,7.2459,7.2642,7.2716,7.2863,7.2642,7.2606,7.2826,7.2716,7.2753,7.2753,7.2716,7.2679,7.2679,7.2716,7.2716,7.2679,7.2716,7.2496,7.1908,7.2092,7.2459,7.2386,7.2459,7.2569,6.7218,6.7102,6.5999,6.4257,6.2145,6.2298,6.254,6.2704,6.2704,6.2704,6.2743,6.3411,6.3718,6.3782,6.3374,6.3617,6.4411,6.5601,6.6535,6.7379,6.8551,6.9174,6.9336,6.9017,6.8925,6.9078,6.8337,6.883,7.0383,7.0451,7.0904,7.1674,7.1643,6.9992,6.7142,6.9351,7.1329,7.2875,7.2632,7.2826,7.3413,7.4001,7.4368,7.4331,7.4331,7.3964,7.3156,7.261,7.1479,6.9577,6.8016,6.6706,6.5614,5.7901,0.0,0.0,0.0,0.0,0.0,0.0,0.0,0.0,0.0,4.7818,4.1865,0.0,4.9046,0.0,5.8918,5.9524,5.5145,5.6894,0.0,0.0,5.7328,5.7919,6.3047,6.3137,6.3951,6.7014,6.8593,6.9637,7.0056,7.0864,7.1292,7.092,7.077,7.0367,6.9486,7.1505,7.3193,7.3413,7.3927,7.4331,7.4331,7.4331,7.4331,7.4331,7.4331,7.4331,7.4368,7.4368,7.4368,7.4331,7.4331,7.4331,7.4331,7.4331,7.4515,7.4735,7.3707,7.2532,7.2532,7.301,7.3597,6.8398,6.8398,6.8398,6.7295,6.5589,6.5577,6.5564,6.5551,6.5576,6.5576,6.5628,6.6064,6.6564,6.7025,6.7434,6.7599,6.7675,6.8948,6.9744,7.0129,7.1052,7.1668,7.2052,7.1773,7.1681,7.1643,7.1379,7.1658,7.2532,7.3041,7.384,7.5014,7.555,7.479,7.2881,7.3124,7.3317,7.3341,7.3462,7.3817,7.4221,7.4661,7.4404,7.3377,7.4368,7.4184,7.2679,7.3437,7.2718,7.0043,6.9402,6.8564,6.7238,6.2124,5.9562,0.0,0.0,0.0,0.0,0.0,0.0,0.0,0.0,0.0,0.0,0.0,5.4241,5.678,6.2204,6.3693,5.9152,6.1939,6.4243,6.4705,6.4039,6.5043,6.8701,6.8394,6.8798,7.0972,7.1673,7.2167,7.2547,7.3226,7.3691,7.3691,7.3691,7.3082,7.1581,7.2936,7.4368,7.4735,7.5175,7.5616,7.5909,7.5983,7.5983,7.5983,7.5983,7.5983,7.5983,7.5983,7.5983,7.5983,7.5983,7.5983,7.5983,7.5983,7.613,7.6313,7.5579,7.4735,7.4661,7.4992,7.5469,6.9036,6.9075,6.9075,6.9075,6.9075,6.9064,6.8898,6.859,6.8681,6.8796,6.8898,6.8924,6.8936,6.9113,6.9854,7.0172,7.0249,7.1025,7.1783,7.2514,7.2629,7.3129,7.3976,7.4014,7.4053,7.413,7.413,7.4259,7.4511,7.5198,7.5924,7.6688,7.7451,7.8007,7.8223,7.6241,7.4711,7.3777,7.4645,7.5138,7.5138,7.5211,7.429,7.2337,7.429,7.4401,7.2355,7.4085,7.3665,7.0571,7.0081,6.9093,6.7354,6.6528,6.4974,0.0,6.1089,0.0,0.0,0.0,0.0,0.0,0.0,0.0,0.0,6.0165,6.0165,5.828,6.4589,6.7821,6.5628,6.8205,7.0014,7.0052,7.086,7.1398,7.1437,7.2101,7.288,7.3745,7.403,7.4519,7.5201,7.5585,7.5745,7.5782,7.63,7.6054,7.4737,7.4859,7.5522,7.6213,7.6594,7.7304,7.7928,7.8038,7.8038,7.8002,7.8075,7.7928,7.8038,7.8038,7.8002,7.8002,7.8075,7.8038,7.7965,7.8002,7.8038,7.8295,7.8259,7.7928,7.7268,7.7231,7.7524,7.2531,7.2569,7.2569,7.2542,7.2524,7.2552,7.136,6.9513,7.0129,7.0848,7.1464,7.1467,7.1852,7.2531,7.2706,7.2765,7.2813,7.364,7.4091,7.4245,7.4976,7.5745,7.6553,7.6592,7.6938,7.7515,7.7553,7.76,7.7623,7.7808,7.7962,7.8084,7.8269,7.807,7.7562,0.0,0.0,0.0,7.6282,7.6338,7.6375,7.7013,7.7126,7.6675,7.7813,0.0,7.6846,7.7614,7.6979,7.4664,7.5239,0.0,0.0,0.0,0.0,0.0,0.0,0.0,0.0,0.0,0.0,0.0,6.4666,6.3858,6.2627,6.6282,6.7475,6.4666,6.8013,7.0244,6.9783,7.0898,7.1706,7.1783,7.3091,7.3976,7.3986,7.4319,7.4796,7.5417,7.5753,7.615,7.676,7.7103,7.7265,7.7302,7.7586,7.7721,7.7527,7.7068,7.7013,7.7793,7.9104,8.0314,8.1158,8.1195,8.1085,8.1269,8.1269,8.1232,8.1195,8.1195,8.1232,8.1232,8.1269,8.1232,8.1232,8.1269,8.1379,8.2113,8.2186,8.1269,7.8075,7.7928,7.8516,7.4735,7.4735,7.4735,7.4745,0.0,7.5178,7.4668,7.3399,7.2552,7.2409,7.286,7.2866,7.3328,7.412,7.4091,7.4562,7.5379,7.5793,7.6207,7.6592,7.7015,7.7476,7.79,7.79,7.8092,7.8477,7.8477,7.8477,7.8515,7.8938,7.9131,7.9131,7.9554,7.9592,7.9246,8.0098,7.9934,7.864,7.8602,7.8745,7.916,7.9538,7.9244,7.8112,7.9584,0.0,0.0,0.0,0.0,0.0,0.0,0.0,0.0,7.1094,0.0,6.9552,6.7167,6.5936,6.6359,6.6397,6.7898,7.1168,7.1475,7.0591,6.8475,7.0321,7.1014,6.9821,7.1245,7.2168,7.2206,7.2937,7.3437,7.3514,7.4938,7.5976,7.6024,7.6447,7.6875,7.7147,7.7368,7.7566,7.7831,7.8398,7.8693,7.8773,7.9246,7.9946,8.058,7.9717,7.9317,8.0622,8.1881,8.2884,8.3287,8.3398,8.3398,8.3398,8.3398,8.3398,8.3398,8.3398,8.3398,8.3398,8.3398,8.3398,8.3398,8.3398,8.3508,8.3875,8.3985,8.3471,8.1269,8.1269,8.1672,7.6476,7.6438,7.6476,7.6447,7.6494,7.7186,7.7523,7.7361,7.5284,0.0,0.0,7.435,7.4735,7.537,7.537,7.6178,7.7485,7.7515,7.7861,7.8477,7.8477,7.8592,7.8707,7.8861,7.9015,7.9169,7.9323,7.94,7.9438,8.0131,8.0477,8.0554,8.1208,8.1554,8.1593,8.2208,8.2141,8.1306,8.0959,8.1148,8.1793,8.1831,8.0889,7.8883,8.0927,8.1116,7.9187,8.081,8.0506,7.7757,7.6754,7.5822,7.4899,7.4014,7.4014,7.5053,7.5014,7.5014,7.513,7.5168,7.5515,7.6361,7.6438,7.5745,7.4091,7.3283,7.3245,7.4091,7.4168,7.4245,7.4399,7.4976,7.5361,7.5399,7.663,7.7476,7.7515,7.8054,7.84,7.8515,7.8592,7.8784,7.9015,7.9746,8.0323,8.053,8.1183,8.2302,8.3481,8.274,8.2312,8.3655,8.4495,8.4985,8.5206,8.508,8.5013,8.5013,8.5013,8.5049,8.5049,8.5013,8.5013,8.5013,8.5013,8.5013,8.5049,8.5049,8.5013,8.5013,8.5013,8.5013,8.5013,8.5013,8.4829,7.8146,7.8185,7.8185,7.8185,7.8154,7.83,7.8331,7.8284,7.7929,7.7805,7.7805,7.7805,7.7843,7.7959,7.7985,7.807,7.8323,7.8323,7.84,7.8477,7.8477,7.89,7.9631,8.04,8.1093,8.1785,8.2477,8.2862,8.2901,8.2978,8.3054,8.3054,8.3208,8.3208,8.3247,8.3362,8.3682,8.4234,8.2813,8.2122,8.2237,8.2203,8.2084,8.1776,8.2775,8.3197,8.2851,8.3149,8.3105,8.2573,8.2446,8.1631,8.0131,7.9131,7.8207,7.7015,7.6245,7.613,7.6861,7.6938,7.7284,7.8054,7.813,7.7438,7.5822,7.5553,7.5822,7.6669,7.6669,7.7053,7.7669,7.7784,7.7784,7.7861,7.813,7.8323,7.8361,7.8515,7.8707,7.8746,7.9169,7.9977,8.0669,8.1439,8.2208,8.2862,8.3303,8.4007,8.5397,8.5761,8.5743,8.6139,8.6423,8.6855,8.7179,8.7025,8.666,8.6664,8.6628,8.6591,8.6664,8.6664,8.6664,8.6701,8.6664,8.6664,8.6664,8.6664,8.6701,8.6664,8.6664,8.6664,8.6664,8.6664,8.6261,7.9908,7.9984,8.0369,8.0561,8.0568,8.1061,8.1253,8.1246,8.127,8.0192,7.8545,7.8477,7.8746,7.9131,7.8685,7.9261,8.0554,8.0092,8.04,8.1246,8.1285,8.1477,8.1862,8.2285,8.267,8.3016,8.3401,8.3593,8.3593,8.3593,8.3593,8.3593,8.3593,8.3824,8.4286,8.4324,8.4709,8.5517,8.4324,8.3939,8.4362,8.4362,8.4362,8.4362,8.4786,8.4939,8.4939,8.4516,8.4324,8.4324,8.3824,8.3247,8.2516,8.2054,8.1323,8.0092,7.9246,7.8746,7.8631,7.8207,7.8092,7.8477,7.8477,7.8169,7.7438,7.7361,7.7515,7.79,7.7938,7.8092,7.8438,7.8477,7.8477,7.8477,7.89,7.94,7.9862,8.0323,8.0746,8.117,8.1593,8.2016,8.2401,8.3208,8.3824,8.4362,8.5324,8.6691,8.761,8.8458,8.8596,8.7727,8.786,8.8072,8.8211,8.7894,8.7839,8.8206,8.7949,8.7876,8.8169,8.8316,8.828,8.8316,8.8316,8.8316,8.828,8.8316,8.8316,8.8316,8.8316,8.8316,8.8316,8.8316,8.7729,8.1631,8.1739,8.2317,8.2593,8.2638,8.3324,8.3593,8.3593,8.3548,8.2124,7.9862,7.9638,8.0023,8.0523,7.9946,8.0754,8.233,8.1939,8.2324,8.3516,8.3593,8.3593,8.3632,8.3785,8.3901,8.3939,8.4055,8.417,8.417,8.417,8.417,8.4132,8.417,8.4593,8.544,8.544,8.5863,8.6594,8.6094,8.5978,8.6363,8.6594,8.6709,8.6671,8.6709,8.6709,8.6632,8.6094,8.5747,8.5709,8.4939,8.4362,8.417,8.3978,8.3516,8.267,8.2016,8.1362,8.0708,8.0015,7.9631,7.9631,7.9631,7.9631,7.9631,7.9631,7.9361,7.8938,7.8977,7.9169,7.9477,7.9669,7.9631,7.9669,8.0246,8.0977,8.1593,8.2208,8.2824,8.3478,8.3593,8.3632,8.417,8.4901,8.5747,8.6632,8.8209,8.953,8.984,9.0915,9.0899,8.9815,8.9419,8.9336,8.8797,8.8603,8.872,8.9344,8.8904,8.8793,8.916,8.9344,8.9381,8.9271,8.9344,8.9271,8.9344,8.9344,8.9307,8.9234,8.9197,8.9378,8.9509,8.9799,8.9371,8.3349,8.3349,8.3426,8.3478,8.3528,8.3632,8.367,8.3632,8.3593,8.3478,8.3093,8.3125,8.3118,8.3233,8.3054,8.317,8.3478,8.3401,8.3478,8.3632,8.3593,8.3593,8.3747,8.4439,8.4786,8.4863,8.5478,8.5786,8.5786,8.5863,8.5863,8.5863,8.5863,8.6286,8.7055,8.7132,8.7555,8.8402,8.8363,8.7979,8.7363,8.8055,8.844,8.844,8.844,8.844,8.8325,8.8402,8.8325,8.8286,8.744,8.6671,8.594,8.5209,8.4401,8.3593,8.3401,8.3324,8.3208,8.317,8.2978,8.3131,8.2939,8.2939,8.2939,8.3016,8.2093,8.0477,8.0439,8.1131,8.1862,8.2516,8.2747,8.2631,8.2901,8.3285,8.3362,8.3439,8.3516,8.3555,8.4093,8.417,8.5863,8.6863,8.8171,8.9979,9.1056,9.1828,9.1948,9.2561,9.3025,9.2086,9.1206,9.0437,9.023,8.9683,8.9592,8.9562,8.9417,8.9454,8.9601,8.9638,8.9454,8.9858,8.9601,8.9674,8.9601,8.9417,8.9528,8.9748,8.9745,8.9665,9.0258,9.0934,9.0749,8.3593,8.367,8.417,8.4632,8.506,8.5093,8.5055,8.5055,8.5055,8.5363,8.5819,8.5857,8.5049,8.3632,8.3599,8.3868,8.433,8.4362,8.4632,8.5055,8.5055,8.5055,8.5132,8.5401,8.5632,8.567,8.6478,8.6863,8.6978,8.7363,8.7632,8.7632,8.7632,8.7825,8.8132,8.8171,8.8325,8.8671,8.9171,8.9248,8.8902,8.8748,8.8671,8.8671,8.8671,8.8671,8.8671,8.8671,8.8671,8.8671,8.8363,8.8017,8.7671,8.7325,8.6748,8.5901,8.4901,8.4132,8.3632,8.3593,8.3593,8.3593,8.3593,8.3593,8.3593,8.3593,8.3093,8.2362,8.2401,8.2747,8.3054,8.3401,8.3593,8.3593,8.3593,8.3978,8.4978,8.5093,8.5555,8.6978,8.7325,8.7709,8.8902,8.9863,9.1018,9.2402,9.3056,9.3249,9.3249,9.3518,9.3563,9.3415,9.2822,9.2317,9.1865,9.1199,9.1009,9.1142,9.0725,9.0188,9.0665,9.0812,9.0849,9.0776,9.0702,9.0702,9.0922,9.0812,9.0812,9.0739,9.0847,9.1024,9.1854,9.2205,9.2178,8.4297,8.4412,8.5214,8.606,8.6786,8.6824,8.6824,8.6824,8.6786,8.7166,8.7704,8.7748,8.6752,8.5142,8.4758,8.5022,8.5522,8.5593,8.6017,8.6748,8.6824,8.6824,8.6824,8.6824,8.6824,8.6901,8.744,8.7748,8.7825,8.8363,8.8671,8.8671,8.8671,8.8786,8.9017,8.9017,8.9133,8.944,8.9979,9.0248,9.0171,8.9671,8.9402,8.9402,8.9402,8.9402,8.9363,8.9402,8.9363,8.9363,8.9171,8.9017,8.9017,8.8825,8.8402,8.7748,8.6632,8.567,8.5016,8.4978,8.4978,8.5016,8.4978,8.4978,8.4978,8.4978,8.4978,8.5016,8.517,8.517,8.4016,8.4362,8.4632,8.467,8.4978,8.5863,8.6978,8.7286,8.8248,8.994,8.994,9.071,9.171,9.2556,9.3403,9.421,9.4441,9.4403,9.4403,9.448,9.4523,9.4543,9.4534,9.4143,9.3373,9.2767,9.2727,9.2551,9.1875,9.1425,9.1838,9.1767,9.1767,9.1326,9.1657,9.173,9.1473,9.162,9.1803,9.1839,9.1946,9.2362,9.304,9.341,9.3897,8.6017,8.6132,8.6945,8.7714,8.8556,8.8517,8.8517,8.8402,8.8474,8.8584,8.8623,8.8637,8.8563,8.8294,8.7478,8.7209,8.7252,8.7248,8.7632,8.8363,8.844,8.8517,8.8594,8.8594,8.8517,8.8363,8.8517,8.8671,8.8671,8.8748,8.8671,8.8748,8.8825,8.9133,8.9748,8.9863,9.0248,9.0864,9.1095,9.1171,9.1171,9.1095,9.1095,9.1018,9.1056,9.0979,9.1018,9.1056,9.1018,9.1056,9.0287,8.9863,8.9787,8.9133,8.8709,8.8632,8.8517,8.8402,8.8286,8.8171,8.8209,8.8325,8.8171,8.8363,8.8209,8.8209,8.8209,8.8402,8.8825,8.8132,8.5863,8.6517,8.7209,8.7325,8.8594,8.9363,8.9671,9.021,9.0864,9.1248,9.1479,9.2133,9.3441,9.4364,9.5095,9.5749,9.6095,9.6019,9.5903,9.6019,9.5981,9.5982,9.5906,9.5665,9.4438,9.3671,9.346,9.3189,9.2811,9.2529,9.2122,9.1803,9.184,9.1913,9.2134,9.2134,9.1913,9.1877,9.1987,9.2204,9.269,9.3173,9.3889,9.4642,9.521,8.7743,8.7781,8.8098,8.841,8.8675,8.8709,8.8671,8.8671,8.8705,8.8974,8.9398,8.9444,8.9448,8.9448,8.9137,8.8748,8.8286,8.8248,8.8402,8.8671,8.8671,8.8671,8.8671,8.8671,8.8671,8.8748,8.921,8.9787,9.0287,9.0287,9.0325,9.0287,9.0287,9.0479,9.071,9.071,9.0902,9.1248,9.171,9.2018,9.2133,9.2518,9.2556,9.2018,9.1479,9.121,9.121,9.121,9.121,9.121,9.0902,9.0748,9.0671,8.994,8.9479,8.944,8.8979,8.8671,8.8671,8.8671,8.894,8.9402,8.9479,8.9748,9.0171,9.0287,9.0287,9.0364,9.0517,8.9979,8.9479,8.9517,8.9825,8.994,9.0364,9.1018,9.1441,9.1864,9.2441,9.3403,9.4095,9.4749,9.5057,9.5634,9.5942,9.6211,9.6288,9.6288,9.6288,9.6288,9.6288,9.6288,9.6326,9.6328,9.6427,9.4844,9.3935,9.347,9.3114,9.2806,9.2427,9.2574,9.2684,9.3088,9.3125,9.3162,9.3161,9.2903,9.294,9.3376,9.3887,9.4317,9.4726,9.5577,9.6298,8.8859,8.909,8.9098,8.9255,8.9486,8.9517,8.9517,8.9517,8.9479,8.9787,9.0283,9.0325,9.0329,9.029,9.0329,9.0059,8.9479,8.9248,8.921,8.9479,8.9517,8.9517,8.9517,8.9479,8.9479,8.9594,9.0017,9.0864,9.1902,9.2018,9.2326,9.2864,9.2864,9.2864,9.2864,9.2864,9.2864,9.2979,9.3441,9.3749,9.3787,9.4249,9.4134,9.3364,9.271,9.1979,9.1287,9.121,9.121,9.121,9.121,9.121,9.1133,9.0671,9.0325,9.0248,8.9825,8.9479,8.9556,8.9748,9.0171,9.071,9.1018,9.1402,9.1941,9.2018,9.2018,9.2056,9.2326,9.2441,9.2479,9.2672,9.2518,9.1979,9.2095,9.2633,9.321,9.3595,9.4249,9.5134,9.5749,9.6172,9.6288,9.6249,9.6288,9.6288,9.6288,9.6288,9.6288,9.6288,9.6442,9.6634,9.6749,9.7134,9.7324,9.6485,9.5469,9.4932,9.4223,9.3647,9.338,9.3565,9.3786,9.419,9.4448,9.4485,9.441,9.4114,9.4401,9.4906,9.5445,9.5907,9.6312,9.6696,9.735,8.9217,8.9867,8.9906,9.0329,9.0941,9.0979,9.1095,9.1018,9.1018,9.0979,9.1018,9.1133,9.1056,9.1133,9.1056,9.1133,9.0979,9.0364,9.0364,9.0941,9.0979,9.1018,9.0979,9.0941,9.1018,9.1095,9.121,9.2095,9.3518,9.371,9.4441,9.5826,9.5826,9.5634,9.6134,9.5788,9.598,9.5903,9.5942,9.6134,9.6326,9.6249,9.5903,9.5095,9.4941,9.3864,9.1595,9.1402,9.1441,9.1364,9.1287,9.1248,9.121,9.1095,9.1133,9.1095,9.1095,9.1133,9.1171,9.171,9.1941,9.2287,9.3018,9.321,9.3287,9.3518,9.3595,9.3672,9.4287,9.4826,9.4903,9.5365,9.498,9.3172,9.3903,9.4711,9.5018,9.5672,9.6249,9.6211,9.6288,9.6288,9.6288,9.6288,9.6326,9.6442,9.6442,9.6557,9.6673,9.6711,9.6826,9.7288,9.7557,9.7865,9.8093,9.8189,9.7437,9.6684,9.5765,9.5082,9.4933,9.5017,9.5235,9.5573,9.5791,9.5823,9.605,9.5884,9.5993,9.6417,9.6999,9.7338,9.7572,9.7891,9.8396,9.0559,9.0752,9.079,9.0941,9.1171,9.121,9.121,9.121,9.121,9.121,9.121,9.121,9.121,9.121,9.121,9.1556,9.2021,9.1787,9.1518,9.1287,9.1248,9.1248,9.1248,9.121,9.1518,9.2098,9.2672,9.348,9.4557,9.5211,9.5826,9.6211,9.6365,9.6288,9.6442,9.6288,9.6288,9.6365,9.6865,9.7134,9.7173,9.7711,9.7596,9.6826,9.6711,9.6019,9.4788,9.3557,9.2941,9.2903,9.2402,9.1825,9.1364,9.121,9.121,9.121,9.121,9.121,9.121,9.1518,9.2056,9.2441,9.2826,9.3133,9.371,9.4326,9.4634,9.4711,9.5365,9.5903,9.5942,9.6095,9.5903,9.5211,9.5595,9.5903,9.598,9.6172,9.6249,9.6288,9.6288,9.6288,9.6326,9.6365,9.6634,9.7057,9.7134,9.7288,9.7788,9.7827,9.8057,9.8365,9.8481,9.8711,9.9133,9.9274,9.8838,9.811,9.7272,9.6605,9.6415,9.6397,9.6649,9.6863,9.705,9.7279,9.7515,9.7643,9.7629,9.7894,9.8376,9.8552,9.863,9.8987,9.9479,9.121,9.121,9.121,9.1402,9.1672,9.171,9.1864,9.2095,9.213,9.2133,9.2133,9.2168,9.213,9.213,9.2133,9.2441,9.2941,9.2941,9.2672,9.2172,9.2133,9.2133,9.2133,9.2133,9.2595,9.3366,9.3941,9.4941,9.6403,9.698,9.7557,9.8057,9.8173,9.8211,9.8173,9.8173,9.8173,9.825,9.8711,9.8904,9.9019,9.9442,9.9327,9.8596,9.8442,9.8057,9.7211,9.6134,9.5134,9.4249,9.3364,9.2672,9.2172,9.2172,9.2133,9.2133,9.2133,9.2172,9.2172,9.2941,9.3287,9.3864,9.448,9.5057,9.5595,9.6172,9.6365,9.6519,9.6596,9.6903,9.7134,9.6903,9.6903,9.7211,9.6903,9.6903,9.7096,9.7211,9.725,9.7326,9.7288,9.725,9.7211,9.725,9.7403,9.7904,9.798,9.8057,9.8634,9.8711,9.8904,9.9135,9.9288,9.9712,10.0327,10.032,10.0103,9.946,9.878,9.8215,9.7824,9.79,9.8012,9.8125,9.8275,9.8534,9.8743,9.887,9.8917,9.9366,9.9689,9.9931,9.9999,10.0122,10.0519,9.1287,9.1364,9.1364,9.1902,9.2518,9.2556,9.2903,9.3518,9.3592,9.3515,9.3554,9.3438,9.3515,9.3592,9.3403,9.3557,9.3787,9.3787,9.398,9.398,9.4018,9.3941,9.3672,9.3633,9.4172,9.502,9.5326,9.6557,9.8481,9.8827,9.9712,10.075,10.0789,10.1173,10.0789,10.1173,10.0904,10.0789,10.1019,10.1019,10.1058,10.1173,10.0866,10.0096,10.0019,9.9712,9.9019,9.8596,9.7442,9.5365,9.4326,9.3903,9.3787,9.3787,9.3864,9.3864,9.3826,9.3826,9.4172,9.4941,9.5826,9.5942,9.7019,9.8634,9.7942,9.7865,9.7942,9.7942,9.775,9.7827,9.8211,9.798,9.798,9.8557,9.8057,9.7942,9.8596,9.8673,9.8481,9.8557,9.875,9.875,9.8519,9.8557,9.8673,9.8827,9.8865,9.8981,9.9173,9.9442,9.9481,9.9712,10.0096,10.0366,10.0904,10.0903,10.0659,10.0415,9.9908,9.9618,9.9259,9.9243,9.9373,9.9379,9.9401,9.9653,9.9911,9.9907,10.0183,10.0486,10.0854,10.1211,10.1212,10.1096,10.1019,9.2518,9.3059,9.3054,9.3169,9.3366,9.3366,9.3518,9.371,9.371,9.3823,9.371,9.3674,9.3789,9.371,9.3751,9.4059,9.452,9.4672,9.5441,9.6365,9.648,9.5749,9.4866,9.4711,9.548,9.675,9.7442,9.8481,9.9712,10.025,10.0789,10.125,10.1289,10.1289,10.1289,10.1289,10.1289,10.1289,10.1289,10.1289,10.1289,10.1289,10.1212,10.1058,10.0943,10.0827,10.0558,10.0058,9.8557,9.6211,9.5788,9.5288,9.4864,9.5288,9.5595,9.5595,9.5634,9.5634,9.5711,9.6095,9.6326,9.6288,9.7057,9.6942,9.698,9.7519,9.748,9.7326,9.7673,9.825,9.8057,9.8288,9.8865,9.9481,9.9019,9.8634,9.8827,9.8788,9.8788,9.8788,9.8865,9.8904,9.8942,9.8981,9.9173,9.9596,9.9788,9.9904,10.0135,10.0366,10.0442,10.0712,10.0981,10.1058,10.1212,10.125,10.1211,10.1133,10.0896,10.0774,10.0607,10.0563,10.0684,10.0804,10.0421,10.055,10.076,10.0893,10.125,10.1289,10.1289,10.1289,10.1289,10.1212,10.1212,9.329,9.3714,9.371,9.3903,9.4249,9.4287,9.4441,9.4749,9.4788,9.4788,9.4788,9.4789,9.4789,9.4751,9.4828,9.5058,9.5481,9.5557,9.6095,9.6826,9.725,9.7096,9.6673,9.6634,9.7326,9.8481,9.9135,9.975,10.0519,10.1096,10.1289,10.1289,10.1289,10.1289,10.1289,10.1289,10.1289,10.1289,10.1289,10.1289,10.1289,10.1289,10.1289,10.1289,10.1289,10.1289,10.1173,10.0519,9.9327,9.8096,9.7557,9.7096,9.6711,9.7057,9.7326,9.7365,9.7365,9.7326,9.7442,9.7634,9.7711,9.7557,9.7596,9.7634,9.7596,9.7788,9.775,9.7673,9.8019,9.8288,9.875,9.9365,10.0019,10.0442,10.0173,9.9827,9.9827,9.9904,9.9865,9.9865,9.9865,9.9827,9.9827,9.9827,10.0096,10.0442,10.0596,10.0827,10.1096,10.125,10.1289,10.1289,10.1289,10.1289,10.125,10.1289,10.1289,10.1289,10.1289,10.1289,10.1289,10.1289,10.125,10.121,10.125,10.1289,10.1289,10.1289,10.1289,10.1289,10.1289,10.1289,10.1289,10.1289,10.1289,9.3868,9.3983,9.3983,9.4443,9.5095,9.5134,9.548,9.6134,9.6134,9.6134,9.6134,9.6249,9.6057,9.6326,9.6172,9.6403,9.6442,9.6596,9.6788,9.7288,9.7865,9.8404,9.8904,9.8673,9.9173,9.9942,10.0212,10.0596,10.1058,10.125,10.1289,10.1289,10.1289,10.1289,10.1289,10.1289,10.1289,10.1289,10.1289,10.1289,10.1289,10.1289,10.1289,10.1289,10.1289,10.1289,10.1135,10.0673,10.0135,10.0173,9.9404,9.8865,9.8827,9.8904,9.9058,9.9058,9.9058,9.9058,9.9135,9.9635,9.9827,9.9288,9.9712,9.9904,9.925,9.9173,9.9096,9.8788,9.8288,9.8981,9.9865,10.0827,10.1058,10.1135,10.1173,10.125,10.1289,10.1289,10.1289,10.1289,10.125,10.1289,10.1289,10.1289,10.125,10.0866,10.1019,10.1135,10.125,10.1289,10.1289,10.1289,10.1289,10.1289,10.1289,10.1289,10.1289,10.1289,10.1289,10.1289,10.1289,10.1289,10.1289,10.1289,10.1289,10.1289,10.1289,10.1289,10.1289,10.1289,10.1289,10.1289,10.1289,10.1289,10.1289,9.5135,9.5712,9.5712,9.5865,9.6019,9.6019,9.6134,9.6288,9.6288,9.6326,9.6326,9.6326,9.6365,9.6403,9.7019,9.725,9.7326,9.7865,9.8596,9.9365,10.0096,10.0519,10.0558,10.0096,10.0289,10.0827,10.1019,10.1135,10.1289,10.1289,10.1289,10.1289,10.1289,10.1289,10.1289,10.1289,10.1289,10.1289,10.1289,10.1289,10.1289,10.1289,10.1289,10.1289,10.1289,10.1289,10.1289,10.1135,10.1058,10.0827,10.0289,9.9788,9.9904,10.0327,10.0558,10.0558,10.0635,10.0673,10.0789,10.0789,10.0943,10.0635,10.0635,10.0981,10.0827,10.0558,10.0327,10.0096,10.0212,10.0289,10.0789,10.1135,10.1289,10.1289,10.1289,10.1289,10.1289,10.1289,10.1289,10.1289,10.1289,10.1289,10.1289,10.1289,10.1289,10.1289,10.1289,10.1289,10.1289,10.1289,10.1289,10.1289,10.1289,10.1289,10.1289,10.1289,10.1289,10.1289,10.1289,10.1289,10.1289,10.1289,10.1289,10.1289,10.1289,10.1289,10.1289,10.1289,10.1289,10.1289,10.1289,10.1289,10.1289,10.1289,10.1289,9.5903,9.6288,9.6288,9.6288,9.6288,9.6288,9.6288,9.6288,9.6288,9.6519,9.6826,9.6826,9.7096,9.748,9.7904,9.8096,9.8173,9.8557,9.9019,9.9558,10.025,10.0673,10.0827,10.075,10.0943,10.1289,10.1289,10.1289,10.1289,10.1289,10.1289,10.1289,10.1289,10.1289,10.1289,10.1289,10.1289,10.1289,10.1289,10.1289,10.1289,10.1289,10.1289,10.1289,10.1289,10.1289,10.1289,10.1289,10.1289,10.1212,10.0904,10.0635,10.0673,10.1019,10.125,10.1289,10.1289,10.1289,10.1289,10.1289,10.1096,10.0789,10.075,10.0442,10.025,10.0135,9.9981,9.9673,9.9827,10.0212,10.0712,10.1173,10.125,10.1289,10.1289,10.1289,10.1289,10.1289,10.1289,10.1289,10.1289,10.1289,10.1289,10.1289,10.1289,10.1289,10.1289,10.1289,10.1289,10.1289,10.1289,10.1289,10.1289,10.1289,10.1289,10.1289,10.1289,10.1289,10.1289,10.1289,10.1289,10.1289,10.1289,10.1289,10.1289,10.1289,10.1289,10.1289,10.1289,10.1289,10.1289,10.1289,10.1289,10.1289,10.1289,9.6288,9.6288,9.6288,9.6288,9.6288,9.6288,9.6403,9.6519,9.648,9.698,9.7596,9.7673,9.8057,9.8634,9.8904,9.9019,9.9211,9.925,9.9596,9.9712,10.025,10.0519,10.0635,10.0981,10.1212,10.1289,10.1289,10.1289,10.1289,10.1289,10.1289,10.1289,10.1289,10.1289,10.1289,10.1289,10.1289,10.1289,10.1289,10.1289,10.1289,10.1289,10.1289,10.1289,10.1289,10.1289,10.1289,10.1289,10.1289,10.1289,10.1289,10.1289,10.1289,10.1289,10.1289,10.1289,10.1289,10.1289,10.1289,10.125,10.1019,10.0327,10.0327,10.0019,9.9596,9.9635,9.9673,9.9519,9.9712,9.9904,10.025,10.0904,10.125,10.1289,10.1289,10.1289,10.1289,10.1289,10.1289,10.1289,10.1289,10.1289,10.1289,10.1289,10.1289,10.1289,10.1289,10.1289,10.1289,10.1289,10.1289,10.1289,10.1289,10.1289,10.1289,10.1289,10.1289,10.1289,10.1289,10.1289,10.1289,10.1289,10.1289,10.1289,10.1289,10.1289,10.1289,10.1289,10.1289,10.1289,10.1289,10.1289,10.1289,10.1289,10.1289,9.6288,9.6288,9.6288,9.6288,9.6288,9.6288,9.6711,9.725,9.7288,9.7788,9.8519,9.8596,9.8673,9.9058,9.9634,10.0211,10.0558,10.0596,10.0673,10.0673,10.0943,10.0981,10.1019,10.1135,10.1289,10.1289,10.1289,10.1289,10.1289,10.1289,10.1289,10.1289,10.1289,10.1289,10.1289,10.1289,10.1289,10.1289,10.1289,10.1289,10.1289,10.1289,10.1289,10.1289,10.1289,10.1289,10.1289,10.1289,10.1289,10.1289,10.1289,10.1289,10.1289,10.1289,10.1289,10.1289,10.1289,10.1289,10.1289,10.1289,10.125,10.1135,10.1019,10.1058,10.0827,10.0789,10.0558,10.0673,10.0712,10.0904,10.1058,10.1212,10.125,10.1289,10.1289,10.1289,10.1289,10.1289,10.1289,10.1289,10.1289,10.1289,10.1289,10.1289,10.1289,10.1289,10.1289,10.1289,10.1289,10.1289,10.1289,10.1289,10.1289,10.1289,10.1289,10.1289,10.1289,10.1289,10.1289,10.1289,10.1289,10.1289,10.1289,10.1289,10.1289,10.1289,10.1289,10.1289,10.1289,10.1289,10.1289,10.1289,10.1289,10.1289,10.1289,9.6673,9.6365,9.6711,9.6942,9.6904,9.6904,9.7403,9.8096,9.8173,9.8634,9.9288,9.9481,9.9711,10.0135,10.0481,10.0981,10.1212,10.1289,10.1289,10.1289,10.1289,10.1289,10.1289,10.1289,10.1289,10.1289,10.1289,10.1289,10.1289,10.1289,10.1289,10.1289,10.1289,10.1289,10.1289,10.1289,10.1289,10.1289,10.1289,10.1289,10.1289,10.1289,10.1289,10.1289,10.1289,10.1289,10.1289,10.1289,10.1289,10.1289,10.1289,10.1289,10.1289,10.1289,10.1289,10.1289,10.1289,10.1289,10.1289,10.1289,10.1289,10.1289,10.1289,10.1289,10.1289,10.125,10.1289,10.1289,10.1289,10.1289,10.125,10.1289,10.1289,10.1289,10.1289,10.1289,10.1289,10.1289,10.1289,10.1289,10.1289,10.1289,10.1289,10.1289,10.1289,10.1289,10.1289,10.1289,10.1289,10.1289,10.1289,10.1289,10.1289,10.1289,10.1289,10.1289,10.1289,10.1289,10.1289,10.1289,10.1289,10.1289,10.1289,10.1289,10.1289,10.1289,10.1289,10.1289,10.1289,10.1289,10.1289,10.1289,10.1289,10.1289,10.1289,9.7365,9.6865,9.7518,9.775,9.775,9.775,9.825,9.8942,9.9058,9.9519,10.0289,10.0327,10.0673,10.1135,10.125,10.1289,10.1289,10.1289,10.1289,10.1289,10.1289,10.1289,10.1289,10.1289,10.1289,10.1289,10.1289,10.1289,10.1289,10.1289,10.1289,10.1289,10.1289,10.1289,10.1289,10.1289,10.1289,10.1289,10.1289,10.1289,10.1289,10.1289,10.1289,10.1289,10.1289,10.1289,10.1289,10.1289,10.1289,10.1289,10.1289,10.1289,10.1289,10.1289,10.1289,10.1289,10.1289,10.1289,10.1289,10.1289,10.1289,10.1289,10.1289,10.1289,10.1289,10.1289,10.1289,10.1289,10.1289,10.1289,10.1289,10.1289,10.1289,10.1289,10.1289,10.1289,10.1289,10.1289,10.1289,10.1289,10.1289,10.1289,10.1289,10.1289,10.1289,10.1289,10.1289,10.1289,10.1289,10.1289,10.1289,10.1289,10.1289,10.1289,10.1289,10.1289,10.1289,10.1289,10.1289,10.1289,10.1289,10.1289,10.1289,10.1289,10.1289,10.1289,10.1289,10.1289,10.1289,10.1289,10.1289,10.1289,10.1289,10.1289,10.1289,9.8596,9.8481,9.8595,9.8634,9.8673,9.8673,9.9135,9.9865,9.9942,10.0404,10.1058,10.1135,10.1173,10.1289,10.1289,10.1289,10.1289,10.1289,10.1289,10.1289,10.1289,10.1289,10.1289,10.1289,10.1289,10.1289,10.1289,10.1289,10.1289,10.1289,10.1289,10.1289,10.1289,10.1289,10.1289,10.1289,10.1289,10.1289,10.1289,10.1289,10.1289,10.1289,10.1289,10.1289,10.1289,10.1289,10.1289,10.1289,10.1289,10.1289,10.1289,10.1289,10.1289,10.1289,10.1289,10.1289,10.1289,10.1289,10.1289,10.1289,10.1289,10.1289,10.1289,10.1289,10.1289,10.1289,10.1289,10.1289,10.1289,10.1289,10.1289,10.1289,10.1289,10.1289,10.1289,10.1289,10.1289,10.1289,10.1289,10.1289,10.1289,10.1289,10.1289,10.1289,10.1289,10.1289,10.1289,10.1289,10.1289,10.1289,10.1289,10.1289,10.1289,10.1289,10.1289,10.1289,10.1289,10.1289,10.1289,10.1289,10.1289,10.1289,10.1289,10.1289,10.1289,10.1289,10.1289,10.1289,10.1289,10.1289,10.1289,10.1289,10.1289,10.1289,10.1289,9.9788,9.8865,9.9327,9.9519,9.9519,9.9558,10.0019,10.0673,10.0789,10.0981,10.125,10.1289,10.1289,10.1289,10.1289,10.1289,10.1289,10.1289,10.1289,10.1289,10.1289,10.1289,10.1289,10.1289,10.1289,10.1289,10.1289,10.1289,10.1289,10.1289,10.1289,10.1289,10.1289,10.1289,10.1289,10.1289,10.1289,10.1289,10.1289,10.1289,10.1289,10.1289,10.1289,10.1289,10.1289,10.1289,10.1289,10.1289,10.1289,10.1289,10.1289,10.1289,10.1289,10.1289,10.1289,10.1289,10.1289,10.1289,10.1289,10.1289,10.1289,10.1289,10.1289,10.1289,10.1289,10.1289,10.1289,10.1289,10.1289,10.1289,10.1289,10.1289,10.1289,10.1289,10.1289,10.1289,10.1289,10.1289,10.1289,10.1289,10.1289,10.1289,10.1289,10.1289,10.1289,10.1289,10.1289,10.1289,10.1289,10.1289,10.1289,10.1289,10.1289,10.1289,10.1289,10.1289,10.1289,10.1289,10.1289,10.1289,10.1289,10.1289,10.1289,10.1289,10.1289,10.1289,10.1289,10.1289,10.1289,10.1289,10.1289,10.1289,10.1289,10.1289,10.1289,10.0827,9.9595,10.0173,10.0404,10.0404,10.0404,10.0711,10.125,10.125,10.1289,10.1289,10.1289,10.1289,10.1289,10.1289,10.1289,10.1289,10.1289,10.1289,10.1289,10.1289,10.1289,10.1289,10.1289,10.1289,10.1289,10.1289,10.1289,10.1289,10.1289,10.1289,10.1289,10.1289,10.1289,10.1289,10.1289,10.1289,10.1289,10.1289,10.1289,10.1289,10.1289,10.1289,10.1289,10.1289,10.1289,10.1289,10.1289,10.1289,10.1289,10.1289,10.1289,10.1289,10.1289,10.1289,10.1289,10.1289,10.1289,10.1289,10.1289,10.1289,10.1289,10.1289,10.1289,10.1289,10.1289,10.1289,10.1289,10.1289,10.1289,10.1289,10.1289,10.1289,10.1289,10.1289,10.1289,10.1289,10.1289,10.1289,10.1289,10.1289,10.1289,10.1289,10.1289,10.1289,10.1289,10.1289,10.1289,10.1289,10.1289,10.1289,10.1289,10.1289,10.1289,10.1289,10.1289,10.1289,10.1289,10.1289,10.1289,10.1289,10.1289,10.1289,10.1289,10.1289,10.1289,10.1289,10.1289,10.1289,10.1289,10.1289,10.1289,10.1289,10.1289,10.1289,10.1635,10.152,10.1289,10.1173,10.1173,10.1212,10.125,10.1289,10.1289,10.1289,10.1289,10.1289,10.1289,10.1289,10.1289,10.1289,10.1289,10.1289,10.1289,10.1289,10.1289,10.1289,10.1289,10.1289,10.1289,10.1289,10.1289,10.1289,10.1289,10.1289,10.1289,10.1289,10.1289,10.1289,10.1289,10.1289,10.1289,10.1289,10.1289,10.1289,10.1289,10.1289,10.1289,10.1289,10.1289,10.1289,10.1289,10.1289,10.1289,10.1289,10.1289,10.1289,10.1289,10.1289,10.1289,10.1289,10.1289,10.1289,10.1289,10.1289,10.1289,10.1289,10.1289,10.1289,10.1289,10.1289,10.1289,10.1289,10.1289,10.1289,10.1289,10.1289,10.1289,10.1289,10.1289,10.1289,10.1289,10.1289,10.1289,10.1289,10.1289,10.1289,10.1289,10.1289,10.1289,10.1289,10.1289,10.1289,10.1289,10.1289,10.1289,10.1289,10.1289,10.1289,10.1289,10.1289,10.1289,10.1289,10.1289,10.1289,10.1289,10.1289,10.1289,10.1289,10.1289,10.1289,10.1289,10.1289,10.1289,10.1289,10.1289,10.1289,10.1289,10.1289,10.1289,10.2058,10.1943,10.1827,10.1597,10.1289,10.1289,10.1289,10.1289,10.1289,10.1289,10.1289,10.1289,10.1289,10.1289,10.1289,10.1289,10.1289,10.1289,10.1289,10.1289,10.1289,10.1289,10.1289,10.1289,10.1289,10.1289,10.1289,10.1289,10.1289,10.1289,10.1289,10.1289,10.1289,10.1289,10.1289,10.1289,10.1289,10.1289,10.1289,10.1289,10.1289,10.1289,10.1289,10.1289,10.1289,10.1289,10.1289,10.1289,10.1289,10.1289,10.1289,10.1289,10.1289,10.1289,10.1289,10.1289,10.1289,10.1289,10.1289,10.1289,10.1289,10.1289,10.1289,10.1289,10.1289,10.1289,10.1289,10.1289,10.1289,10.1289,10.1289,10.1289,10.1289,10.1289,10.1289,10.1289,10.1289,10.1289,10.1289,10.1289,10.1289,10.1289,10.1289,10.1289,10.1289,10.1289,10.1289,10.1289,10.1289,10.1289,10.1289,10.1289,10.1289,10.1289,10.1289,10.1289,10.1289,10.1289,10.1289,10.1289,10.1289,10.1289,10.1289,10.1289,10.1289,10.1289,10.1289,10.1289,10.1289,10.1289,10.1289,10.1289,10.1289,10.1289,10.1289,10.2399,10.2213,10.2097,10.1827,10.1443,10.1443,10.1366,10.1327,10.1289,10.1289,10.1289,10.1289,10.1289,10.1289,10.1289,10.1289,10.1289,10.1289,10.1289,10.1289,10.1289,10.1289,10.1289,10.1289,10.1289,10.1289,10.1289,10.1289,10.1289,10.1289,10.1289,10.1289,10.1289,10.1289,10.1289,10.1289,10.1289,10.1289,10.1289,10.1289,10.1289,10.1289,10.1289,10.1289,10.1289,10.1289,10.1289,10.1289,10.1289,10.1289,10.1289,10.1289,10.1289,10.1289,10.1289,10.1289,10.1289,10.1289,10.1289,10.1289,10.1289,10.1289,10.1289,10.1289,10.1289,10.1289,10.1289,10.1289,10.1289,10.1289,10.1289,10.1289,10.1289,10.1289,10.1289,10.1289,10.1289,10.1289,10.1289,10.1289,10.1289,10.1289,10.1289,10.1289,10.1289,10.1289,10.1289,10.1289,10.1289,10.1289,10.1289,10.1289,10.1289,10.1289,10.1289,10.1289,10.1289,10.1289,10.1289,10.1289,10.1289,10.1289,10.1289,10.1289,10.1289,10.1289,10.1289,10.1289,10.1289,10.1289,10.1289,10.1289,10.1289,10.1289,10.1289,10.2507,10.2482,10.2212,10.1981,10.1751,10.1712,10.1558,10.1366,10.1327,10.1289,10.1289,10.1289,10.1289,10.1289,10.1289,10.1289,10.1289,10.1289,10.1289,10.1289,10.1289,10.1289,10.1289,10.1289,10.1289,10.1289,10.1289,10.1289,10.1289,10.1289,10.1289,10.1289,10.1289,10.1289,10.1289,10.1289,10.1289,10.1289,10.1289,10.1289,10.1289,10.1289,10.1289,10.1289,10.1289,10.1289,10.1289,10.1289,10.1289,10.1289,10.1289,10.1289,10.1289,10.1289,10.1289,10.1289,10.1289,10.1289,10.1289,10.1289,10.1289,10.1289,10.1289,10.1289,10.1289,10.1289,10.1289,10.1289,10.1289,10.1289,10.1289,10.1289,10.1289,10.1289,10.1289,10.1289,10.1289,10.1289,10.1289,10.1289,10.1289,10.1289,10.1289,10.1289,10.1289,10.1289,10.1289,10.1289,10.1289,10.1289,10.1289,10.1289,10.1289,10.1289,10.1289,10.1289,10.1289,10.1289,10.1289,10.1289,10.1289,10.1289,10.1289,10.1289,10.1289,10.1289,10.1289,10.1289,10.1289,10.1289,10.1289,10.1289,10.1289,10.1289,10.1289,10.2749,10.2751,10.2673,10.2505,10.2212,10.202,10.1789,10.1558,10.1404,10.1289,10.1289,10.1289,10.1289,10.1289,10.1289,10.1289,10.1289,10.1289,10.1289,10.1289,10.1289,10.1289,10.1289,10.1289,10.1289,10.1289,10.1289,10.1289,10.1289,10.1289,10.1289,10.1289,10.1289,10.1289,10.1289,10.1289,10.1289,10.1289,10.1289,10.1289,10.1289,10.1289,10.1289,10.1289,10.1289,10.1289,10.1289,10.1289,10.1289,10.1289,10.1289,10.1289,10.1289,10.1289,10.1289,10.1289,10.1289,10.1289,10.1289,10.1289,10.1289,10.1289,10.1289,10.1289,10.1289,10.1289,10.1289,10.1289,10.1289,10.1289,10.1289,10.1289,10.1289,10.1289,10.1289,10.1289,10.1289,10.1289,10.1289,10.1289,10.1289,10.1289,10.1289,10.1289,10.1289,10.1289,10.1289,10.1289,10.1289,10.1289,10.1289,10.1289,10.1289,10.1289,10.1289,10.1289,10.1289,10.1289,10.1289,10.1289,10.1289,10.1289,10.1289,10.1289,10.1289,10.1289,10.1289,10.1289,10.1289,10.1289,10.1289,10.1289,10.1289,10.1289,10.1289,10.289,10.289,10.289,10.2802,10.2604,10.2338,10.204,10.1712,10.152,10.1404,10.1327,10.1289,10.1289,10.1289,10.1289,10.1289,10.1289,10.1289,10.1289,10.1289,10.1289,10.1289,10.1289,10.1289,10.1289,10.1289,10.1289,10.1289,10.1289,10.1289,10.1289,10.1289,10.1289,10.1289,10.1289,10.1289,10.1289,10.1289,10.1289,10.1289,10.1289,10.1289,10.1289,10.1289,10.1289,10.1289,10.1289,10.1289,10.1289,10.1289,10.1289,10.1289,10.1289,10.1289,10.1289,10.1289,10.1289,10.1289,10.1289,10.1289,10.1289,10.1289,10.1289,10.1289,10.1289,10.1289,10.1289,10.1289,10.1289,10.1289,10.1289,10.1289,10.1289,10.1289,10.1289,10.1289,10.1289,10.1289,10.1289,10.1289,10.1289,10.1289,10.1289,10.1289,10.1289,10.1289,10.1289,10.1289,10.1289,10.1289,10.1289,10.1289,10.1289,10.1289,10.1289,10.1289,10.1289,10.1289,10.1289,10.1289,10.1289,10.1289,10.1289,10.1289,10.1289,10.1289,10.1289,10.1289,10.1289,10.1289,10.1289,10.1289,10.1289,10.1289,10.1289,10.289,10.289,10.289,10.289,10.2851,10.2607,10.2229,10.1749,10.1674,10.1558,10.1327,10.1327,10.1289,10.1289,10.1289,10.1289,10.1289,10.1289,10.1289,10.1289,10.1289,10.1289,10.1289,10.1289,10.1289,10.1289,10.1289,10.1289,10.1289,10.1289,10.1289,10.1289,10.1289,10.1289,10.1289,10.1289,10.1289,10.1289,10.1289,10.1289,10.1289,10.1289,10.1289,10.1289,10.1289,10.1289,10.1289,10.1289,10.1289,10.1289,10.1289,10.1289,10.1289,10.1289,10.1289,10.1289,10.1289,10.1289,10.1289,10.1289,10.1289,10.1289,10.1289,10.1289,10.1289,10.1289,10.1289,10.1289,10.1289,10.1289,10.1289,10.1289,10.1289,10.1289,10.1289,10.1289,10.1289,10.1289,10.1289,10.1289,10.1289,10.1289,10.1289,10.1289,10.1289,10.1289,10.1289,10.1289,10.1289,10.1289,10.1289,10.1289,10.1289,10.1289,10.1289,10.1289,10.1289,10.1289,10.1289,10.1289,10.1289,10.1289,10.1289,10.1289,10.1289,10.1289,10.1289,10.1289,10.1289,10.1289,10.1289,10.1289,10.1289,10.1289,10.1289,10.289,10.289,10.289,10.289,10.289,10.2812,10.2593,10.2244,10.1903,10.1635,10.1597,10.1404,10.1327,10.1289,10.1289,10.1289,10.1289,10.1289,10.1289,10.1289,10.1289,10.1289,10.1289,10.1289,10.1289,10.1289,10.1289,10.1289,10.1289,10.1289,10.1289,10.1289,10.1366,10.1327,10.1327,10.1327,10.1327,10.1327,10.1327,10.1289,10.1289,10.1289,10.1289,10.1289,10.1289,10.1289,10.1289,10.1289,10.1289,10.1289,10.1289,10.1289,10.1289,10.1289,10.1289,10.1289,10.1289,10.1289,10.1289,10.1289,10.1289,10.1289,10.1289,10.1289,10.1289,10.1289,10.1289,10.1289,10.1289,10.1289,10.1289,10.1289,10.1289,10.1289,10.1289,10.1289,10.1289,10.1289,10.1289,10.1289,10.1289,10.1289,10.1289,10.1289,10.1289,10.1289,10.1289,10.1289,10.1289,10.1289,10.1289,10.1289,10.1289,10.1289,10.1289,10.1289,10.1289,10.1289,10.1289,10.1289,10.1289,10.1289,10.1289,10.1289,10.1289,10.1289,10.1289,10.1289,10.1289,10.1289,10.1289,10.1289,10.1289,10.1289,10.1289,10.289,10.289,10.289,10.289,10.289,10.289,10.2773,10.2578,10.2201,10.1913,10.1712,10.1558,10.1404,10.1327,10.1289,10.1289,10.1289,10.1289,10.1289,10.1289,10.1289,10.1289,10.1289,10.1289,10.1289,10.1289,10.1289,10.1289,10.1327,10.1327,10.1327,10.1481,10.1481,10.1443,10.1481,10.1481,10.1481,10.1443,10.1404,10.1327,10.1327,10.1327,10.1289,10.1289,10.1289,10.1289,10.1289,10.1289,10.1289,10.1289,10.1289,10.1289,10.1289,10.1289,10.1289,10.1289,10.1289,10.1289,10.1289,10.1289,10.1289,10.1289,10.1289,10.1289,10.1289,10.1289,10.1289,10.1289,10.1289,10.1289,10.1289,10.1289,10.1289,10.1289,10.1289,10.1289,10.1289,10.1289,10.1289,10.1289,10.1289,10.1289,10.1289,10.1289,10.1289,10.1289,10.1289,10.1289,10.1289,10.1289,10.1289,10.1289,10.1289,10.1289,10.1289,10.1289,10.1289,10.1289,10.1289,10.1289,10.1289,10.1289,10.1289,10.1289,10.1289,10.1289,10.1289,10.1289,10.1289,10.1289,10.1289,10.1289,10.1289,10.1289,10.1289,10.289,10.289,10.289,10.289,10.289,10.289,10.289,10.289,10.2617,10.2244,10.1858,10.1712,10.1558,10.1404,10.1327,10.1289,10.1289,10.1289,10.1289,10.1289,10.1289,10.1289,10.1289,10.1289,10.1289,10.1289,10.1289,10.1289,10.1327,10.1366,10.152,10.1673,10.1745,10.1736,10.1732,10.1712,10.1751,10.1712,10.1593,10.1469,10.1366,10.1366,10.1327,10.1289,10.1289,10.1289,10.1289,10.1289,10.1289,10.1289,10.1289,10.1289,10.1289,10.1289,10.1289,10.1289,10.1289,10.1289,10.1289,10.1289,10.1289,10.1289,10.1289,10.1289,10.1289,10.1289,10.1289,10.1289,10.1289,10.1289,10.1289,10.1289,10.1289,10.1289,10.1289,10.1289,10.1289,10.1289,10.1289,10.1289,10.1289,10.1289,10.1289,10.1289,10.1289,10.1289,10.1289,10.1289,10.1289,10.1289,10.1289,10.1289,10.1289,10.1289,10.1289,10.1289,10.1289,10.1289,10.1289,10.1289,10.1289,10.1289,10.1289,10.1289,10.1289,10.1289,10.1289,10.1289,10.1289,10.1289,10.1289,10.1289,10.1289,10.1289,10.1289,10.289,10.289,10.289,10.289,10.289,10.289,10.289,10.289,10.2851,10.2617,10.2269,10.1923,10.1673,10.1597,10.1404,10.1366,10.1327,10.1327,10.1289,10.1289,10.1289,10.1289,10.1289,10.1289,10.1289,10.1289,10.1289,10.1366,10.1443,10.152,10.1635,10.175,10.1909,10.2018,10.2021,10.2028,10.1971,10.202,10.1948,10.1755,10.1668,10.1558,10.1558,10.1404,10.1327,10.1327,10.1327,10.1327,10.1327,10.1289,10.1289,10.1289,10.1289,10.1289,10.1289,10.1289,10.1289,10.1289,10.1289,10.1289,10.1289,10.1289,10.1289,10.1289,10.1289,10.1289,10.1289,10.1289,10.1289,10.1289,10.1289,10.1289,10.1289,10.1289,10.1289,10.1289,10.1289,10.1289,10.1289,10.1289,10.1289,10.1289,10.1289,10.1289,10.1289,10.1289,10.1289,10.1289,10.1289,10.1289,10.1289,10.1289,10.1289,10.1289,10.1289,10.1289,10.1289,10.1289,10.1289,10.1289,10.1289,10.1289,10.1289,10.1289,10.1289,10.1289,10.1289,10.1289,10.1289,10.1289,10.1289,10.1289,10.1289,10.1289,10.1289,10.289,10.289,10.289,10.289,10.289,10.289,10.289,10.289,10.289,10.2812,10.2656,10.225,10.198,10.1863,10.1597,10.1481,10.1404,10.1366,10.1327,10.1289,10.1289,10.1289,10.1289,10.1327,10.1289,10.1327,10.1443,10.1558,10.1635,10.1789,10.1905,10.202,10.2213,10.23,10.2304,10.2265,10.2272,10.2289,10.2299,10.2204,10.2031,10.1925,10.1866,10.1673,10.1558,10.152,10.1443,10.1404,10.1327,10.1289,10.1289,10.1289,10.1289,10.1289,10.1289,10.1289,10.1289,10.1289,10.1289,10.1289,10.1289,10.1289,10.1289,10.1289,10.1289,10.1289,10.1289,10.1289,10.1289,10.1289,10.1289,10.1289,10.1289,10.1289,10.1289,10.1289,10.1289,10.1289,10.1289,10.1289,10.1289,10.1289,10.1289,10.1289,10.1289,10.1289,10.1289,10.1289,10.1289,10.1289,10.1289,10.1289,10.1289,10.1289,10.1289,10.1289,10.1289,10.1289,10.1289,10.1289,10.1289,10.1289,10.1289,10.1289,10.1289,10.1289,10.1289,10.1289,10.1289,10.1289,10.1289,10.1289,10.1289,10.1289,10.125,10.289,10.289,10.289,10.289,10.289,10.289,10.289,10.289,10.289,10.289,10.2851,10.2617,10.2383,10.2123,10.1886,10.1786,10.1674,10.1481,10.1404,10.1327,10.1289,10.1366,10.1404,10.1366,10.1443,10.1519,10.1704,10.1855,10.2002,10.2133,10.2251,10.2482,10.2547,10.2578,10.2539,10.2539,10.2556,10.256,10.2542,10.2533,10.2417,10.229,10.2121,10.2002,10.1902,10.1788,10.1674,10.1597,10.1443,10.1327,10.1327,10.1289,10.1289,10.1289,10.1289,10.1289,10.1289,10.1289,10.1289,10.1289,10.1289,10.1289,10.1289,10.1289,10.1289,10.1289,10.1289,10.1289,10.1289,10.1289,10.1289,10.1289,10.1289,10.1289,10.1289,10.1289,10.1289,10.1289,10.1289,10.1289,10.1289,10.1289,10.1289,10.1289,10.1289,10.1289,10.1289,10.1289,10.1289,10.1289,10.1289,10.1289,10.1289,10.1289,10.1289,10.1289,10.1289,10.1289,10.1289,10.1289,10.1289,10.1289,10.1289,10.1289,10.1289,10.1289,10.1289,10.1289,10.1289,10.1289,10.1289,10.1289,10.1289,10.125,10.1173,10.289,10.289,10.289,10.289,10.289,10.289,10.289,10.289,10.289,10.289,10.289,10.2851,10.2675,10.2422,10.2133,10.1977,10.1743,10.1635,10.1443,10.1327,10.1366,10.1481,10.1558,10.1593,10.1751,10.1894,10.1971,10.2046,10.2264,10.2399,10.2443,10.2552,10.2762,10.2812,10.2812,10.2812,10.2772,10.2783,10.2786,10.2773,10.2734,10.2539,10.2304,10.2166,10.2055,10.2058,10.2009,10.1982,10.1827,10.1635,10.1481,10.1404,10.1366,10.1366,10.1327,10.1289,10.1289,10.1289,10.1289,10.1289,10.1289,10.1289,10.1289,10.1289,10.1289,10.1289,10.1289,10.1289,10.1289,10.1289,10.1289,10.1289,10.1289,10.1289,10.1289,10.1289,10.1289,10.1289,10.1289,10.1289,10.1289,10.1289,10.1289,10.1289,10.1289,10.1289,10.1289,10.1289,10.1289,10.1289,10.1289,10.1289,10.1289,10.1289,10.1289,10.1289,10.1289,10.1289,10.1289,10.1289,10.1289,10.1289,10.1289,10.1289,10.1289,10.1289,10.1289,10.1289,10.1289,10.1289,10.1289,10.1289,10.1289,10.1212,10.1096]},{"header":{"parameterUnit":"m.s-1","parameterCategory":1,"la1":31.0,"la2":29.5877,"lo1":-88.7671,"lo2":-86.6584,"dx":0.0162,"dy":0.0185,"nx":115,"ny":88,"refTime":"2022-12-16T06:00:00:Z","depth":0,"parameterNumber":3,"parameterNumberName":"V-component_of_WINDS"},"data":[0.0,0.0,0.0,0.0,0.0,0.0,0.0,0.0,0.0,0.0,0.0,0.0,0.0,0.0,0.0,0.0,0.0,0.0,0.0,0.0,0.0,0.0,0.0,0.0,0.0,0.0,0.0,0.0,0.0,0.0,0.0,0.0,0.0,0.0,0.0,0.0,0.0,0.0,0.0,0.0,0.0,0.0,0.0,0.0,0.0,0.0,0.0,0.0,0.0,0.0,0.0,0.0,0.0,0.0,0.0,0.0,0.0,0.0,0.0,0.0,0.0,0.0,0.0,0.0,0.0,0.0,0.0,0.0,0.0,0.0,0.0,0.0,0.0,0.0,0.0,0.0,0.0,0.0,0.0,0.0,0.0,0.0,0.0,0.0,0.0,0.0,0.0,0.0,0.0,0.0,0.0,0.0,0.0,0.0,0.0,0.0,0.0,0.0,0.0,0.0,0.0,0.0,0.0,0.0,0.0,0.0,0.0,0.0,0.0,0.0,0.0,0.0,0.0,0.0,0.0,0.0,0.0,0.0,0.0,0.0,0.0,0.0,0.0,0.0,0.0,0.0,0.0,0.0,0.0,0.0,0.0,0.0,0.0,0.0,0.0,0.0,0.0,0.0,0.0,0.0,0.0,0.0,0.0,0.0,0.0,0.0,0.0,0.0,0.0,0.0,0.0,0.0,0.0,0.0,0.0,0.0,0.0,0.0,0.0,0.0,0.0,0.0,0.0,0.0,0.0,0.0,0.0,0.0,0.0,0.0,0.0,0.0,0.0,0.0,0.0,0.0,0.0,0.0,0.0,0.0,0.0,0.0,0.0,0.0,0.0,0.0,0.0,0.0,0.0,0.0,0.0,0.0,0.0,0.0,0.0,0.0,0.0,0.0,0.0,0.0,0.0,0.0,0.0,0.0,0.0,0.0,0.0,0.0,0.0,0.0,0.0,0.0,0.0,0.0,0.0,0.0,0.0,0.0,0.0,0.0,0.0,0.0,0.0,0.0,0.0,0.0,0.0,0.0,0.0,0.0,0.0,0.0,0.0,0.0,0.0,0.0,0.0,0.0,0.0,0.0,0.0,0.0,0.0,0.0,0.0,0.0,0.0,0.0,0.0,0.0,0.0,0.0,0.0,0.0,0.0,0.0,0.0,0.0,0.0,0.0,0.0,0.0,0.0,0.0,0.0,0.0,0.0,0.0,0.0,0.0,0.0,0.0,0.0,0.0,0.0,0.0,0.0,0.0,0.0,0.0,0.0,0.0,0.0,0.0,0.0,0.0,0.0,0.0,0.0,0.0,0.0,0.0,0.0,0.0,0.0,0.0,0.0,0.0,0.0,0.0,0.0,0.0,0.0,0.0,0.0,0.0,0.0,0.0,0.0,0.0,0.0,0.0,0.0,0.0,0.0,0.0,0.0,0.0,0.0,0.0,0.0,0.0,0.0,0.0,0.0,0.0,0.0,0.0,0.0,0.0,0.0,0.0,0.0,0.0,0.0,0.0,0.0,0.0,0.0,0.0,0.0,0.0,0.0,0.0,0.0,0.0,0.0,0.0,0.0,0.0,0.0,0.0,0.0,0.0,0.0,0.0,0.0,0.0,0.0,0.0,0.0,0.0,0.0,0.0,0.0,0.0,0.0,0.0,0.0,0.0,0.0,0.0,0.0,0.0,0.0,0.0,0.0,0.0,0.0,0.0,0.0,0.0,0.0,0.0,0.0,0.0,0.0,0.0,0.0,0.0,0.0,0.0,0.0,0.0,0.0,0.0,0.0,0.0,0.0,0.0,0.0,0.0,0.0,0.0,0.0,0.0,0.0,0.0,0.0,0.0,0.0,0.0,0.0,0.0,0.0,0.0,0.0,0.0,0.0,0.0,0.0,0.0,0.0,0.0,0.0,0.0,0.0,0.0,0.0,0.0,0.0,0.0,0.0,0.0,0.0,0.0,0.0,0.0,0.0,0.0,0.0,0.0,0.0,0.0,0.0,0.0,0.0,0.0,0.0,0.0,0.0,0.0,0.0,0.0,0.0,0.0,0.0,0.0,0.0,0.0,0.0,0.0,0.0,0.0,0.0,0.0,0.0,0.0,0.0,0.0,0.0,0.0,0.0,0.0,0.0,0.0,0.0,0.0,0.0,0.0,0.0,0.0,0.0,0.0,0.0,0.0,0.0,0.0,0.0,0.0,0.0,0.0,0.0,0.0,0.0,0.0,0.0,0.0,0.0,0.0,0.0,0.0,0.0,0.0,0.0,0.0,0.0,0.0,0.0,0.0,0.0,0.0,0.0,0.0,0.0,0.0,0.0,0.0,0.0,0.0,0.0,0.0,0.0,0.0,0.0,0.0,0.0,0.0,0.0,0.0,0.0,0.0,0.0,0.0,0.0,0.0,0.0,0.0,0.0,0.0,0.0,0.0,0.0,0.0,0.0,0.0,0.0,0.0,0.0,0.0,0.0,0.0,0.0,0.0,0.0,0.0,0.0,0.0,0.0,0.0,0.0,0.0,0.0,0.0,0.0,0.0,0.0,0.0,0.0,0.0,0.0,0.0,0.0,0.0,0.0,0.0,0.0,0.0,0.0,0.0,0.0,0.0,0.0,0.0,0.0,0.0,0.0,0.0,0.0,0.0,0.0,0.0,0.0,0.0,0.0,0.0,0.0,0.0,0.0,0.0,0.0,0.0,0.0,0.0,0.0,0.0,0.0,0.0,0.0,0.0,0.0,0.0,0.0,0.0,0.0,0.0,0.0,0.0,0.0,0.0,0.0,0.0,0.0,0.0,0.0,0.0,0.0,0.0,0.0,0.0,0.0,0.0,0.0,0.0,0.0,0.0,0.0,0.0,0.0,0.0,0.0,0.0,0.0,0.0,0.0,0.0,0.0,0.0,0.0,0.0,0.0,0.0,0.0,0.0,0.0,0.0,0.0,0.0,0.0,0.0,0.0,0.0,0.0,0.0,0.0,0.0,0.0,0.0,0.0,0.0,0.0,0.0,0.0,0.0,0.0,0.0,0.0,0.0,0.0,0.0,0.0,0.0,0.0,0.0,0.0,0.0,0.0,0.0,0.0,0.0,0.0,0.0,0.0,0.0,0.0,0.0,0.0,0.0,0.0,0.0,0.0,0.0,0.0,0.0,0.0,0.0,0.0,0.0,0.0,0.0,0.0,0.0,0.0,0.0,0.0,0.0,0.0,0.0,0.0,0.0,0.0,0.0,0.0,0.0,0.0,0.0,0.0,0.0,0.0,0.0,0.0,0.0,0.0,0.0,0.0,0.0,0.0,0.0,0.0,0.0,0.0,0.0,0.0,0.0,0.0,0.0,0.0,0.0,0.0,0.0,0.0,0.0,0.0,0.0,0.0,0.0,0.0,0.0,0.0,0.0,0.0,0.0,0.0,0.0,0.0,0.0,0.0,0.0,0.0,0.0,0.0,0.0,0.0,0.0,0.0,0.0,0.0,0.0,0.0,0.0,0.0,0.0,0.0,0.0,0.0,0.0,0.0,0.0,0.0,0.0,0.0,0.0,0.0,0.0,0.0,0.0,0.0,0.0,0.0,0.0,0.0,0.0,0.0,0.0,0.0,0.0,0.0,0.0,0.0,0.0,0.0,0.0,0.0,0.0,0.0,0.0,0.0,0.0,0.0,0.0,0.0,0.0,0.0,0.0,0.0,0.0,0.0,0.0,0.0,0.0,0.0,0.0,0.0,0.0,0.0,0.0,0.0,0.0,0.0,0.0,0.0,0.0,0.0,0.0,0.0,0.0,0.0,0.0,0.0,0.0,0.0,0.0,0.0,0.0,0.0,0.0,0.0,0.0,0.0,0.0,0.0,0.0,0.0,0.0,0.0,0.0,0.0,0.0,0.0,0.0,0.0,0.0,0.0,0.0,0.0,0.0,0.0,0.0,0.0,0.0,0.0,0.0,0.0,0.0,0.0,0.0,0.0,0.0,0.0,0.0,0.0,0.0,0.0,0.0,0.0,0.0,0.0,0.0,0.0,0.0,0.0,0.0,0.0,0.0,0.0,0.0,0.0,0.0,0.0,0.0,0.0,0.0,0.0,0.0,0.0,0.0,0.0,0.0,0.0,0.0,0.0,0.0,0.0,0.0,0.0,0.0,0.0,0.0,0.0,0.0,0.0,0.0,0.0,0.0,0.0,0.0,0.0,0.0,0.0,0.0,0.0,0.0,0.0,0.0,0.0,0.0,0.0,0.0,0.0,0.0,0.0,0.0,0.0,0.0,0.0,0.0,0.0,0.0,0.0,0.0,0.0,0.0,-1.1914,0.0,0.0,0.0,-1.1055,0.0,0.0,0.0,0.0,0.0,0.0,0.0,0.0,0.0,0.0,0.0,0.0,0.0,0.0,0.0,0.0,0.0,0.0,0.0,0.0,0.0,0.0,0.0,0.0,0.0,0.0,0.0,0.0,0.0,0.0,0.0,0.0,0.0,0.0,0.0,0.0,0.0,0.0,0.0,0.0,0.0,0.0,0.0,0.0,0.0,0.0,0.0,0.0,0.0,0.0,0.0,0.0,0.0,0.0,0.0,0.0,0.0,0.0,0.0,0.0,0.0,0.0,0.0,0.0,0.0,0.0,0.0,0.0,0.0,0.0,0.0,0.0,0.0,0.0,0.0,0.0,0.0,0.0,0.0,0.0,0.0,0.0,0.0,0.0,0.0,0.0,0.0,0.0,0.0,0.0,0.0,0.0,0.0,0.0,0.0,0.0,0.0,0.0,0.0,0.0,0.0,0.0,0.0,0.0,0.0,0.0,0.0,0.0,0.0,0.0,-1.2383,-1.1953,-1.2578,-1.2305,-1.0977,0.0,0.0,0.0,0.0,0.0,0.0,0.0,0.0,0.0,0.0,0.0,0.0,0.0,0.0,0.0,0.0,0.0,0.0,0.0,0.0,0.0,0.0,0.0,0.0,0.0,0.0,0.0,0.0,0.0,0.0,0.0,0.0,0.0,0.0,0.0,0.0,0.0,0.0,0.0,0.0,0.0,0.0,0.0,0.0,0.0,0.0,0.0,0.0,0.0,0.0,0.0,0.0,0.0,0.0,0.0,0.0,0.0,0.0,0.0,0.0,0.0,0.0,0.0,0.0,0.0,0.0,0.0,0.0,0.0,0.0,0.0,0.0,0.0,0.0,0.0,0.0,0.0,0.0,0.0,0.0,0.0,0.0,0.0,0.0,0.0,0.0,0.0,0.0,0.0,0.0,0.0,0.0,0.0,0.0,0.0,0.0,0.0,0.0,0.0,0.0,0.0,0.0,0.0,0.0,0.0,0.0,0.0,0.0,0.0,0.0,0.0,0.0,-1.3125,-1.2637,-1.1152,0.0,0.0,0.0,0.0,0.0,0.0,0.0,0.0,0.0,0.0,0.0,0.0,0.0,0.0,0.0,0.0,0.0,0.0,0.0,0.0,0.0,0.0,0.0,0.0,0.0,0.0,0.0,0.0,0.0,0.0,0.0,0.0,0.0,0.0,0.0,0.0,0.0,0.0,0.0,0.0,0.0,0.0,0.0,0.0,0.0,0.0,0.0,0.0,0.0,0.0,0.0,0.0,0.0,0.0,0.0,0.0,0.0,0.0,0.0,0.0,0.0,0.0,0.0,0.0,0.0,0.0,0.0,0.0,0.0,0.0,0.0,0.0,0.0,0.0,0.0,0.0,0.0,0.0,0.0,0.0,0.0,0.0,0.0,0.0,0.0,0.0,0.0,0.0,0.0,0.0,0.0,0.0,0.0,0.0,0.0,0.0,0.0,0.0,0.0,0.0,0.0,0.0,0.0,0.0,0.0,0.0,0.0,0.0,0.0,0.0,-1.2402,-1.3834,-1.3301,0.0,-1.1645,0.0,0.0,0.0,0.0,0.0,0.0,0.0,0.0,0.0,0.0,0.0,0.0,0.0,0.0,0.0,0.0,0.0,0.0,0.0,0.0,0.0,0.0,0.0,0.0,0.0,0.0,0.0,0.0,0.0,0.0,0.0,0.0,0.0,0.0,0.0,0.0,0.0,0.0,0.0,0.0,0.0,0.0,0.0,0.0,0.0,0.0,0.0,0.0,0.0,0.0,0.0,0.0,0.0,0.0,0.0,0.0,0.0,0.0,0.0,0.0,0.0,0.0,0.0,0.0,0.0,0.0,0.0,0.0,0.0,0.0,0.0,0.0,0.0,0.0,0.0,0.0,0.0,0.0,0.0,0.0,0.0,0.0,0.0,0.0,0.0,0.0,0.0,0.0,0.0,0.0,0.0,0.0,0.0,0.0,0.0,0.0,0.0,0.0,0.0,0.0,0.0,0.0,0.0,0.0,0.0,0.0,0.0,0.0,0.0,0.0,-1.291,-1.4102,-1.332,-1.2508,0.0,0.0,0.0,0.0,0.0,0.0,0.0,0.0,0.0,0.0,0.0,0.0,0.0,0.0,0.0,0.0,0.0,0.0,0.0,0.0,0.0,0.0,0.0,0.0,0.0,0.0,0.0,0.0,0.0,0.0,0.0,0.0,0.0,0.0,0.0,0.0,0.0,0.0,0.0,0.0,0.0,0.0,0.0,0.0,0.0,0.0,0.0,0.0,0.0,0.0,0.0,0.0,0.0,0.0,0.0,0.0,0.0,0.0,0.0,0.0,0.0,0.0,0.0,0.0,0.0,0.0,0.0,0.0,0.0,0.0,0.0,0.0,0.0,0.0,0.0,0.0,0.0,0.0,0.0,0.0,0.0,0.0,0.0,0.0,0.0,0.0,0.0,0.0,0.0,0.0,0.0,0.0,0.0,0.0,0.0,0.0,0.0,0.0,0.0,0.0,0.0,0.0,0.0,0.0,0.0,0.0,0.0,0.0,0.0,0.0,-1.2793,-1.3457,-1.4219,-1.3388,-1.2561,-1.1777,0.0,0.0,0.0,0.0,0.0,0.0,0.0,0.0,0.0,0.0,0.0,0.0,0.0,0.0,0.0,0.0,0.0,0.0,0.0,0.0,0.0,0.0,0.0,0.0,0.0,0.0,0.0,0.0,0.0,0.0,0.0,0.0,0.0,0.0,0.0,0.0,0.0,0.0,0.0,0.0,0.0,0.0,0.0,0.0,0.0,0.0,0.0,0.0,0.0,0.0,0.0,0.0,0.0,0.0,0.0,0.0,0.0,0.0,0.0,0.0,0.0,0.0,0.0,0.0,0.0,0.0,0.0,0.0,0.0,0.0,0.0,0.0,0.0,0.0,0.0,0.0,0.0,0.0,0.0,0.0,0.0,0.0,0.0,0.0,0.0,0.0,0.0,0.0,0.0,0.0,0.0,0.0,0.0,0.0,0.0,0.0,0.0,0.0,0.0,0.0,0.0,0.0,0.0,0.0,0.0,0.0,0.0,0.0,-1.3867,-1.3652,-1.3887,-1.4727,-1.3699,-1.2809,0.0,0.0,0.0,0.0,0.0,0.0,0.0,0.0,0.0,0.0,0.0,0.0,0.0,0.0,0.0,0.0,0.0,0.0,0.0,0.0,0.0,0.0,0.0,0.0,0.0,0.0,0.0,0.0,0.0,0.0,0.0,0.0,0.0,0.0,0.0,0.0,0.0,0.0,0.0,0.0,0.0,0.0,0.0,0.0,0.0,0.0,0.0,0.0,0.0,0.0,0.0,0.0,0.0,0.0,0.0,0.0,0.0,0.0,0.0,0.0,0.0,0.0,0.0,0.0,0.0,0.0,0.0,0.0,0.0,0.0,0.0,0.0,0.0,0.0,0.0,0.0,0.0,0.0,0.0,0.0,0.0,0.0,0.0,0.0,0.0,0.0,0.0,0.0,0.0,0.0,0.0,0.0,0.0,0.0,0.0,0.0,0.0,0.0,0.0,0.0,0.0,0.0,0.0,0.0,0.0,0.0,0.0,0.0,0.0,-1.2461,-1.3418,-1.4453,-1.5508,-1.353,-1.273,0.0,0.0,0.0,0.0,0.0,0.0,0.0,0.0,0.0,0.0,0.0,0.0,0.0,0.0,0.0,0.0,0.0,0.0,0.0,0.0,0.0,0.0,0.0,0.0,0.0,0.0,0.0,0.0,0.0,0.0,0.0,0.0,0.0,0.0,0.0,0.0,0.0,0.0,0.0,0.0,0.0,0.0,0.0,0.0,0.0,0.0,0.0,0.0,0.0,0.0,0.0,0.0,0.0,0.0,0.0,0.0,0.0,0.0,0.0,0.0,0.0,0.0,0.0,0.0,0.0,0.0,0.0,0.0,0.0,0.0,0.0,0.0,0.0,0.0,0.0,0.0,0.0,0.0,0.0,0.0,0.0,0.0,0.0,0.0,0.0,0.0,0.0,0.0,0.0,0.0,0.0,0.0,0.0,0.0,0.0,0.0,0.0,0.0,0.0,0.0,0.0,0.0,0.0,0.0,0.0,0.0,0.0,0.0,0.0,-1.2632,-1.3886,-1.493,-1.56,-1.3286,-1.229,0.0,0.0,0.0,0.0,0.0,0.0,0.0,0.0,0.0,0.0,0.0,0.0,0.0,0.0,0.0,0.0,0.0,0.0,0.0,0.0,0.0,0.0,0.0,0.0,0.0,0.0,0.0,0.0,0.0,0.0,0.0,0.0,0.0,0.0,0.0,0.0,0.0,0.0,0.0,0.0,0.0,0.0,0.0,0.0,0.0,0.0,0.0,0.0,0.0,0.0,0.0,0.0,0.0,0.0,0.0,0.0,0.0,0.0,0.0,0.0,0.0,0.0,0.0,0.0,0.0,0.0,0.0,0.0,0.0,0.0,0.0,0.0,0.0,0.0,0.0,0.0,0.0,0.0,0.0,0.0,0.0,0.0,0.0,0.0,0.0,0.0,0.0,0.0,0.0,0.0,0.0,0.0,0.0,0.0,0.0,0.0,0.0,0.0,0.0,0.0,0.0,0.0,0.0,0.0,0.0,0.0,0.0,0.0,-1.2637,-1.4705,-1.5223,-1.5326,-1.4902,-1.2931,-1.1503,0.0,0.0,0.0,0.0,0.0,0.0,0.0,0.0,0.0,0.0,0.0,0.0,0.0,0.0,0.0,0.0,0.0,0.0,0.0,0.0,0.0,0.0,0.0,0.0,0.0,0.0,0.0,0.0,0.0,0.0,0.0,0.0,0.0,0.0,0.0,0.0,0.0,0.0,0.0,0.0,0.0,0.0,0.0,0.0,0.0,0.0,0.0,0.0,0.0,0.0,0.0,0.0,0.0,0.0,0.0,0.0,0.0,0.0,0.0,0.0,0.0,0.0,0.0,0.0,0.0,0.0,0.0,0.0,0.0,0.0,0.0,0.0,0.0,0.0,0.0,0.0,0.0,0.0,0.0,0.0,0.0,0.0,0.0,0.0,0.0,0.0,0.0,0.0,0.0,0.0,0.0,0.0,0.0,0.0,0.0,0.0,0.0,0.0,0.0,0.0,0.0,0.0,0.0,0.0,0.0,0.0,0.0,0.0,0.0,-1.3041,-1.5478,-1.6536,-1.5872,-1.3447,-1.2299,0.0,0.0,0.0,0.0,0.0,0.0,0.0,0.0,0.0,0.0,0.0,0.0,0.0,0.0,0.0,0.0,0.0,0.0,0.0,0.0,0.0,0.0,0.0,0.0,0.0,0.0,0.0,0.0,0.0,0.0,0.0,0.0,0.0,0.0,0.0,0.0,0.0,0.0,0.0,0.0,0.0,0.0,0.0,0.0,0.0,0.0,0.0,0.0,0.0,0.0,0.0,0.0,0.0,0.0,0.0,0.0,0.0,0.0,0.0,0.0,0.0,0.0,0.0,0.0,0.0,0.0,0.0,0.0,0.0,0.0,0.0,0.0,0.0,0.0,0.0,0.0,0.0,0.0,0.0,0.0,0.0,0.0,0.0,0.0,0.0,0.0,0.0,0.0,0.0,0.0,0.0,0.0,0.0,0.0,0.0,0.0,0.0,0.0,0.0,0.0,0.0,0.0,0.0,0.0,0.0,0.0,0.0,0.0,0.0,-1.3521,-1.602,-1.6977,-1.5889,-1.3711,-1.2461,-1.2364,0.0,0.0,0.0,0.0,0.0,0.0,0.0,0.0,0.0,0.0,0.0,0.0,0.0,0.0,0.0,0.0,0.0,0.0,0.0,0.0,0.0,0.0,0.0,0.0,0.0,0.0,0.0,0.0,0.0,0.0,0.0,0.0,0.0,0.0,0.0,0.0,0.0,0.0,0.0,0.0,0.0,0.0,0.0,0.0,0.0,0.0,0.0,0.0,0.0,0.0,0.0,0.0,0.0,0.0,0.0,0.0,0.0,0.0,0.0,0.0,0.0,0.0,0.0,0.0,0.0,0.0,0.0,0.0,0.0,0.0,0.0,0.0,0.0,0.0,0.0,0.0,0.0,0.0,0.0,0.0,0.0,0.0,0.0,0.0,0.0,0.0,0.0,0.0,0.0,0.0,0.0,0.0,0.0,0.0,0.0,0.0,0.0,0.0,0.0,0.0,0.0,0.0,0.0,0.0,0.0,0.0,0.0,0.0,-1.558,-1.6889,-1.6813,-1.5245,-1.3752,-1.2248,0.0,0.0,0.0,0.0,0.0,0.0,0.0,0.0,0.0,0.0,0.0,0.0,0.0,0.0,0.0,0.0,0.0,0.0,0.0,0.0,0.0,0.0,0.0,0.0,0.0,0.0,0.0,0.0,0.0,0.0,0.0,0.0,0.0,0.0,0.0,0.0,0.0,0.0,0.0,0.0,0.0,0.0,0.0,0.0,0.0,0.0,0.0,0.0,0.0,0.0,0.0,0.0,0.0,0.0,0.0,0.0,0.0,0.0,0.0,0.0,0.0,0.0,0.0,0.0,0.0,0.0,0.0,0.0,0.0,0.0,0.0,0.0,0.0,0.0,0.0,0.0,0.0,0.0,0.0,0.0,0.0,0.0,0.0,0.0,0.0,0.0,0.0,0.0,0.0,0.0,0.0,0.0,0.0,0.0,0.0,0.0,0.0,0.0,0.0,0.0,0.0,0.0,0.0,0.0,0.0,0.0,0.0,0.0,0.0,-1.6047,-1.7469,-1.7608,-1.6402,-1.4809,-1.3446,0.0,0.0,0.0,0.0,0.0,0.0,0.0,0.0,0.0,0.0,0.0,0.0,0.0,0.0,0.0,0.0,0.0,0.0,0.0,0.0,0.0,0.0,0.0,0.0,0.0,0.0,0.0,0.0,0.0,0.0,0.0,0.0,0.0,0.0,0.0,0.0,0.0,0.0,0.0,0.0,0.0,0.0,0.0,0.0,0.0,0.0,0.0,0.0,0.0,0.0,0.0,0.0,0.0,0.0,0.0,0.0,0.0,0.0,0.0,0.0,0.0,0.0,0.0,0.0,0.0,0.0,0.0,0.0,0.0,0.0,0.0,0.0,0.0,0.0,0.0,0.0,0.0,0.0,0.0,0.0,0.0,0.0,0.0,0.0,0.0,0.0,0.0,0.0,0.0,0.0,0.0,0.0,0.0,0.0,0.0,0.0,0.0,0.0,0.0,0.0,0.0,0.0,0.0,0.0,0.0,0.0,0.0,0.0,-1.5231,-1.7154,-1.8036,-1.8224,-1.7484,-1.597,-1.4391,0.0,0.0,0.0,0.0,0.0,0.0,0.0,0.0,0.0,0.0,0.0,0.0,0.0,0.0,0.0,0.0,0.0,0.0,0.0,0.0,0.0,0.0,0.0,0.0,0.0,0.0,0.0,0.0,0.0,0.0,0.0,0.0,0.0,0.0,0.0,0.0,0.0,0.0,0.0,0.0,0.0,0.0,0.0,0.0,0.0,0.0,0.0,0.0,0.0,0.0,0.0,0.0,0.0,0.0,0.0,0.0,0.0,0.0,0.0,0.0,0.0,0.0,0.0,0.0,0.0,0.0,0.0,0.0,0.0,0.0,0.0,0.0,0.0,0.0,0.0,0.0,0.0,0.0,0.0,0.0,0.0,0.0,0.0,0.0,0.0,0.0,0.0,0.0,0.0,0.0,0.0,0.0,0.0,0.0,0.0,0.0,0.0,0.0,0.0,0.0,0.0,0.0,0.0,0.0,0.0,0.0,0.0,0.0,-1.6005,-1.8477,-1.8571,-1.8571,-1.849,-1.7061,-1.5231,0.0,0.0,0.0,0.0,0.0,0.0,0.0,0.0,0.0,0.0,0.0,0.0,0.0,0.0,0.0,0.0,0.0,0.0,0.0,0.0,0.0,0.0,0.0,0.0,0.0,0.0,0.0,0.0,0.0,0.0,0.0,0.0,0.0,0.0,0.0,0.0,0.0,0.0,0.0,0.0,0.0,0.0,0.0,0.0,0.0,0.0,0.0,0.0,0.0,0.0,0.0,0.0,0.0,0.0,0.0,0.0,0.0,0.0,0.0,0.0,0.0,0.0,0.0,0.0,0.0,0.0,0.0,0.0,0.0,0.0,0.0,0.0,0.0,0.0,0.0,0.0,0.0,0.0,0.0,0.0,0.0,0.0,0.0,0.0,0.0,0.0,0.0,0.0,0.0,0.0,0.0,0.0,0.0,0.0,0.0,0.0,0.0,0.0,0.0,0.0,0.0,0.0,0.0,0.0,0.0,0.0,0.0,0.0,-1.7315,-1.8784,-1.9065,-1.9065,-1.8838,-1.7168,-1.5605,0.0,0.0,0.0,0.0,0.0,0.0,0.0,0.0,0.0,0.0,0.0,0.0,0.0,0.0,0.0,0.0,0.0,0.0,0.0,0.0,0.0,0.0,0.0,0.0,0.0,0.0,0.0,0.0,0.0,0.0,0.0,0.0,0.0,0.0,0.0,0.0,0.0,0.0,0.0,0.0,0.0,0.0,0.0,0.0,0.0,0.0,0.0,0.0,-1.3669,0.0,0.0,0.0,0.0,0.0,0.0,0.0,0.0,0.0,0.0,0.0,0.0,0.0,0.0,0.0,0.0,0.0,0.0,0.0,0.0,0.0,0.0,0.0,0.0,0.0,0.0,0.0,0.0,0.0,0.0,0.0,0.0,0.0,0.0,0.0,0.0,0.0,0.0,0.0,0.0,0.0,0.0,0.0,0.0,0.0,0.0,0.0,0.0,0.0,0.0,0.0,0.0,0.0,0.0,0.0,0.0,0.0,0.0,0.0,-1.7929,-1.9092,-1.9412,-1.9426,-1.9105,-1.8076,-1.6647,0.0,0.0,0.0,0.0,0.0,0.0,0.0,0.0,0.0,0.0,0.0,0.0,0.0,0.0,0.0,0.0,0.0,0.0,0.0,0.0,0.0,0.0,0.0,0.0,0.0,0.0,0.0,0.0,0.0,0.0,0.0,0.0,0.0,0.0,0.0,0.0,0.0,0.0,0.0,0.0,0.0,0.0,0.0,0.0,0.0,0.0,0.0,0.0,0.0,0.0,0.0,0.0,0.0,0.0,0.0,0.0,0.0,0.0,0.0,0.0,0.0,0.0,0.0,0.0,0.0,0.0,0.0,0.0,0.0,0.0,0.0,0.0,0.0,0.0,0.0,0.0,0.0,0.0,0.0,0.0,0.0,0.0,0.0,0.0,0.0,0.0,0.0,0.0,0.0,0.0,0.0,0.0,0.0,0.0,0.0,0.0,0.0,0.0,0.0,0.0,0.0,0.0,0.0,0.0,0.0,0.0,0.0,-1.6874,-1.825,-1.9439,-1.9746,-1.9746,-1.9506,-1.9212,-1.7836,-1.5271,0.0,0.0,0.0,0.0,0.0,0.0,0.0,0.0,0.0,0.0,0.0,0.0,0.0,0.0,0.0,0.0,0.0,0.0,0.0,0.0,0.0,0.0,0.0,0.0,0.0,0.0,0.0,0.0,0.0,0.0,0.0,0.0,0.0,0.0,0.0,0.0,0.0,0.0,-1.1952,-1.3268,0.0,0.0,0.0,0.0,0.0,0.0,0.0,0.0,-1.2318,0.0,0.0,0.0,0.0,0.0,0.0,0.0,0.0,0.0,0.0,0.0,0.0,0.0,0.0,0.0,0.0,0.0,0.0,0.0,0.0,0.0,0.0,0.0,0.0,0.0,0.0,0.0,0.0,0.0,0.0,0.0,0.0,0.0,0.0,0.0,0.0,0.0,0.0,0.0,0.0,0.0,0.0,0.0,0.0,0.0,0.0,0.0,0.0,0.0,0.0,0.0,0.0,0.0,0.0,0.0,0.0,-1.7101,-1.7675,-1.8637,-2.0054,-2.0134,-2.0134,-2.008,-1.9813,-1.8531,-1.6192,0.0,0.0,0.0,0.0,0.0,0.0,0.0,0.0,0.0,0.0,0.0,0.0,0.0,0.0,0.0,0.0,0.0,0.0,0.0,0.0,0.0,0.0,0.0,0.0,0.0,0.0,0.0,0.0,0.0,0.0,0.0,0.0,0.0,0.0,0.0,0.0,0.0,0.0,0.0,-1.4199,-1.3952,0.0,0.0,0.0,0.0,0.0,0.0,0.0,0.0,-1.3037,0.0,0.0,0.0,0.0,0.0,0.0,0.0,0.0,0.0,0.0,0.0,0.0,0.0,0.0,0.0,0.0,0.0,0.0,0.0,0.0,0.0,0.0,0.0,0.0,0.0,0.0,0.0,0.0,0.0,0.0,0.0,0.0,0.0,0.0,0.0,0.0,0.0,0.0,0.0,0.0,0.0,0.0,0.0,0.0,0.0,0.0,0.0,0.0,0.0,0.0,0.0,0.0,0.0,0.0,0.0,-1.6847,-1.8397,-1.9506,-2.0214,-2.0388,-2.0388,-2.0227,-1.996,-1.8691,0.0,0.0,0.0,0.0,0.0,0.0,0.0,0.0,0.0,0.0,0.0,0.0,0.0,0.0,0.0,0.0,0.0,0.0,0.0,0.0,0.0,0.0,0.0,0.0,0.0,0.0,0.0,0.0,0.0,0.0,0.0,0.0,0.0,0.0,0.0,0.0,0.0,0.0,0.0,0.0,-1.4378,-1.4426,-1.5413,0.0,0.0,0.0,0.0,0.0,0.0,-1.3614,-1.3039,0.0,0.0,0.0,0.0,0.0,0.0,0.0,0.0,0.0,0.0,0.0,0.0,0.0,0.0,0.0,0.0,0.0,0.0,0.0,0.0,0.0,0.0,0.0,0.0,0.0,0.0,0.0,0.0,0.0,0.0,0.0,0.0,0.0,0.0,0.0,0.0,0.0,0.0,0.0,0.0,0.0,0.0,0.0,0.0,0.0,0.0,0.0,0.0,0.0,0.0,0.0,0.0,0.0,0.0,0.0,-1.6473,-1.8771,-2.0174,-2.0575,-2.0815,-2.0828,-2.0588,-2.0187,-1.8878,0.0,0.0,0.0,0.0,0.0,0.0,0.0,0.0,0.0,0.0,0.0,0.0,0.0,0.0,0.0,0.0,0.0,0.0,0.0,0.0,0.0,0.0,0.0,0.0,0.0,0.0,0.0,0.0,0.0,0.0,0.0,0.0,0.0,0.0,0.0,0.0,0.0,0.0,0.0,0.0,0.0,-1.515,-1.5899,-1.5257,0.0,0.0,0.0,0.0,-1.499,-1.4295,0.0,0.0,0.0,0.0,0.0,0.0,0.0,0.0,0.0,0.0,0.0,0.0,0.0,0.0,0.0,0.0,0.0,0.0,0.0,0.0,0.0,0.0,0.0,0.0,0.0,0.0,0.0,0.0,0.0,0.0,0.0,0.0,0.0,0.0,0.0,0.0,0.0,0.0,0.0,0.0,0.0,0.0,0.0,0.0,0.0,0.0,0.0,0.0,0.0,0.0,0.0,0.0,0.0,0.0,0.0,0.0,-1.6994,-1.8384,-1.996,-2.167,-2.1817,-2.1817,-2.1777,-2.1002,-1.9466,0.0,0.0,0.0,0.0,0.0,0.0,0.0,0.0,0.0,0.0,0.0,0.0,0.0,0.0,0.0,0.0,0.0,0.0,0.0,0.0,0.0,0.0,0.0,0.0,0.0,0.0,0.0,0.0,0.0,0.0,0.0,0.0,0.0,0.0,0.0,0.0,0.0,0.0,0.0,0.0,0.0,-1.5832,-1.5204,-1.5217,-1.5351,0.0,0.0,-1.5925,-1.7061,-1.6901,0.0,0.0,0.0,0.0,0.0,0.0,0.0,0.0,0.0,0.0,0.0,0.0,0.0,0.0,0.0,0.0,0.0,0.0,0.0,0.0,0.0,0.0,0.0,0.0,0.0,0.0,0.0,0.0,0.0,0.0,0.0,0.0,0.0,0.0,0.0,0.0,0.0,0.0,0.0,0.0,0.0,0.0,0.0,0.0,0.0,0.0,0.0,0.0,0.0,0.0,0.0,0.0,0.0,0.0,0.0,-1.5885,-1.7395,-1.9225,-2.0748,-2.1924,-2.1991,-2.1991,-2.1977,-2.1296,-1.9733,0.0,0.0,0.0,0.0,0.0,0.0,0.0,0.0,0.0,0.0,0.0,0.0,0.0,0.0,0.0,0.0,0.0,0.0,0.0,0.0,0.0,0.0,0.0,0.0,0.0,0.0,0.0,0.0,0.0,0.0,0.0,0.0,0.0,0.0,0.0,0.0,0.0,0.0,0.0,0.0,0.0,0.0,-1.7368,-1.6847,0.0,0.0,0.0,-1.6754,-1.7261,0.0,0.0,0.0,0.0,0.0,0.0,0.0,0.0,0.0,0.0,0.0,0.0,0.0,0.0,0.0,0.0,0.0,0.0,0.0,0.0,0.0,0.0,0.0,0.0,0.0,0.0,0.0,0.0,0.0,0.0,0.0,0.0,0.0,0.0,0.0,0.0,0.0,0.0,0.0,0.0,0.0,0.0,0.0,0.0,0.0,0.0,0.0,0.0,0.0,0.0,0.0,0.0,0.0,0.0,0.0,0.0,0.0,-1.7716,-2.0174,-2.1724,-2.2298,-2.2392,-2.2392,-2.2311,-2.167,0.0,0.0,0.0,0.0,0.0,0.0,0.0,0.0,0.0,0.0,0.0,0.0,0.0,0.0,0.0,0.0,0.0,0.0,0.0,0.0,0.0,0.0,0.0,0.0,0.0,0.0,0.0,-0.7896,0.0,0.0,0.0,0.0,0.0,0.0,0.0,0.0,0.0,0.0,0.0,0.0,0.0,0.0,-1.7181,-1.8798,-1.8143,-1.7742,0.0,0.0,-1.7662,-1.7889,-1.7916,-1.7542,0.0,0.0,0.0,0.0,0.0,0.0,0.0,0.0,0.0,0.0,0.0,0.0,0.0,0.0,0.0,0.0,0.0,0.0,0.0,0.0,0.0,0.0,0.0,0.0,0.0,0.0,0.0,0.0,0.0,0.0,0.0,0.0,0.0,0.0,0.0,0.0,0.0,0.0,0.0,0.0,0.0,0.0,0.0,0.0,0.0,0.0,0.0,0.0,0.0,0.0,0.0,0.0,0.0,0.0,-1.7114,-1.8076,-2.0869,-2.2619,-2.322,-2.3514,-2.3527,-2.3233,-2.2392,-2.0561,0.0,0.0,0.0,0.0,0.0,0.0,0.0,0.0,0.0,0.0,0.0,0.0,0.0,0.0,0.0,0.0,0.0,0.0,0.0,0.0,0.0,0.0,0.0,0.0,0.0,0.0,0.0,0.0,0.0,0.0,0.0,0.0,0.0,0.0,0.0,0.0,0.0,0.0,0.0,0.0,0.0,-1.674,-1.7943,-1.8277,-1.8798,0.0,-1.9359,-1.9092,-1.9893,-2.0013,-1.9172,-1.6687,0.0,0.0,0.0,0.0,0.0,0.0,0.0,0.0,0.0,0.0,0.0,0.0,0.0,0.0,0.0,0.0,0.0,0.0,0.0,0.0,0.0,0.0,0.0,0.0,0.0,0.0,0.0,0.0,0.0,0.0,0.0,0.0,0.0,0.0,0.0,0.0,0.0,0.0,0.0,0.0,0.0,0.0,0.0,0.0,0.0,0.0,0.0,0.0,0.0,0.0,0.0,0.0,0.0,-1.7515,-1.8597,-2.1296,-2.2979,-2.3581,-2.3714,-2.3728,-2.3607,-2.2899,-2.1483,0.0,0.0,0.0,0.0,0.0,0.0,0.0,0.0,0.0,0.0,0.0,0.0,0.0,0.0,0.0,0.0,0.0,0.0,0.0,0.0,0.0,0.0,0.0,0.0,0.0,0.0,0.0,0.0,-1.2398,-1.2492,-1.1864,0.0,0.0,0.0,0.0,0.0,0.0,0.0,0.0,0.0,0.0,-1.8263,-1.9239,-1.9332,0.0,0.0,-2.0227,-2.0241,-2.0935,-2.0588,-1.988,-1.8878,-1.7862,0.0,0.0,0.0,0.0,0.0,0.0,0.0,0.0,0.0,0.0,0.0,0.0,0.0,0.0,0.0,0.0,0.0,0.0,0.0,0.0,0.0,0.0,0.0,0.0,0.0,0.0,0.0,0.0,0.0,0.0,0.0,0.0,0.0,0.0,0.0,0.0,0.0,0.0,0.0,0.0,0.0,0.0,0.0,0.0,0.0,0.0,0.0,0.0,0.0,0.0,0.0,0.0,-1.7956,-1.9065,-2.183,-2.346,-2.3888,-2.3995,-2.3981,-2.3888,-2.3407,-2.2258,0.0,0.0,0.0,0.0,0.0,0.0,0.0,0.0,0.0,0.0,0.0,0.0,0.0,0.0,0.0,0.0,0.0,0.0,0.0,0.0,0.0,0.0,0.0,0.0,0.0,0.0,0.0,0.0,-1.3561,-1.3494,-1.2665,0.0,0.0,0.0,0.0,0.0,0.0,0.0,0.0,0.0,0.0,-1.9412,-2.0361,-2.0254,-2.0267,-2.0855,-2.0708,-2.0722,-2.1216,-2.0922,-2.0508,-2.016,0.0,0.0,0.0,0.0,0.0,0.0,0.0,0.0,0.0,0.0,0.0,0.0,0.0,0.0,0.0,0.0,0.0,0.0,0.0,0.0,0.0,0.0,0.0,0.0,0.0,0.0,0.0,-1.004,0.0,0.0,-0.8954,0.0,0.0,0.0,0.0,0.0,0.0,0.0,0.0,0.0,0.0,0.0,0.0,0.0,0.0,0.0,0.0,0.0,0.0,0.0,0.0,0.0,0.0,-1.8464,-1.9386,-2.2539,-2.4182,-2.4222,-2.4476,-2.4489,-2.4222,-2.3915,-2.2792,-2.0722,0.0,0.0,0.0,0.0,0.0,0.0,0.0,0.0,0.0,0.0,0.0,0.0,0.0,0.0,0.0,0.0,0.0,0.0,0.0,0.0,0.0,0.0,0.0,0.0,0.0,0.0,-1.1316,-1.2385,-1.324,0.0,0.0,0.0,0.0,0.0,0.0,0.0,0.0,0.0,-1.7355,-1.8611,-1.9786,-2.0935,-2.0855,-2.0909,-2.147,-2.0855,-2.0401,-2.0775,-2.1203,-2.1136,0.0,0.0,0.0,0.0,0.0,0.0,0.0,0.0,0.0,0.0,0.0,0.0,0.0,0.0,0.0,0.0,0.0,0.0,0.0,0.0,0.0,0.0,0.0,0.0,0.0,0.0,0.0,-0.9835,-1.0594,0.0,0.0,0.0,0.0,0.0,0.0,0.0,0.0,0.0,0.0,0.0,-1.6019,-1.6887,0.0,0.0,0.0,0.0,0.0,0.0,0.0,0.0,0.0,0.0,0.0,0.0,-1.9065,-2.0561,-2.314,-2.4676,-2.5064,-2.517,-2.517,-2.5077,-2.4796,-2.3487,-2.1042,0.0,0.0,0.0,0.0,0.0,0.0,0.0,0.0,0.0,0.0,0.0,0.0,0.0,0.0,0.0,0.0,0.0,0.0,0.0,0.0,0.0,0.0,0.0,0.0,0.0,-1.348,0.0,0.0,0.0,0.0,0.0,0.0,0.0,0.0,0.0,0.0,-1.6086,-1.7742,-1.8905,-1.9907,-2.0802,-2.159,-2.1951,-2.2271,0.0,0.0,0.0,0.0,0.0,0.0,0.0,0.0,0.0,0.0,0.0,0.0,0.0,0.0,-2.0187,-1.825,-1.7662,-1.7488,-1.7582,0.0,0.0,0.0,0.0,0.0,0.0,0.0,0.0,0.0,0.0,0.0,0.0,0.0,0.0,-1.0731,-1.0674,-1.0378,0.0,0.0,0.0,0.0,0.0,0.0,0.0,0.0,-1.6714,-1.7649,-1.7675,-1.845,-1.8557,-1.8103,-1.7876,-1.7048,0.0,0.0,0.0,0.0,0.0,0.0,0.0,0.0,-1.9867,-2.1724,-2.3848,-2.513,-2.5491,-2.5518,-2.5518,-2.5504,-2.5237,-2.4222,-2.2392,-2.1456,-2.0174,0.0,0.0,0.0,0.0,0.0,0.0,0.0,0.0,0.0,0.0,0.0,0.0,0.0,0.0,0.0,0.0,0.0,0.0,0.0,0.0,0.0,0.0,0.0,-1.4295,0.0,0.0,0.0,0.0,0.0,0.0,0.0,0.0,0.0,-1.5925,-1.7662,-1.9305,-2.0281,-2.1162,-2.1897,-2.2378,0.0,0.0,0.0,0.0,0.0,0.0,0.0,-2.302,-2.3794,-2.2659,-2.1657,-2.171,-2.2298,-2.2645,-2.2245,0.0,0.0,-2.0468,-1.984,-1.9746,-1.984,-2.0254,-2.0561,-2.0468,-2.1002,-2.1456,0.0,0.0,0.0,0.0,0.0,0.0,0.0,0.0,-1.158,-1.1805,0.0,-0.7771,0.0,0.0,0.0,0.0,-0.9914,-1.3308,0.0,0.0,-1.8538,-1.9985,-1.9998,-1.9998,-2.0292,-2.0544,-2.0107,-1.9706,-1.9243,-1.8023,0.0,0.0,0.0,0.0,0.0,0.0,-2.0882,-2.2899,-2.4636,-2.5531,-2.5558,-2.5545,-2.5545,-2.5545,-2.5277,-2.497,-2.4596,-2.2739,-2.1376,-2.0695,-1.7596,0.0,0.0,0.0,0.0,0.0,0.0,0.0,0.0,0.0,0.0,0.0,0.0,0.0,0.0,0.0,0.0,0.0,0.0,0.0,0.0,-1.3193,0.0,0.0,0.0,0.0,0.0,0.0,0.0,0.0,0.0,-1.8818,-1.7876,-1.8998,-2.0294,-2.1403,0.0,0.0,0.0,0.0,-2.3607,-2.4168,-2.3541,-2.3126,-2.3434,-2.3888,-2.4209,-2.4289,0.0,0.0,-2.3207,-2.4128,-2.4676,-2.3621,-2.4516,-2.497,-2.3233,-2.2445,-2.2191,-2.2432,-2.2712,-2.302,-2.334,-2.3848,-2.4529,-1.1881,0.0,0.0,0.0,0.0,-0.9391,-1.045,-1.1189,-1.0107,-1.0342,-1.1328,-0.9545,0.0,0.0,0.0,0.0,0.0,0.0,-1.3086,-1.4534,-1.5714,-1.6517,-1.713,-1.8559,-1.9358,-1.9613,-2.0773,-2.076,-1.9553,-2.089,-1.9639,-1.5992,0.0,0.0,0.0,0.0,-2.2472,-2.4088,-2.5251,-2.5932,-2.6132,-2.6146,-2.6132,-2.6146,-2.6066,-2.5785,-2.5277,-2.4489,-2.3313,-2.167,-1.9503,0.0,0.0,0.0,0.0,0.0,0.0,0.0,0.0,0.0,0.0,0.0,0.0,0.0,0.0,0.0,0.0,0.0,0.0,0.0,-1.184,-1.1426,-1.1473,0.0,0.0,0.0,0.0,0.0,0.0,0.0,0.0,0.0,-2.0252,-2.1136,-2.171,0.0,0.0,-2.3474,-2.334,-2.4222,-2.4943,-2.5104,-2.5277,0.0,-2.5491,-2.4943,-2.4796,-2.5625,-2.5732,-2.5558,-2.5144,-2.5251,-2.5277,-2.493,-2.5224,-2.5331,-2.4903,-2.4636,-2.4516,-2.4609,-2.4703,-2.477,-2.4877,-2.5104,-2.5277,-1.2272,-1.3904,-1.0484,-0.9245,-0.9717,-1.0384,-1.102,-1.1533,-0.9888,-1.0053,-1.1362,-1.0479,-0.9696,-0.8864,-0.8752,0.0,0.0,0.0,-1.2621,-1.3998,-1.489,-1.5639,-1.635,-1.7453,-1.8134,-1.849,-1.9399,-1.987,-2.0134,-2.15,-2.0788,-1.8006,0.0,-2.0481,-2.0535,-2.2124,-2.3688,-2.5104,-2.5798,-2.6213,-2.6386,-2.64,-2.64,-2.64,-2.64,-2.6159,-2.5705,-2.5291,-2.4449,-2.3086,-2.0404,-1.7984,0.0,0.0,0.0,0.0,0.0,0.0,0.0,0.0,0.0,0.0,0.0,-0.7558,-0.6999,0.0,0.0,0.0,-1.0419,-1.2055,-1.3007,-1.2096,0.0,0.0,0.0,0.0,0.0,0.0,0.0,-1.7218,-1.8221,-1.935,-2.127,-2.261,-2.3327,-2.2926,-2.3688,-2.4262,-2.4195,0.0,-2.5732,-2.5838,-2.6159,-2.64,-2.6386,-2.5798,-2.5585,-2.6266,-2.6253,-2.6132,-2.6119,-2.5972,-2.5865,-2.5865,-2.5852,-2.5865,-2.5865,-2.5852,-2.5812,-2.5718,-2.5785,-2.5852,-2.5852,-2.5865,-2.5865,-1.1664,-1.1593,-1.097,-1.0995,-1.1283,-1.1293,-1.103,-1.0751,-1.0478,-1.0478,-1.0758,-1.0772,-1.0685,-1.0419,-1.1034,0.0,-1.1388,-1.2548,-1.3294,-1.3949,-1.5496,-1.6317,-1.65,-1.6651,-1.6891,-1.7077,-1.6685,-1.8049,-2.0626,-2.0612,-2.026,-1.99,-2.1682,-2.2658,-2.2579,-2.3324,-2.4314,-2.5803,-2.6239,-2.64,-2.6426,-2.6453,-2.6453,-2.6466,-2.6453,-2.6333,-2.6026,-2.5325,-2.4887,-2.4515,-2.0719,-1.7817,-1.6444,0.0,0.0,0.0,0.0,0.0,0.0,0.0,0.0,0.0,0.0,0.0,0.0,0.0,0.0,-1.0238,-1.1338,0.0,-1.4775,-1.4023,0.0,0.0,0.0,-1.2117,-1.2548,-1.3742,-1.4913,-1.5682,0.0,0.0,-2.1107,-2.3405,-2.4644,-2.4116,-2.4661,-2.5224,-2.5451,-2.5772,-2.6119,-2.6373,-2.644,-2.6466,-2.652,-2.644,-2.6426,-2.6507,-2.6466,-2.648,-2.648,-2.6466,-2.6453,-2.6453,-2.6466,-2.6466,-2.6453,-2.6466,-2.6386,-2.6172,-2.6239,-2.6373,-2.6346,-2.6373,-2.6413,-1.155,-1.153,-1.1489,-1.1475,-1.1518,-1.1546,-1.1309,-1.1056,-1.1056,-1.1056,-1.1063,-1.1324,-1.1379,-1.1246,-1.1746,-1.1934,-1.1938,-1.2158,-1.2482,-1.264,-1.317,-1.3446,-1.3635,-1.4985,-1.5754,-1.5789,-1.7038,-1.7321,-1.6897,-1.8548,-1.8667,-1.7539,-1.9532,-2.007,-1.9094,-2.1534,-2.3176,-2.3854,-2.5542,-2.6507,-2.672,-2.6934,-2.7068,-2.7054,-2.7054,-2.6921,-2.6627,-2.4648,-2.409,-2.5152,-2.0957,-1.8186,-1.7735,-1.4168,0.0,0.0,0.0,0.0,0.0,0.0,0.0,0.0,0.0,-0.8863,-0.7759,0.0,-0.9312,0.0,-1.092,-1.1705,-1.2225,-1.1705,0.0,0.0,-1.1924,-1.2708,-1.4122,-1.545,-1.6539,-1.7331,-1.854,-1.9312,-1.9264,-2.1665,-2.3164,-2.3043,-2.4714,-2.5611,-2.5291,-2.6026,-2.664,-2.672,-2.6907,-2.7054,-2.7054,-2.7054,-2.7054,-2.7054,-2.7054,-2.7054,-2.7068,-2.7068,-2.7068,-2.7054,-2.7054,-2.7054,-2.7054,-2.7054,-2.7121,-2.7201,-2.6827,-2.64,-2.64,-2.6573,-2.6787,-1.206,-1.206,-1.206,-1.2017,-1.2008,-1.1858,-1.1708,-1.1558,-1.1415,-1.1415,-1.1572,-1.1798,-1.1887,-1.1969,-1.2346,-1.2529,-1.2543,-1.2313,-1.2298,-1.2366,-1.2528,-1.2637,-1.2705,-1.3789,-1.4258,-1.4251,-1.5335,-1.5886,-1.5914,-1.7199,-1.7557,-1.663,-1.7964,-1.7783,-1.6324,-2.0623,-2.3117,-2.33,-2.5654,-2.6867,-2.7014,-2.7175,-2.7081,-2.6707,-2.7068,-2.7001,-2.6453,-2.4394,-2.3452,-2.3947,-1.9573,-1.6936,-1.6764,-1.3773,-1.1713,0.0,0.0,0.0,0.0,0.0,0.0,0.0,0.0,0.0,0.0,0.0,-0.9564,-1.0012,-1.0968,-1.1518,-1.1364,-1.134,-1.1328,-1.1409,-1.2013,-1.279,-1.3821,-1.4538,-1.5252,-1.5734,-1.7042,-1.7826,-1.7752,-1.9964,-2.1479,-2.1479,-2.2705,-2.4099,-2.57,-2.6547,-2.7068,-2.7201,-2.7362,-2.7522,-2.7629,-2.7655,-2.7655,-2.7655,-2.7655,-2.7655,-2.7655,-2.7655,-2.7655,-2.7655,-2.7655,-2.7655,-2.7655,-2.7655,-2.7709,-2.7776,-2.7509,-2.7201,-2.7175,-2.7295,-2.7468,-1.2484,-1.2491,-1.2491,-1.2491,-1.2491,-1.2333,-1.2149,-1.2094,-1.1802,-1.1821,-1.2149,-1.1998,-1.2155,-1.2498,-1.2789,-1.3006,-1.302,-1.2683,-1.2657,-1.2786,-1.2807,-1.2895,-1.3044,-1.3051,-1.3057,-1.3071,-1.3071,-1.4099,-1.6008,-1.6155,-1.6311,-1.6475,-1.6639,-1.5694,-1.4145,-1.9717,-2.2841,-2.3085,-2.5338,-2.6423,-2.6423,-2.6449,-2.6125,-2.5438,-2.6125,-2.6164,-2.5268,-2.3537,-2.2522,-2.2082,-1.7636,-1.5002,-1.5086,-1.2932,-1.1457,0.0,-1.0772,0.0,0.0,0.0,0.0,0.0,0.0,0.0,0.0,-1.0609,-1.0609,-1.0276,-1.1389,-1.1959,-1.1572,-1.2026,-1.2345,-1.2352,-1.2494,-1.2589,-1.2596,-1.2876,-1.3179,-1.3003,-1.5062,-1.652,-1.6328,-1.8321,-1.9765,-1.9775,-2.0266,-2.2168,-2.5552,-2.6509,-2.6744,-2.7363,-2.7689,-2.8136,-2.8364,-2.8404,-2.8404,-2.839,-2.8417,-2.8364,-2.8404,-2.8404,-2.839,-2.839,-2.8417,-2.8404,-2.8377,-2.839,-2.8404,-2.8497,-2.8484,-2.8364,-2.8123,-2.811,-2.8217,-1.2463,-1.247,-1.247,-1.2628,-1.2951,-1.2793,-1.2583,-1.2257,-1.2366,-1.2333,-1.244,-1.1959,-1.2024,-1.2463,-1.282,-1.3158,-1.3331,-1.315,-1.3064,-1.3091,-1.322,-1.3356,-1.3498,-1.3505,-1.3566,-1.3668,-1.3675,-1.3858,-1.4387,-1.4245,-1.4274,-1.4472,-1.433,-1.4117,-1.3851,0.0,0.0,0.0,-2.1514,-2.1889,-2.19,-2.2083,-2.2116,-2.1986,-2.2129,0.0,-2.1673,-1.9711,-1.9193,-2.0181,-1.6336,0.0,0.0,0.0,0.0,0.0,0.0,0.0,0.0,0.0,0.0,0.0,-1.1402,-1.126,-1.1043,-1.1687,-1.1898,-1.1402,-1.1993,-1.2386,-1.2305,-1.2501,-1.2644,-1.2657,-1.2888,-1.3044,-1.3212,-1.4614,-1.5217,-1.3638,-1.5412,-1.6186,-1.4747,-1.6213,-1.7661,-1.7847,-1.9344,-2.1737,-2.4444,-2.4855,-2.5023,-2.5277,-2.7624,-2.9232,-2.9539,-2.9553,-2.9513,-2.9579,-2.9579,-2.9566,-2.9553,-2.9553,-2.9566,-2.9566,-2.9579,-2.9566,-2.9566,-2.9579,-2.9619,-2.9887,-2.9913,-2.9579,-2.8417,-2.8364,-2.8577,-1.301,-1.301,-1.301,-1.318,0.0,-1.3425,-1.3166,-1.2942,-1.2793,-1.2931,-1.2847,-1.2357,-1.2435,-1.2903,-1.3064,-1.3315,-1.3631,-1.3535,-1.3437,-1.3505,-1.358,-1.3661,-1.3736,-1.3736,-1.377,-1.3838,-1.3838,-1.3838,-1.3844,-1.3919,-1.3953,-1.3953,-1.4027,-1.4034,-1.3973,-1.5388,-1.7538,-2.0888,-2.0878,-2.11,-2.1211,-2.1312,-2.1048,-2.0747,-2.1139,0.0,0.0,0.0,0.0,0.0,0.0,0.0,0.0,-1.3176,0.0,-1.2264,-1.1843,-1.1626,-1.1701,-1.1708,-1.1972,-1.2549,-1.2603,-1.2447,-1.2074,-1.24,-1.2522,-1.2311,-1.2562,-1.2725,-1.2732,-1.2861,-1.2949,-1.2963,-1.3214,-1.3397,-1.3576,-1.4514,-1.4769,-1.395,-1.4689,-1.4902,-1.3899,-1.4707,-1.5653,-1.5848,-1.7932,-1.9563,-2.0091,-2.2858,-2.5389,-2.7172,-2.8795,-3.0167,-3.0314,-3.0354,-3.0354,-3.0354,-3.0354,-3.0354,-3.0354,-3.0354,-3.0354,-3.0354,-3.0354,-3.0354,-3.0354,-3.0354,-3.0394,-3.0528,-3.0568,-3.0381,-2.9579,-2.9579,-2.9726,-1.3485,-1.3478,-1.3485,-1.3652,-1.3832,-1.3957,-1.3844,-1.3641,-1.3275,0.0,0.0,-1.2943,-1.301,-1.3459,-1.3459,-1.3604,-1.3837,-1.3668,-1.3729,-1.3838,-1.3838,-1.3858,-1.3878,-1.3905,-1.3933,-1.396,-1.3987,-1.4,-1.4007,-1.4129,-1.419,-1.4204,-1.4319,-1.438,-1.4387,-1.4496,-1.6339,-2.0084,-2.0185,-2.0233,-2.0393,-2.0403,-1.9981,-1.9303,-1.999,-2.0037,-1.9377,-1.81,-1.7112,-1.6705,-1.4572,-1.337,-1.3207,-1.3051,-1.3051,-1.3234,-1.3227,-1.3227,-1.3247,-1.3254,-1.3315,-1.3464,-1.3478,-1.3356,-1.3064,-1.2922,-1.2915,-1.3064,-1.3078,-1.3091,-1.3119,-1.322,-1.3288,-1.3295,-1.3512,-1.3661,-1.3668,-1.3763,-1.3824,-1.3844,-1.3858,-1.3892,-1.3933,-1.4061,-1.4163,-1.4562,-1.6148,-1.7306,-1.6606,-2.0629,-2.4969,-2.7585,-2.8888,-3.0095,-3.0173,-3.0757,-3.0942,-3.0942,-3.0942,-3.0955,-3.0955,-3.0942,-3.0942,-3.0942,-3.0942,-3.0942,-3.0955,-3.0955,-3.0942,-3.0942,-3.0942,-3.0942,-3.0942,-3.0942,-3.0875,-1.4131,-1.4138,-1.4138,-1.4138,-1.4309,-1.4159,-1.3988,-1.3804,-1.3566,-1.3369,-1.3369,-1.3369,-1.3376,-1.3396,-1.3926,-1.4117,-1.381,-1.381,-1.3824,-1.3838,-1.3838,-1.3912,-1.4041,-1.4177,-1.4299,-1.4421,-1.4543,-1.4611,-1.4618,-1.4631,-1.4645,-1.4645,-1.4672,-1.4672,-1.4679,-1.4699,-1.5132,-1.5802,-1.5535,-1.5406,-1.5427,-1.5607,-1.5399,-1.5341,-1.5528,-1.5607,-1.5543,-1.5223,-1.5028,-1.5118,-1.4723,-1.4394,-1.4129,-1.3953,-1.379,-1.358,-1.3444,-1.3424,-1.3553,-1.3566,-1.3627,-1.3763,-1.3777,-1.3654,-1.337,-1.3322,-1.337,-1.3519,-1.3519,-1.3587,-1.3695,-1.3715,-1.3715,-1.3729,-1.3777,-1.381,-1.3817,-1.3844,-1.3878,-1.3885,-1.396,-1.4102,-1.4224,-1.436,-1.4496,-1.4611,-1.5251,-1.5949,-1.8152,-1.9406,-2.118,-2.3686,-2.6216,-2.7594,-2.8747,-3.0178,-3.1328,-3.1543,-3.153,-3.1517,-3.1543,-3.1543,-3.1543,-3.1557,-3.1543,-3.1543,-3.1543,-3.1543,-3.1557,-3.1543,-3.1543,-3.1543,-3.1543,-3.1543,-3.1396,-1.427,-1.4283,-1.4352,-1.4386,-1.4569,-1.4476,-1.451,-1.4326,-1.3965,-1.3779,-1.3673,-1.3838,-1.3885,-1.3953,-1.4228,-1.4333,-1.4204,-1.4122,-1.4177,-1.4326,-1.4333,-1.4367,-1.4434,-1.4509,-1.4577,-1.4638,-1.4706,-1.474,-1.474,-1.474,-1.474,-1.474,-1.474,-1.478,-1.4862,-1.4869,-1.4936,-1.5079,-1.4869,-1.4801,-1.4875,-1.4875,-1.4875,-1.4875,-1.495,-1.4977,-1.4977,-1.4903,-1.4869,-1.4869,-1.478,-1.4679,-1.455,-1.4468,-1.434,-1.4122,-1.3973,-1.3885,-1.3865,-1.379,-1.377,-1.3838,-1.3838,-1.3783,-1.3654,-1.3641,-1.3668,-1.3736,-1.3743,-1.377,-1.3831,-1.3838,-1.3838,-1.3838,-1.3912,-1.4,-1.4082,-1.4163,-1.4238,-1.4312,-1.4387,-1.4462,-1.4529,-1.4672,-1.478,-1.4875,-1.5045,-1.6263,-1.8822,-1.8399,-1.9438,-2.4535,-2.6862,-2.8404,-2.9729,-3.1125,-3.1971,-3.2104,-3.2011,-3.1984,-3.2091,-3.2144,-3.2131,-3.2144,-3.2144,-3.2144,-3.2131,-3.2144,-3.2144,-3.2144,-3.2144,-3.2144,-3.2144,-3.2144,-3.1931,-1.4394,-1.4229,-1.433,-1.4563,-1.4757,-1.4692,-1.474,-1.474,-1.4544,-1.4296,-1.4082,-1.4222,-1.429,-1.438,-1.4277,-1.4421,-1.4702,-1.4448,-1.4516,-1.4726,-1.474,-1.474,-1.4746,-1.4774,-1.4794,-1.4801,-1.4821,-1.4841,-1.4841,-1.4841,-1.4841,-1.4835,-1.4841,-1.4916,-1.5065,-1.5065,-1.514,-1.5269,-1.5181,-1.516,-1.5228,-1.5269,-1.5289,-1.5282,-1.5289,-1.5289,-1.5276,-1.5181,-1.512,-1.5113,-1.4977,-1.4875,-1.4841,-1.4808,-1.4726,-1.4577,-1.4462,-1.4346,-1.4231,-1.4109,-1.4041,-1.4041,-1.4041,-1.4041,-1.4041,-1.4041,-1.3994,-1.3919,-1.3926,-1.396,-1.4014,-1.4048,-1.4041,-1.4048,-1.415,-1.4278,-1.4387,-1.4496,-1.4604,-1.4719,-1.474,-1.4746,-1.4841,-1.497,-1.512,-1.5276,-1.5554,-1.6593,-1.8074,-1.7261,-1.9321,-2.3856,-2.6699,-2.8168,-3.0792,-3.1812,-3.2291,-3.2519,-3.2358,-3.2318,-3.2452,-3.2519,-3.2532,-3.2492,-3.2519,-3.2492,-3.2519,-3.2519,-3.2505,-3.2478,-3.2465,-3.231,-3.1477,-3.1359,-3.1868,-1.4322,-1.4322,-1.4335,-1.4719,-1.5104,-1.4746,-1.4753,-1.4746,-1.474,-1.4719,-1.4652,-1.447,-1.4282,-1.4302,-1.4645,-1.4665,-1.4719,-1.4706,-1.4719,-1.4746,-1.474,-1.474,-1.4767,-1.4889,-1.495,-1.4964,-1.5072,-1.5126,-1.5126,-1.514,-1.514,-1.514,-1.514,-1.5215,-1.535,-1.5364,-1.5438,-1.5588,-1.5581,-1.5513,-1.5404,-1.5527,-1.5594,-1.5594,-1.5594,-1.5594,-1.5574,-1.5588,-1.5574,-1.5567,-1.5418,-1.5282,-1.5153,-1.5025,-1.4882,-1.474,-1.4706,-1.4692,-1.4672,-1.4665,-1.4631,-1.4658,-1.4624,-1.4624,-1.4624,-1.4638,-1.4475,-1.419,-1.4183,-1.4306,-1.4434,-1.455,-1.459,-1.457,-1.4618,-1.4685,-1.4699,-1.4713,-1.4726,-1.4733,-1.4828,-1.4841,-1.514,-1.5316,-1.5547,-1.5866,-1.6056,-1.6398,-1.6834,-1.6738,-1.7451,-2.0837,-2.3163,-2.5719,-2.845,-3.1099,-3.1946,-3.2377,-3.2545,-3.2559,-3.2612,-3.2625,-3.2559,-3.2706,-3.2612,-3.2639,-3.2612,-3.2545,-3.2585,-3.2666,-3.2443,-3.1972,-2.9763,-2.9327,-3.0144,-1.474,-1.4753,-1.4841,-1.4923,-1.519,-1.5004,-1.4997,-1.4997,-1.4997,-1.5052,-1.4939,-1.4946,-1.4805,-1.4746,-1.4929,-1.4977,-1.5059,-1.4875,-1.4923,-1.4997,-1.4997,-1.4997,-1.5011,-1.5059,-1.5099,-1.5106,-1.5248,-1.5316,-1.5337,-1.5404,-1.5452,-1.5452,-1.5452,-1.5486,-1.554,-1.5547,-1.5574,-1.5635,-1.5723,-1.5737,-1.5676,-1.5649,-1.5635,-1.5635,-1.5635,-1.5635,-1.5635,-1.5635,-1.5635,-1.5635,-1.5581,-1.552,-1.5459,-1.5398,-1.5296,-1.5147,-1.497,-1.4835,-1.4746,-1.474,-1.474,-1.474,-1.474,-1.474,-1.474,-1.474,-1.4652,-1.4523,-1.4529,-1.459,-1.4645,-1.4706,-1.474,-1.474,-1.474,-1.4808,-1.4984,-1.5004,-1.5086,-1.5337,-1.5398,-1.5466,-1.5676,-1.5845,-1.6049,-1.6293,-1.6408,-1.6442,-1.6442,-1.649,-1.7763,-2.0069,-2.1643,-2.3231,-2.6125,-2.8755,-3.023,-3.0938,-3.1905,-3.2826,-3.3,-3.3053,-3.3066,-3.304,-3.3013,-3.3013,-3.3093,-3.3053,-3.3053,-3.3026,-3.2841,-3.2233,-2.9403,-2.9072,-2.9285,-1.5243,-1.5264,-1.5217,-1.5368,-1.5303,-1.5309,-1.5309,-1.5309,-1.5303,-1.5174,-1.5267,-1.5472,-1.5492,-1.5396,-1.5327,-1.5183,-1.5272,-1.5092,-1.5167,-1.5296,-1.5309,-1.5309,-1.5309,-1.5309,-1.5309,-1.5323,-1.5418,-1.5472,-1.5486,-1.5581,-1.5635,-1.5635,-1.5635,-1.5655,-1.5696,-1.5696,-1.5716,-1.5771,-1.5866,-1.5913,-1.59,-1.5811,-1.5764,-1.5764,-1.5764,-1.5764,-1.5757,-1.5764,-1.5757,-1.5757,-1.5723,-1.5696,-1.5696,-1.5662,-1.5588,-1.5472,-1.5276,-1.5106,-1.4991,-1.4984,-1.4984,-1.4991,-1.4984,-1.4984,-1.4984,-1.4984,-1.4984,-1.4991,-1.5018,-1.5018,-1.4814,-1.4875,-1.4923,-1.493,-1.4984,-1.514,-1.5337,-1.5391,-1.556,-1.5859,-1.5859,-1.5995,-1.6171,-1.632,-1.6469,-1.6612,-1.6653,-1.6646,-1.6646,-1.6659,-1.7519,-1.945,-1.9878,-2.1302,-2.4148,-2.6382,-2.7908,-2.9403,-3.0964,-3.2151,-3.2973,-3.34,-3.34,-3.324,-3.336,-3.3387,-3.3293,-3.3347,-3.3414,-3.32,-3.2786,-3.1353,-2.8223,-2.7669,-2.582,-1.5167,-1.5187,-1.5526,-1.5664,-1.5615,-1.5608,-1.5608,-1.5588,-1.5401,-1.5222,-1.5228,-1.5828,-1.6015,-1.5966,-1.5425,-1.5377,-1.5581,-1.5384,-1.5452,-1.5581,-1.5594,-1.5608,-1.5622,-1.5622,-1.5608,-1.5581,-1.5608,-1.5635,-1.5635,-1.5649,-1.5635,-1.5649,-1.5662,-1.5716,-1.5825,-1.5845,-1.5913,-1.6022,-1.6062,-1.6076,-1.6076,-1.6062,-1.6062,-1.6049,-1.6056,-1.6042,-1.6049,-1.6056,-1.6049,-1.6056,-1.592,-1.5845,-1.5832,-1.5716,-1.5642,-1.5628,-1.5608,-1.5588,-1.5567,-1.5547,-1.5554,-1.5574,-1.5547,-1.5581,-1.5554,-1.5554,-1.5554,-1.5588,-1.5662,-1.554,-1.514,-1.5255,-1.5377,-1.5398,-1.5622,-1.5757,-1.5811,-1.5906,-1.6022,-1.609,-1.613,-1.6246,-1.6476,-1.6639,-1.6768,-1.6883,-1.6944,-1.6931,-1.691,-1.6931,-1.714,-1.7356,-1.7775,-1.9029,-2.3765,-2.5757,-2.6799,-2.8269,-2.9486,-3.0735,-3.2171,-3.3414,-3.3427,-3.3454,-3.3534,-3.3534,-3.3454,-3.344,-3.348,-3.2878,-3.1239,-2.9377,-2.7144,-2.3597,-2.1544,-1.5274,-1.5281,-1.5732,-1.5987,-1.5835,-1.5642,-1.5635,-1.5635,-1.5442,-1.5488,-1.5562,-1.5973,-1.6175,-1.6175,-1.5918,-1.5649,-1.5567,-1.556,-1.5588,-1.5635,-1.5635,-1.5635,-1.5635,-1.5635,-1.5635,-1.5649,-1.573,-1.5832,-1.592,-1.592,-1.5927,-1.592,-1.592,-1.5954,-1.5995,-1.5995,-1.6029,-1.609,-1.6171,-1.6225,-1.6246,-1.6313,-1.632,-1.6225,-1.613,-1.6083,-1.6083,-1.6083,-1.6083,-1.6083,-1.6029,-1.6001,-1.5988,-1.5859,-1.5778,-1.5771,-1.5689,-1.5635,-1.5635,-1.5635,-1.5683,-1.5764,-1.5778,-1.5825,-1.59,-1.592,-1.592,-1.5934,-1.5961,-1.5866,-1.5778,-1.5784,-1.5839,-1.5859,-1.5934,-1.6049,-1.6123,-1.6198,-1.63,-1.6469,-1.6592,-1.6707,-1.6761,-1.6863,-1.6917,-1.6965,-1.6978,-1.6978,-1.6978,-1.6978,-1.6978,-1.6978,-1.6985,-1.7636,-1.9399,-2.3428,-2.583,-2.7465,-2.8913,-3.1504,-3.3413,-3.3694,-3.3734,-3.3881,-3.3895,-3.3678,-3.3448,-3.3127,-3.314,-3.2608,-3.0732,-2.7491,-2.6047,-2.2726,-2.003,-1.5468,-1.5509,-1.5911,-1.614,-1.6182,-1.5784,-1.5784,-1.5784,-1.5778,-1.5832,-1.5716,-1.5927,-1.6131,-1.6124,-1.6131,-1.6083,-1.5778,-1.5737,-1.573,-1.5778,-1.5784,-1.5784,-1.5784,-1.5778,-1.5778,-1.5798,-1.5872,-1.6022,-1.6205,-1.6225,-1.6279,-1.6374,-1.6374,-1.6374,-1.6374,-1.6374,-1.6374,-1.6395,-1.6476,-1.653,-1.6537,-1.6619,-1.6598,-1.6463,-1.6347,-1.6218,-1.6096,-1.6083,-1.6083,-1.6083,-1.6083,-1.6083,-1.6069,-1.5988,-1.5927,-1.5913,-1.5839,-1.5778,-1.5791,-1.5825,-1.59,-1.5995,-1.6049,-1.6117,-1.6212,-1.6225,-1.6225,-1.6232,-1.6279,-1.63,-1.6307,-1.6341,-1.6313,-1.6218,-1.6239,-1.6334,-1.6435,-1.6503,-1.6619,-1.6775,-1.6883,-1.6958,-1.6978,-1.6971,-1.6978,-1.6978,-1.6978,-1.6978,-1.6978,-1.6978,-1.7005,-1.7039,-1.706,-1.7127,-1.8477,-2.139,-2.4468,-2.6327,-2.8358,-3.1334,-3.3068,-3.3363,-3.3673,-3.405,-3.391,-3.3691,-3.3201,-3.2866,-3.2275,-3.1755,-2.8499,-2.4803,-2.3345,-2.188,-1.9364,-1.6133,-1.6048,-1.6055,-1.6131,-1.6035,-1.6042,-1.6062,-1.6049,-1.6049,-1.6042,-1.6049,-1.6069,-1.6056,-1.6069,-1.6056,-1.6069,-1.6042,-1.5934,-1.5934,-1.6035,-1.6042,-1.6049,-1.6042,-1.6035,-1.6049,-1.6062,-1.6083,-1.6239,-1.649,-1.6524,-1.6653,-1.6897,-1.6897,-1.6863,-1.6951,-1.689,-1.6924,-1.691,-1.6917,-1.6951,-1.6985,-1.6971,-1.691,-1.6768,-1.6741,-1.6551,-1.6151,-1.6117,-1.6123,-1.611,-1.6096,-1.609,-1.6083,-1.6062,-1.6069,-1.6062,-1.6062,-1.6069,-1.6076,-1.6171,-1.6212,-1.6273,-1.6402,-1.6435,-1.6449,-1.649,-1.6503,-1.6517,-1.6625,-1.672,-1.6734,-1.6815,-1.6748,-1.6429,-1.6558,-1.67,-1.6754,-1.687,-1.6971,-1.6965,-1.6978,-1.6978,-1.6978,-1.6978,-1.6985,-1.7005,-1.7005,-1.7026,-1.7046,-1.7053,-1.7073,-1.7154,-1.7202,-1.7256,-1.8402,-1.9754,-2.2495,-2.5229,-2.7687,-3.0208,-3.1304,-3.1792,-3.1634,-3.1978,-3.1819,-3.1598,-3.0515,-3.0002,-2.9119,-2.8103,-2.4635,-2.292,-2.2078,-2.0807,-1.8904,-1.6172,-1.6206,-1.6213,-1.6035,-1.6076,-1.6083,-1.6083,-1.6083,-1.6083,-1.6083,-1.6083,-1.6083,-1.6083,-1.6083,-1.6083,-1.6144,-1.6433,-1.6185,-1.6137,-1.6096,-1.609,-1.609,-1.609,-1.6083,-1.6137,-1.6447,-1.6341,-1.6483,-1.6673,-1.6788,-1.6897,-1.6965,-1.6992,-1.6978,-1.7005,-1.6978,-1.6978,-1.6992,-1.708,-1.7127,-1.7134,-1.7229,-1.7209,-1.7073,-1.7053,-1.6931,-1.6714,-1.6497,-1.6388,-1.6381,-1.6293,-1.6191,-1.611,-1.6083,-1.6083,-1.6083,-1.6083,-1.6083,-1.6083,-1.6137,-1.6232,-1.63,-1.6368,-1.6422,-1.6524,-1.6632,-1.6686,-1.67,-1.6815,-1.691,-1.6917,-1.6944,-1.691,-1.6788,-1.6856,-1.691,-1.6924,-1.6958,-1.6971,-1.6978,-1.6978,-1.6978,-1.6985,-1.6992,-1.7039,-1.7114,-1.7127,-1.7154,-1.7243,-1.7249,-1.729,-1.7344,-1.7365,-1.7405,-1.815,-1.9297,-2.1234,-2.3554,-2.6064,-2.8158,-2.9477,-2.9932,-2.9779,-2.9614,-2.9671,-2.9046,-2.7962,-2.7079,-2.6388,-2.5545,-2.3618,-2.2526,-2.164,-2.0139,-1.8213,-1.6083,-1.6083,-1.6083,-1.6117,-1.6164,-1.6171,-1.6198,-1.6239,-1.6038,-1.6246,-1.6246,-1.6045,-1.6038,-1.6038,-1.6246,-1.63,-1.6388,-1.6388,-1.6341,-1.6252,-1.6246,-1.6246,-1.6246,-1.6246,-1.6327,-1.6673,-1.6564,-1.6741,-1.6998,-1.71,-1.7202,-1.729,-1.7311,-1.7317,-1.7311,-1.7311,-1.7311,-1.7324,-1.7405,-1.7439,-1.746,-1.7534,-1.7514,-1.7385,-1.7358,-1.729,-1.7141,-1.6951,-1.6775,-1.6619,-1.6463,-1.6341,-1.6252,-1.6252,-1.6246,-1.6246,-1.6246,-1.6252,-1.6252,-1.6388,-1.6449,-1.6551,-1.6659,-1.6761,-1.6856,-1.6958,-1.6992,-1.7019,-1.7032,-1.7087,-1.7127,-1.7087,-1.7087,-1.7141,-1.7087,-1.7087,-1.7121,-1.7141,-1.7148,-1.7161,-1.7154,-1.7148,-1.7141,-1.7148,-1.7175,-1.7263,-1.7277,-1.729,-1.7392,-1.7405,-1.7439,-1.748,-1.7507,-1.7582,-1.7916,-1.882,-2.0139,-2.205,-2.3943,-2.5858,-2.7589,-2.7611,-2.7642,-2.7674,-2.7717,-2.6633,-2.5537,-2.488,-2.4205,-2.3169,-2.21,-2.0786,-1.9664,-1.9235,-1.7724,-1.6096,-1.611,-1.611,-1.6205,-1.6313,-1.632,-1.6381,-1.649,-1.6292,-1.6279,-1.6286,-1.6266,-1.6279,-1.6292,-1.6469,-1.6497,-1.6537,-1.6537,-1.6571,-1.6571,-1.6578,-1.6564,-1.6517,-1.651,-1.6605,-1.6968,-1.6809,-1.7026,-1.7365,-1.7426,-1.7582,-1.7765,-1.7772,-1.784,-1.7772,-1.784,-1.7792,-1.7772,-1.7812,-1.7812,-1.7819,-1.784,-1.7785,-1.765,-1.7636,-1.7582,-1.746,-1.7385,-1.7182,-1.6815,-1.6632,-1.6558,-1.6537,-1.6537,-1.6551,-1.6551,-1.6544,-1.6544,-1.6605,-1.6741,-1.6897,-1.6917,-1.7107,-1.7392,-1.727,-1.7256,-1.727,-1.727,-1.7236,-1.7249,-1.7317,-1.7277,-1.7277,-1.7378,-1.729,-1.727,-1.7385,-1.7399,-1.7365,-1.7378,-1.7412,-1.7412,-1.7372,-1.7378,-1.7399,-1.7426,-1.7433,-1.7453,-1.7487,-1.7534,-1.7541,-1.7582,-1.765,-1.7697,-1.7792,-1.8019,-1.9338,-1.9974,-2.1464,-2.277,-2.4288,-2.4514,-2.4316,-2.4778,-2.5014,-2.4155,-2.3066,-2.2378,-2.1295,-2.0216,-1.9148,-1.8074,-1.7846,-1.7826,-1.7812,-1.6313,-1.6618,-1.6199,-1.6219,-1.6673,-1.6673,-1.649,-1.6524,-1.6524,-1.6333,-1.6524,-1.6728,-1.6749,-1.6524,-1.6742,-1.6797,-1.6879,-1.6693,-1.6829,-1.6992,-1.7012,-1.6883,-1.6941,-1.67,-1.6836,-1.7277,-1.7182,-1.7365,-1.7582,-1.7677,-1.7772,-1.7853,-1.786,-1.786,-1.786,-1.786,-1.786,-1.786,-1.786,-1.786,-1.786,-1.786,-1.7846,-1.7819,-1.7799,-1.7779,-1.7731,-1.7643,-1.7378,-1.6965,-1.689,-1.6802,-1.6727,-1.6802,-1.6856,-1.6856,-1.6863,-1.6863,-1.6876,-1.6944,-1.6985,-1.6978,-1.7114,-1.7093,-1.71,-1.7195,-1.7188,-1.7161,-1.7222,-1.7324,-1.729,-1.7331,-1.7433,-1.7541,-1.746,-1.7392,-1.7426,-1.7419,-1.7419,-1.7419,-1.7433,-1.7439,-1.7446,-1.7453,-1.7487,-1.7561,-1.7595,-1.7616,-1.7656,-1.7697,-1.7711,-1.7758,-1.7806,-1.7819,-1.7846,-1.7853,-1.8074,-1.8288,-1.8928,-1.936,-2.0012,-2.0231,-2.0027,-1.9823,-2.1116,-2.0686,-2.0042,-1.9155,-1.8081,-1.786,-1.786,-1.786,-1.786,-1.7846,-1.7846,-1.6659,-1.6946,-1.6524,-1.6558,-1.6619,-1.6625,-1.6653,-1.6707,-1.6714,-1.6714,-1.6714,-1.6927,-1.6927,-1.692,-1.6934,-1.6975,-1.7051,-1.6849,-1.6944,-1.7073,-1.7148,-1.7121,-1.7046,-1.7039,-1.7161,-1.7586,-1.748,-1.7589,-1.7724,-1.7826,-1.786,-1.786,-1.786,-1.786,-1.786,-1.786,-1.786,-1.786,-1.786,-1.786,-1.786,-1.786,-1.786,-1.786,-1.786,-1.786,-1.784,-1.7724,-1.7514,-1.7297,-1.7202,-1.7121,-1.7053,-1.7114,-1.7161,-1.7168,-1.7168,-1.7161,-1.7182,-1.7216,-1.7229,-1.7202,-1.7209,-1.7216,-1.7209,-1.7243,-1.7236,-1.7222,-1.7283,-1.7331,-1.7412,-1.7521,-1.7636,-1.7711,-1.7663,-1.7602,-1.7602,-1.7616,-1.7609,-1.7609,-1.7609,-1.7602,-1.7602,-1.7602,-1.765,-1.7711,-1.7738,-1.7779,-1.7826,-1.7853,-1.786,-1.786,-1.786,-1.786,-1.7853,-1.786,-1.786,-1.786,-1.786,-1.786,-1.786,-1.786,-1.8081,-1.8302,-1.8081,-1.786,-1.786,-1.786,-1.786,-1.786,-1.786,-1.786,-1.786,-1.786,-1.786,-1.6974,-1.6995,-1.6995,-1.6865,-1.6768,-1.6775,-1.6836,-1.6951,-1.6951,-1.6951,-1.6951,-1.6971,-1.6937,-1.6985,-1.6958,-1.6998,-1.7005,-1.7032,-1.7066,-1.7154,-1.7256,-1.7351,-1.7439,-1.7399,-1.7487,-1.7847,-1.767,-1.7738,-1.7819,-1.7853,-1.786,-1.786,-1.786,-1.786,-1.786,-1.786,-1.786,-1.786,-1.786,-1.786,-1.786,-1.786,-1.786,-1.786,-1.786,-1.786,-1.7833,-1.7751,-1.7656,-1.7663,-1.7528,-1.7433,-1.7426,-1.7439,-1.7467,-1.7467,-1.7467,-1.7467,-1.748,-1.7568,-1.7602,-1.7507,-1.7582,-1.7616,-1.75,-1.7487,-1.7473,-1.7419,-1.7331,-1.7453,-1.7609,-1.7779,-1.7819,-1.7833,-1.784,-1.7853,-1.786,-1.786,-1.786,-1.786,-1.7853,-1.786,-1.786,-1.786,-1.7853,-1.7785,-1.7812,-1.7833,-1.7853,-1.786,-1.786,-1.786,-1.786,-1.786,-1.786,-1.786,-1.786,-1.786,-1.786,-1.786,-1.786,-1.786,-1.786,-1.786,-1.786,-1.786,-1.786,-1.786,-1.786,-1.786,-1.786,-1.786,-1.786,-1.786,-1.786,-1.6989,-1.7092,-1.7092,-1.6904,-1.6931,-1.6931,-1.6951,-1.6978,-1.6978,-1.6985,-1.6985,-1.6985,-1.6992,-1.6998,-1.7107,-1.7367,-1.7161,-1.7256,-1.7385,-1.7521,-1.765,-1.7724,-1.7731,-1.765,-1.7684,-1.7779,-1.7812,-1.7833,-1.786,-1.786,-1.786,-1.786,-1.786,-1.786,-1.786,-1.786,-1.786,-1.786,-1.786,-1.786,-1.786,-1.786,-1.786,-1.786,-1.786,-1.786,-1.786,-1.7833,-1.7819,-1.7779,-1.7684,-1.7595,-1.7616,-1.769,-1.7731,-1.7731,-1.7745,-1.7751,-1.7772,-1.7772,-1.7799,-1.7745,-1.7745,-1.7806,-1.7779,-1.7731,-1.769,-1.765,-1.767,-1.7684,-1.7772,-1.7833,-1.786,-1.786,-1.786,-1.786,-1.786,-1.786,-1.786,-1.786,-1.786,-1.786,-1.786,-1.786,-1.786,-1.786,-1.786,-1.786,-1.786,-1.786,-1.786,-1.786,-1.786,-1.786,-1.786,-1.786,-1.786,-1.786,-1.786,-1.786,-1.786,-1.786,-1.786,-1.786,-1.786,-1.786,-1.786,-1.786,-1.786,-1.786,-1.786,-1.786,-1.786,-1.786,-1.786,-1.691,-1.6978,-1.6978,-1.6978,-1.6978,-1.6978,-1.6978,-1.6978,-1.6978,-1.7019,-1.7073,-1.7073,-1.7121,-1.7188,-1.7263,-1.7297,-1.7311,-1.7378,-1.746,-1.7555,-1.7677,-1.7751,-1.7779,-1.7765,-1.7799,-1.786,-1.786,-1.786,-1.786,-1.786,-1.786,-1.786,-1.786,-1.786,-1.786,-1.786,-1.786,-1.786,-1.786,-1.786,-1.786,-1.786,-1.786,-1.786,-1.786,-1.786,-1.786,-1.786,-1.786,-1.7846,-1.7792,-1.7745,-1.7751,-1.7812,-1.7853,-1.786,-1.786,-1.786,-1.786,-1.786,-1.7826,-1.7772,-1.7765,-1.7711,-1.7677,-1.7656,-1.7629,-1.7575,-1.7602,-1.767,-1.7758,-1.784,-1.7853,-1.786,-1.786,-1.786,-1.786,-1.786,-1.786,-1.786,-1.786,-1.786,-1.786,-1.786,-1.786,-1.786,-1.786,-1.786,-1.786,-1.786,-1.786,-1.786,-1.786,-1.786,-1.786,-1.786,-1.786,-1.786,-1.786,-1.786,-1.786,-1.786,-1.786,-1.786,-1.786,-1.786,-1.786,-1.786,-1.786,-1.786,-1.786,-1.786,-1.786,-1.786,-1.786,-1.6978,-1.6978,-1.6978,-1.6978,-1.6978,-1.6978,-1.6998,-1.7019,-1.7012,-1.71,-1.7209,-1.7222,-1.729,-1.7392,-1.7439,-1.746,-1.7494,-1.75,-1.7561,-1.7582,-1.7677,-1.7724,-1.7745,-1.7806,-1.7846,-1.786,-1.786,-1.786,-1.786,-1.786,-1.786,-1.786,-1.786,-1.786,-1.786,-1.786,-1.786,-1.786,-1.786,-1.786,-1.786,-1.786,-1.786,-1.786,-1.786,-1.786,-1.786,-1.786,-1.786,-1.786,-1.786,-1.786,-1.786,-1.786,-1.786,-1.786,-1.786,-1.786,-1.786,-1.7853,-1.7812,-1.769,-1.769,-1.7636,-1.7561,-1.7568,-1.7575,-1.7548,-1.7582,-1.7616,-1.7677,-1.7792,-1.7853,-1.786,-1.786,-1.786,-1.786,-1.786,-1.786,-1.786,-1.786,-1.786,-1.786,-1.786,-1.786,-1.786,-1.786,-1.786,-1.786,-1.786,-1.786,-1.786,-1.786,-1.786,-1.786,-1.786,-1.786,-1.786,-1.786,-1.786,-1.786,-1.786,-1.786,-1.786,-1.786,-1.786,-1.786,-1.786,-1.786,-1.786,-1.786,-1.786,-1.786,-1.786,-1.786,-1.6978,-1.6978,-1.6978,-1.6978,-1.6978,-1.6978,-1.7053,-1.7148,-1.7154,-1.7243,-1.7372,-1.7607,-1.7621,-1.7467,-1.7792,-1.7895,-1.7731,-1.7738,-1.7751,-1.7751,-1.7799,-1.7806,-1.7812,-1.7833,-1.786,-1.786,-1.786,-1.786,-1.786,-1.786,-1.786,-1.786,-1.786,-1.786,-1.786,-1.786,-1.786,-1.786,-1.786,-1.786,-1.786,-1.786,-1.786,-1.786,-1.786,-1.786,-1.786,-1.786,-1.786,-1.786,-1.786,-1.786,-1.786,-1.786,-1.786,-1.786,-1.786,-1.786,-1.786,-1.786,-1.7853,-1.7833,-1.7812,-1.7819,-1.7779,-1.7772,-1.7731,-1.7751,-1.7758,-1.7792,-1.7819,-1.7846,-1.7853,-1.786,-1.786,-1.786,-1.786,-1.786,-1.786,-1.786,-1.786,-1.786,-1.786,-1.786,-1.786,-1.786,-1.786,-1.786,-1.786,-1.786,-1.786,-1.786,-1.786,-1.786,-1.786,-1.786,-1.786,-1.786,-1.786,-1.786,-1.786,-1.786,-1.786,-1.786,-1.786,-1.786,-1.786,-1.786,-1.786,-1.786,-1.786,-1.786,-1.786,-1.786,-1.786,-1.7046,-1.6992,-1.7053,-1.7093,-1.7305,-1.7305,-1.7175,-1.7297,-1.7311,-1.7392,-1.7507,-1.7765,-1.7806,-1.7656,-1.7717,-1.7806,-1.7846,-1.786,-1.786,-1.786,-1.786,-1.786,-1.786,-1.786,-1.786,-1.786,-1.786,-1.786,-1.786,-1.786,-1.786,-1.786,-1.786,-1.786,-1.786,-1.786,-1.786,-1.786,-1.786,-1.786,-1.786,-1.786,-1.786,-1.786,-1.786,-1.786,-1.786,-1.786,-1.786,-1.786,-1.786,-1.786,-1.786,-1.786,-1.786,-1.786,-1.786,-1.786,-1.786,-1.786,-1.786,-1.786,-1.786,-1.786,-1.786,-1.7853,-1.786,-1.786,-1.786,-1.786,-1.7853,-1.786,-1.786,-1.786,-1.786,-1.786,-1.786,-1.786,-1.786,-1.786,-1.786,-1.786,-1.786,-1.786,-1.786,-1.786,-1.786,-1.786,-1.786,-1.786,-1.786,-1.786,-1.786,-1.786,-1.786,-1.786,-1.786,-1.786,-1.786,-1.786,-1.786,-1.786,-1.786,-1.786,-1.786,-1.786,-1.786,-1.786,-1.786,-1.786,-1.786,-1.786,-1.786,-1.786,-1.786,-1.7168,-1.708,-1.6976,-1.7236,-1.7456,-1.7456,-1.7545,-1.7446,-1.7467,-1.7548,-1.7684,-1.7916,-1.7978,-1.7833,-1.7853,-1.786,-1.786,-1.786,-1.786,-1.786,-1.786,-1.786,-1.786,-1.786,-1.786,-1.786,-1.786,-1.786,-1.786,-1.786,-1.786,-1.786,-1.786,-1.786,-1.786,-1.786,-1.786,-1.786,-1.786,-1.786,-1.786,-1.786,-1.786,-1.786,-1.786,-1.786,-1.786,-1.786,-1.786,-1.786,-1.786,-1.786,-1.786,-1.786,-1.786,-1.786,-1.786,-1.786,-1.786,-1.786,-1.786,-1.786,-1.786,-1.786,-1.786,-1.786,-1.786,-1.786,-1.786,-1.786,-1.786,-1.786,-1.786,-1.786,-1.786,-1.786,-1.786,-1.786,-1.786,-1.786,-1.786,-1.786,-1.786,-1.786,-1.786,-1.786,-1.786,-1.786,-1.786,-1.786,-1.786,-1.786,-1.786,-1.786,-1.786,-1.786,-1.786,-1.786,-1.786,-1.786,-1.786,-1.786,-1.786,-1.786,-1.786,-1.786,-1.786,-1.786,-1.786,-1.786,-1.786,-1.786,-1.786,-1.786,-1.786,-1.7385,-1.7808,-1.7163,-1.717,-1.7399,-1.7621,-1.7703,-1.7609,-1.7623,-1.7704,-1.7819,-1.7833,-1.784,-1.786,-1.786,-1.786,-1.786,-1.786,-1.786,-1.786,-1.786,-1.786,-1.786,-1.786,-1.786,-1.786,-1.786,-1.786,-1.786,-1.786,-1.786,-1.786,-1.786,-1.786,-1.786,-1.786,-1.786,-1.786,-1.786,-1.786,-1.786,-1.786,-1.786,-1.786,-1.786,-1.786,-1.786,-1.786,-1.786,-1.786,-1.786,-1.786,-1.786,-1.786,-1.786,-1.786,-1.786,-1.786,-1.786,-1.786,-1.786,-1.786,-1.786,-1.786,-1.786,-1.786,-1.786,-1.786,-1.786,-1.786,-1.786,-1.786,-1.786,-1.786,-1.786,-1.786,-1.786,-1.786,-1.786,-1.786,-1.786,-1.786,-1.786,-1.786,-1.786,-1.786,-1.786,-1.786,-1.786,-1.786,-1.786,-1.786,-1.786,-1.786,-1.786,-1.786,-1.786,-1.786,-1.786,-1.786,-1.786,-1.786,-1.786,-1.786,-1.786,-1.786,-1.786,-1.786,-1.786,-1.786,-1.786,-1.786,-1.786,-1.786,-1.786,-1.7595,-1.7878,-1.7738,-1.7548,-1.7772,-1.7779,-1.7861,-1.7751,-1.7772,-1.7806,-1.7853,-1.786,-1.786,-1.786,-1.786,-1.786,-1.786,-1.786,-1.786,-1.786,-1.786,-1.786,-1.786,-1.786,-1.786,-1.786,-1.786,-1.786,-1.786,-1.786,-1.786,-1.786,-1.786,-1.786,-1.786,-1.786,-1.786,-1.786,-1.786,-1.786,-1.786,-1.786,-1.786,-1.786,-1.786,-1.786,-1.786,-1.786,-1.786,-1.786,-1.786,-1.786,-1.786,-1.786,-1.786,-1.786,-1.786,-1.786,-1.786,-1.786,-1.786,-1.786,-1.786,-1.786,-1.786,-1.786,-1.786,-1.786,-1.786,-1.786,-1.786,-1.786,-1.786,-1.786,-1.786,-1.786,-1.786,-1.786,-1.786,-1.786,-1.786,-1.786,-1.786,-1.786,-1.786,-1.786,-1.786,-1.786,-1.786,-1.786,-1.786,-1.786,-1.786,-1.786,-1.786,-1.786,-1.786,-1.786,-1.786,-1.786,-1.786,-1.786,-1.786,-1.786,-1.786,-1.786,-1.786,-1.786,-1.786,-1.786,-1.786,-1.786,-1.786,-1.786,-1.786,-1.8005,-1.801,-1.7889,-1.793,-1.793,-1.793,-1.7985,-1.7853,-1.7853,-1.786,-1.786,-1.786,-1.786,-1.786,-1.786,-1.786,-1.786,-1.786,-1.786,-1.786,-1.786,-1.786,-1.786,-1.786,-1.786,-1.786,-1.786,-1.786,-1.786,-1.786,-1.786,-1.786,-1.786,-1.786,-1.786,-1.786,-1.786,-1.786,-1.786,-1.786,-1.786,-1.786,-1.786,-1.786,-1.786,-1.786,-1.786,-1.786,-1.786,-1.786,-1.786,-1.786,-1.786,-1.786,-1.786,-1.786,-1.786,-1.786,-1.786,-1.786,-1.786,-1.786,-1.786,-1.786,-1.786,-1.786,-1.786,-1.786,-1.786,-1.786,-1.786,-1.786,-1.786,-1.786,-1.786,-1.786,-1.786,-1.786,-1.786,-1.786,-1.786,-1.786,-1.786,-1.786,-1.786,-1.786,-1.786,-1.786,-1.786,-1.786,-1.786,-1.786,-1.786,-1.786,-1.786,-1.786,-1.786,-1.786,-1.786,-1.786,-1.786,-1.786,-1.786,-1.786,-1.786,-1.786,-1.786,-1.786,-1.786,-1.786,-1.786,-1.786,-1.786,-1.786,-1.786,-1.7921,-1.7901,-1.786,-1.784,-1.784,-1.7846,-1.7853,-1.786,-1.786,-1.786,-1.786,-1.786,-1.786,-1.786,-1.786,-1.786,-1.786,-1.786,-1.786,-1.786,-1.786,-1.786,-1.786,-1.786,-1.786,-1.786,-1.786,-1.786,-1.786,-1.786,-1.786,-1.786,-1.786,-1.786,-1.786,-1.786,-1.786,-1.786,-1.786,-1.786,-1.786,-1.786,-1.786,-1.786,-1.786,-1.786,-1.786,-1.786,-1.786,-1.786,-1.786,-1.786,-1.786,-1.786,-1.786,-1.786,-1.786,-1.786,-1.786,-1.786,-1.786,-1.786,-1.786,-1.786,-1.786,-1.786,-1.786,-1.786,-1.786,-1.786,-1.786,-1.786,-1.786,-1.786,-1.786,-1.786,-1.786,-1.786,-1.786,-1.786,-1.786,-1.786,-1.786,-1.786,-1.786,-1.786,-1.786,-1.786,-1.786,-1.786,-1.786,-1.786,-1.786,-1.786,-1.786,-1.786,-1.786,-1.786,-1.786,-1.786,-1.786,-1.786,-1.786,-1.786,-1.786,-1.786,-1.786,-1.786,-1.786,-1.786,-1.786,-1.786,-1.786,-1.786,-1.786,-1.7996,-1.7975,-1.7955,-1.7914,-1.786,-1.786,-1.786,-1.786,-1.786,-1.786,-1.786,-1.786,-1.786,-1.786,-1.786,-1.786,-1.786,-1.786,-1.786,-1.786,-1.786,-1.786,-1.786,-1.786,-1.786,-1.786,-1.786,-1.786,-1.786,-1.786,-1.786,-1.786,-1.786,-1.786,-1.786,-1.786,-1.786,-1.786,-1.786,-1.786,-1.786,-1.786,-1.786,-1.786,-1.786,-1.786,-1.786,-1.786,-1.786,-1.786,-1.786,-1.786,-1.786,-1.786,-1.786,-1.786,-1.786,-1.786,-1.786,-1.786,-1.786,-1.786,-1.786,-1.786,-1.786,-1.786,-1.786,-1.786,-1.786,-1.786,-1.786,-1.786,-1.786,-1.786,-1.786,-1.786,-1.786,-1.786,-1.786,-1.786,-1.786,-1.786,-1.786,-1.786,-1.786,-1.786,-1.786,-1.786,-1.786,-1.786,-1.786,-1.786,-1.786,-1.786,-1.786,-1.786,-1.786,-1.786,-1.786,-1.786,-1.786,-1.786,-1.786,-1.786,-1.786,-1.786,-1.786,-1.786,-1.786,-1.786,-1.786,-1.786,-1.786,-1.786,-1.786,-1.4619,-1.7793,-1.8002,-1.7955,-1.7887,-1.7887,-1.7874,-1.7867,-1.786,-1.786,-1.786,-1.786,-1.786,-1.786,-1.786,-1.786,-1.786,-1.786,-1.786,-1.786,-1.786,-1.786,-1.786,-1.786,-1.786,-1.786,-1.786,-1.786,-1.786,-1.786,-1.786,-1.786,-1.786,-1.786,-1.786,-1.786,-1.786,-1.786,-1.786,-1.786,-1.786,-1.786,-1.786,-1.786,-1.786,-1.786,-1.786,-1.786,-1.786,-1.786,-1.786,-1.786,-1.786,-1.786,-1.786,-1.786,-1.786,-1.786,-1.786,-1.786,-1.786,-1.786,-1.786,-1.786,-1.786,-1.786,-1.786,-1.786,-1.786,-1.786,-1.786,-1.786,-1.786,-1.786,-1.786,-1.786,-1.786,-1.786,-1.786,-1.786,-1.786,-1.786,-1.786,-1.786,-1.786,-1.786,-1.786,-1.786,-1.786,-1.786,-1.786,-1.786,-1.786,-1.786,-1.786,-1.786,-1.786,-1.786,-1.786,-1.786,-1.786,-1.786,-1.786,-1.786,-1.786,-1.786,-1.786,-1.786,-1.786,-1.786,-1.786,-1.786,-1.786,-1.786,-1.786,-0.7393,-1.738,-1.7334,-1.7295,-1.7713,-1.7935,-1.7907,-1.7874,-1.7867,-1.786,-1.786,-1.786,-1.786,-1.786,-1.786,-1.786,-1.786,-1.786,-1.786,-1.786,-1.786,-1.786,-1.786,-1.786,-1.786,-1.786,-1.786,-1.786,-1.786,-1.786,-1.786,-1.786,-1.786,-1.786,-1.786,-1.786,-1.786,-1.786,-1.786,-1.786,-1.786,-1.786,-1.786,-1.786,-1.786,-1.786,-1.786,-1.786,-1.786,-1.786,-1.786,-1.786,-1.786,-1.786,-1.786,-1.786,-1.786,-1.786,-1.786,-1.786,-1.786,-1.786,-1.786,-1.786,-1.786,-1.786,-1.786,-1.786,-1.786,-1.786,-1.786,-1.786,-1.786,-1.786,-1.786,-1.786,-1.786,-1.786,-1.786,-1.786,-1.786,-1.786,-1.786,-1.786,-1.786,-1.786,-1.786,-1.786,-1.786,-1.786,-1.786,-1.786,-1.786,-1.786,-1.786,-1.786,-1.786,-1.786,-1.786,-1.786,-1.786,-1.786,-1.786,-1.786,-1.786,-1.786,-1.786,-1.786,-1.786,-1.786,-1.786,-1.786,-1.786,-1.786,-1.786,-0.2242,-0.606,-0.6055,-1.0548,-1.7334,-1.7989,-1.7948,-1.7907,-1.788,-1.786,-1.786,-1.786,-1.786,-1.786,-1.786,-1.786,-1.786,-1.786,-1.786,-1.786,-1.786,-1.786,-1.786,-1.786,-1.786,-1.786,-1.786,-1.786,-1.786,-1.786,-1.786,-1.786,-1.786,-1.786,-1.786,-1.786,-1.786,-1.786,-1.786,-1.786,-1.786,-1.786,-1.786,-1.786,-1.786,-1.786,-1.786,-1.786,-1.786,-1.786,-1.786,-1.786,-1.786,-1.786,-1.786,-1.786,-1.786,-1.786,-1.786,-1.786,-1.786,-1.786,-1.786,-1.786,-1.786,-1.786,-1.786,-1.786,-1.786,-1.786,-1.786,-1.786,-1.786,-1.786,-1.786,-1.786,-1.786,-1.786,-1.786,-1.786,-1.786,-1.786,-1.786,-1.786,-1.786,-1.786,-1.786,-1.786,-1.786,-1.786,-1.786,-1.786,-1.786,-1.786,-1.786,-1.786,-1.786,-1.786,-1.786,-1.786,-1.786,-1.786,-1.786,-1.786,-1.786,-1.786,-1.786,-1.786,-1.786,-1.786,-1.786,-1.786,-1.786,-1.786,-1.786,0.0,0.0,0.0,-0.4264,-1.1464,-1.3928,-1.5706,-1.7477,-1.7901,-1.788,-1.7867,-1.786,-1.786,-1.786,-1.786,-1.786,-1.786,-1.786,-1.786,-1.786,-1.786,-1.786,-1.786,-1.786,-1.786,-1.786,-1.786,-1.786,-1.786,-1.786,-1.786,-1.786,-1.786,-1.786,-1.786,-1.786,-1.786,-1.786,-1.786,-1.786,-1.786,-1.786,-1.786,-1.786,-1.786,-1.786,-1.786,-1.786,-1.786,-1.786,-1.786,-1.786,-1.786,-1.786,-1.786,-1.786,-1.786,-1.786,-1.786,-1.786,-1.786,-1.786,-1.786,-1.786,-1.786,-1.786,-1.786,-1.786,-1.786,-1.786,-1.786,-1.786,-1.786,-1.786,-1.786,-1.786,-1.786,-1.786,-1.786,-1.786,-1.786,-1.786,-1.786,-1.786,-1.786,-1.786,-1.786,-1.786,-1.786,-1.786,-1.786,-1.786,-1.786,-1.786,-1.786,-1.786,-1.786,-1.786,-1.786,-1.786,-1.786,-1.786,-1.786,-1.786,-1.786,-1.786,-1.786,-1.786,-1.786,-1.786,-1.786,-1.786,-1.786,-1.786,-1.786,0.0,0.0,0.0,0.0,0.0,-0.65,-1.1648,-1.7027,-1.7699,-1.7907,-1.7867,-1.7867,-1.786,-1.786,-1.786,-1.786,-1.786,-1.786,-1.786,-1.786,-1.786,-1.786,-1.786,-1.786,-1.786,-1.786,-1.786,-1.786,-1.786,-1.786,-1.786,-1.786,-1.786,-1.786,-1.786,-1.786,-1.786,-1.786,-1.786,-1.786,-1.786,-1.786,-1.786,-1.786,-1.786,-1.786,-1.786,-1.786,-1.786,-1.786,-1.786,-1.786,-1.786,-1.786,-1.786,-1.786,-1.786,-1.786,-1.786,-1.786,-1.786,-1.786,-1.786,-1.786,-1.786,-1.786,-1.786,-1.786,-1.786,-1.786,-1.786,-1.786,-1.786,-1.786,-1.786,-1.786,-1.786,-1.786,-1.786,-1.786,-1.786,-1.786,-1.786,-1.786,-1.786,-1.786,-1.786,-1.786,-1.786,-1.786,-1.786,-1.786,-1.786,-1.786,-1.786,-1.786,-1.786,-1.786,-1.786,-1.786,-1.786,-1.786,-1.786,-1.786,-1.786,-1.786,-1.786,-1.786,-1.786,-1.786,-1.786,-1.786,-1.786,-1.786,-1.786,0.0,0.0,0.0,0.0,0.0,0.0,-0.3583,-0.603,-1.3642,-1.7921,-1.7914,-1.788,-1.7867,-1.786,-1.786,-1.786,-1.786,-1.786,-1.786,-1.786,-1.786,-1.786,-1.786,-1.786,-1.786,-1.786,-1.786,-1.786,-1.786,-1.786,-1.786,-1.786,-1.7874,-1.7867,-1.7867,-1.7867,-1.7867,-1.7867,-1.7867,-1.786,-1.786,-1.786,-1.786,-1.786,-1.786,-1.786,-1.786,-1.786,-1.786,-1.786,-1.786,-1.786,-1.786,-1.786,-1.786,-1.786,-1.786,-1.786,-1.786,-1.786,-1.786,-1.786,-1.786,-1.786,-1.786,-1.786,-1.786,-1.786,-1.786,-1.786,-1.786,-1.786,-1.786,-1.786,-1.786,-1.786,-1.786,-1.786,-1.786,-1.786,-1.786,-1.786,-1.786,-1.786,-1.786,-1.786,-1.786,-1.786,-1.786,-1.786,-1.786,-1.786,-1.786,-1.786,-1.786,-1.786,-1.786,-1.786,-1.786,-1.786,-1.786,-1.786,-1.786,-1.786,-1.786,-1.786,-1.786,-1.786,-1.786,-1.786,-1.786,-1.786,-1.786,-1.786,-1.786,0.0,0.0,0.0,0.0,0.0,0.0,0.0,0.0,-0.7819,-1.2965,-1.7706,-1.7907,-1.788,-1.7867,-1.786,-1.786,-1.786,-1.786,-1.786,-1.786,-1.786,-1.786,-1.786,-1.786,-1.786,-1.786,-1.786,-1.786,-1.7867,-1.7867,-1.7867,-1.7894,-1.7894,-1.7887,-1.7894,-1.7894,-1.7894,-1.7887,-1.788,-1.7867,-1.7867,-1.7867,-1.786,-1.786,-1.786,-1.786,-1.786,-1.786,-1.786,-1.786,-1.786,-1.786,-1.786,-1.786,-1.786,-1.786,-1.786,-1.786,-1.786,-1.786,-1.786,-1.786,-1.786,-1.786,-1.786,-1.786,-1.786,-1.786,-1.786,-1.786,-1.786,-1.786,-1.786,-1.786,-1.786,-1.786,-1.786,-1.786,-1.786,-1.786,-1.786,-1.786,-1.786,-1.786,-1.786,-1.786,-1.786,-1.786,-1.786,-1.786,-1.786,-1.786,-1.786,-1.786,-1.786,-1.786,-1.786,-1.786,-1.786,-1.786,-1.786,-1.786,-1.786,-1.786,-1.786,-1.786,-1.786,-1.786,-1.786,-1.786,-1.786,-1.786,-1.786,-1.786,-1.786,0.0,0.0,0.0,0.0,0.0,0.0,0.0,0.0,0.0,-0.603,-1.4542,-1.7477,-1.7907,-1.788,-1.7867,-1.786,-1.786,-1.786,-1.786,-1.786,-1.786,-1.786,-1.786,-1.786,-1.786,-1.786,-1.786,-1.786,-1.7867,-1.7874,-1.7901,-1.7928,-1.657,-1.5886,-1.5658,-1.7477,-1.7713,-1.7706,-1.6773,-1.6071,-1.7646,-1.7874,-1.7867,-1.786,-1.786,-1.786,-1.786,-1.786,-1.786,-1.786,-1.786,-1.786,-1.786,-1.786,-1.786,-1.786,-1.786,-1.786,-1.786,-1.786,-1.786,-1.786,-1.786,-1.786,-1.786,-1.786,-1.786,-1.786,-1.786,-1.786,-1.786,-1.786,-1.786,-1.786,-1.786,-1.786,-1.786,-1.786,-1.786,-1.786,-1.786,-1.786,-1.786,-1.786,-1.786,-1.786,-1.786,-1.786,-1.786,-1.786,-1.786,-1.786,-1.786,-1.786,-1.786,-1.786,-1.786,-1.786,-1.786,-1.786,-1.786,-1.786,-1.786,-1.786,-1.786,-1.786,-1.786,-1.786,-1.786,-1.786,-1.786,-1.786,-1.786,-1.786,-1.786,0.0,0.0,0.0,0.0,0.0,0.0,0.0,0.0,0.0,0.0,-0.5583,-1.3192,-1.7928,-1.7914,-1.788,-1.7874,-1.7867,-1.7867,-1.786,-1.786,-1.786,-1.786,-1.786,-1.786,-1.786,-1.786,-1.786,-1.7874,-1.7887,-1.7901,-1.7693,-1.7255,-1.5003,-1.2752,-1.1398,-1.3885,-1.6151,-1.7301,-1.5009,-1.498,-1.6558,-1.7679,-1.7907,-1.788,-1.7867,-1.7867,-1.7867,-1.7867,-1.7867,-1.786,-1.786,-1.786,-1.786,-1.786,-1.786,-1.786,-1.786,-1.786,-1.786,-1.786,-1.786,-1.786,-1.786,-1.786,-1.786,-1.786,-1.786,-1.786,-1.786,-1.786,-1.786,-1.786,-1.786,-1.786,-1.786,-1.786,-1.786,-1.786,-1.786,-1.786,-1.786,-1.786,-1.786,-1.786,-1.786,-1.786,-1.786,-1.786,-1.786,-1.786,-1.786,-1.786,-1.786,-1.786,-1.786,-1.786,-1.786,-1.786,-1.786,-1.786,-1.786,-1.786,-1.786,-1.786,-1.786,-1.786,-1.786,-1.786,-1.786,-1.786,-1.786,-1.786,-1.786,-1.786,-1.786,0.0,0.0,0.0,0.0,0.0,0.0,0.0,0.0,0.0,0.0,0.0,-0.715,-1.2747,-1.6818,-1.7914,-1.7666,-1.788,-1.7874,-1.7867,-1.786,-1.786,-1.786,-1.786,-1.7867,-1.786,-1.7867,-1.7887,-1.7907,-1.7464,-1.7948,-1.7739,-1.7301,-1.3684,-0.985,0.0,0.0,-1.3237,-1.7347,-1.3922,-1.3455,-1.5249,-1.5688,-1.7504,-1.7928,-1.7907,-1.7672,-1.7887,-1.788,-1.7867,-1.786,-1.786,-1.786,-1.786,-1.786,-1.786,-1.786,-1.786,-1.786,-1.786,-1.786,-1.786,-1.786,-1.786,-1.786,-1.786,-1.786,-1.786,-1.786,-1.786,-1.786,-1.786,-1.786,-1.786,-1.786,-1.786,-1.786,-1.786,-1.786,-1.786,-1.786,-1.786,-1.786,-1.786,-1.786,-1.786,-1.786,-1.786,-1.786,-1.786,-1.786,-1.786,-1.786,-1.786,-1.786,-1.786,-1.786,-1.786,-1.786,-1.786,-1.786,-1.786,-1.786,-1.786,-1.786,-1.786,-1.786,-1.786,-1.786,-1.786,-1.786,-1.786,-1.786,-1.786,-1.786,-1.7853,0.0,0.0,0.0,0.0,0.0,0.0,0.0,0.0,0.0,0.0,0.0,0.0,0.0,-1.2539,-1.5682,-1.6805,-1.7471,-1.7894,-1.788,-1.7867,-1.786,-1.7874,-1.788,-1.7874,-1.7887,-1.7216,-1.6336,-1.6132,-1.57,-1.6862,-1.78,-1.761,-1.4412,0.0,0.0,0.0,-0.6048,-1.4871,-1.5783,-1.3044,-1.3029,-1.2786,-1.4352,-1.57,-1.6824,-1.7033,-1.7471,-1.7914,-1.7887,-1.7867,-1.7867,-1.786,-1.786,-1.786,-1.786,-1.786,-1.786,-1.786,-1.786,-1.786,-1.786,-1.786,-1.786,-1.786,-1.786,-1.786,-1.786,-1.786,-1.786,-1.786,-1.786,-1.786,-1.786,-1.786,-1.786,-1.786,-1.786,-1.786,-1.786,-1.786,-1.786,-1.786,-1.786,-1.786,-1.786,-1.786,-1.786,-1.786,-1.786,-1.786,-1.786,-1.786,-1.786,-1.786,-1.786,-1.786,-1.786,-1.786,-1.786,-1.786,-1.786,-1.786,-1.786,-1.786,-1.786,-1.786,-1.786,-1.786,-1.786,-1.786,-1.786,-1.786,-1.786,-1.7853,-1.784,0.0,0.0,0.0,0.0,0.0,0.0,0.0,0.0,0.0,0.0,0.0,0.0,-0.2016,0.0,-0.3343,-0.7131,-1.6342,-1.7236,-1.7887,-1.7867,-1.7874,-1.7894,-1.7451,-1.6773,-1.7713,-1.6138,-1.3425,-1.1176,-1.0974,-1.4619,-1.7373,-1.6472,-0.651,0.0,0.0,0.0,-0.4936,-1.262,-1.4674,0.0,0.0,0.0,0.0,-0.8265,-1.0726,-1.3663,-1.6157,-1.7753,-1.7955,-1.7921,-1.7894,-1.788,-1.7874,-1.7874,-1.7867,-1.786,-1.786,-1.786,-1.786,-1.786,-1.786,-1.786,-1.786,-1.786,-1.786,-1.786,-1.786,-1.786,-1.786,-1.786,-1.786,-1.786,-1.786,-1.786,-1.786,-1.786,-1.786,-1.786,-1.786,-1.786,-1.786,-1.786,-1.786,-1.786,-1.786,-1.786,-1.786,-1.786,-1.786,-1.786,-1.786,-1.786,-1.786,-1.786,-1.786,-1.786,-1.786,-1.786,-1.786,-1.786,-1.786,-1.786,-1.786,-1.786,-1.786,-1.786,-1.786,-1.786,-1.786,-1.786,-1.786,-1.786,-1.786,-1.7846,-1.7826]}]]